GFSSW_prec_cloud_003.txt.gz
Cloud_Cover
0 0 0 0 0 0 0 0 0 0 0 5 21 70 100 6 10 0 0 0 0 0 0 0 5 8 18 22 87 80 96 35 5 21 3 5 91 40 4 3 97 92 9 8 78
0 0 0 0 0 0 0 0 0 0 0 10 12 100 98 11 8 0 0 0 0 0 0 4 5 4 5 38 92 5 29 72 44 26 4 0 17 83 0 0 0 0 0 0 0
0 0 0 0 0 0 0 0 0 0 0 8 22 100 67 5 0 0 0 0 0 0 0 1 1 3 5 5 4 5 25 80 44 5 0 4 12 4 3 0 1 0 0 0 0
0 0 0 0 0 0 0 0 0 0 0 8 32 82 4 0 0 0 0 0 0 0 0 0 5 4 6 7 5 48 14 0 4 0 0 0 4 0 0 3 5 14 5 17 18
0 0 0 0 0 0 0 0 0 0 0 14 29 94 1 0 0 0 0 0 0 0 0 0 0 5 97 50 1 2 4 0 3 0 1 4 4 5 0 30 5 10 5 5 5
0 0 0 0 0 0 0 0 0 0 0 15 73 91 4 0 0 0 0 0 0 0 0 0 0 4 16 5 2 7 67 3 0 0 0 0 0 0 0 3 5 5 2 1 1
0 0 0 0 0 0 0 0 0 0 0 23 100 27 0 0 0 0 0 0 0 0 0 0 0 0 0 0 3 92 2 0 0 0 5 0 0 0 0 0 0 0 0 0 0
0 0 0 0 0 0 0 0 0 0 0 75 100 1 0 0 0 0 0 0 0 0 0 0 0 0 0 0 3 12 21 0 0 5 4 0 0 0 0 0 0 0 0 0 0
0 0 0 0 0 0 0 0 0 3 8 100 17 0 0 0 0 0 0 0 0 0 0 0 0 0 0 3 0 4 0 0 0 5 3 4 3 0 0 0 0 0 0 0 0
0 0 0 0 0 3 5 0 0 39 26 2 0 0 0 0 0 0 0 0 0 0 0 0 0 0 0 0 0 1 3 0 0 0 0 2 3 0 0 0 0 0 0 0 0
0 0 0 0 0 12 51 0 0 0 0 0 0 0 0 0 0 0 0 0 0 0 0 0 0 0 0 0 0 0 5 0 0 0 0 0 0 0 0 0 0 0 0 0 0
0 0 0 0 30 4 10 0 0 0 0 0 0 0 0 0 0 0 0 0 0 0 0 0 0 0 0 0 0 0 5 1 12 3 10 40 13 0 3 0 4 2 0 0 0
0 0 9 8 0 0 0 0 0 0 0 0 0 0 0 0 0 0 0 0 0 0 0 0 0 0 0 0 0 0 0 1 1 5 83 92 74 5 5 3 10 22 4 0 0
0 1 27 98 0 0 0 0 0 0 0 0 0 0 0 0 0 0 0 0 0 0 0 0 0 0 0 0 0 0 0 0 5 5 1 1 0 5 92 2 59 54 5 0 0
0 1 100 100 50 3 0 0 0 0 0 0 0 0 0 0 0 0 0 0 0 0 0 0 0 0 0 0 0 0 3 4 4 0 0 0 0 0 5 0 64 46 7 0 0
22 4 100 22 68 10 0 0 0 0 0 0 0 0 0 0 0 0 0 0 0 0 0 0 0 0 0 0 0 0 16 5 0 0 0 0 0 0 0 0 0 0 0 1 5
15 11 100 17 0 0 0 0 0 0 0 0 0 0 0 0 0 0 0 0 0 0 0 0 0 0 0 0 0 0 5 4 0 0 0 0 0 0 0 1 0 0 0 0 0
34 100 45 6 0 0 0 0 0 0 0 0 0 0 0 0 0 0 0 0 0 0 0 0 0 0 0 0 0 0 5 0 0 0 0 0 0 0 0 5 0 4 0 0 0
8 81 92 5 0 0 0 0 0 0 0 0 0 0 0 0 0 0 0 0 0 0 0 0 0 0 0 0 0 0 0 0 0 0 0 0 0 0 0 28 1 0 0 0 0
62 100 79 5 5 0 0 0 1 0 0 0 0 0 5 4 0 0 0 0 0 0 0 0 0 0 0 0 0 0 0 0 0 0 0 0 0 0 0 0 3 0 0 0 0
99 17 8 0 4 2 2 9 5 0 0 0 0 0 1 14 21 18 0 0 0 0 0 0 0 0 0 0 0 0 0 0 0 0 0 0 0 0 0 0 0 3 1 0 0
100 100 98 5 5 5 9 100 20 0 0 0 0 0 1 100 96 80 0 0 0 0 0 0 0 0 0 0 0 0 0 0 0 0 0 0 0 0 0 0 0 5 5 0 0
100 100 49 93 100 100 100 69 91 6 0 0 0 0 100 32 18 5 100 0 0 0 0 0 0 0 0 0 0 0 0 0 0 0 0 0 0 0 0 0 0 0 0 0 0
81 72 87 100 100 100 100 100 100 100 0 0 0 0 65 30 5 1 0 1 2 0 0 0 0 0 0 0 0 0 0 0 0 0 0 0 0 0 0 0 0 0 0 0 0
96 17 81 92 100 100 100 100 100 86 0 0 0 0 0 2 96 80 88 39 3 2 0 3 0 0 0 0 0 0 0 0 0 0 0 0 0 0 0 0 0 0 0 0 0
100 47 99 76 44 87 100 100 100 100 30 1 0 0 0 96 12 80 63 3 96 18 3 1 0 0 0 0 0 0 0 0 3 17 0 0 0 0 0 0 0 0 0 0 0
6 62 100 100 60 93 100 100 100 100 100 5 4 0 0 57 12 44 100 78 73 94 15 5 4 0 0 0 0 70 8 4 4 29 28 1 0 0 0 0 0 0 0 0 0

GFSSW_prec_cloud_006.txt.gz
Cloud_Cover
0 0 0 0 0 0 0 0 0 0 0 0 1 24 95 100 31 0 0 0 0 0 0 0 20 6 40 70 92 88 71 11 4 5 4 5 2 0 0 0 0 0 6 19 22
0 0 0 0 0 0 0 0 0 0 0 0 0 25 93 100 15 0 0 0 0 0 0 0 12 3 62 64 7 57 53 5 2 2 4 4 4 3 1 0 0 0 10 13 9
0 0 0 0 0 0 0 0 0 0 0 0 11 22 95 35 0 0 0 0 0 0 0 0 0 0 5 10 80 12 5 5 4 0 0 0 17 3 0 1 0 0 1 15 45
2 0 0 0 0 0 0 0 0 0 0 0 15 26 38 1 0 0 0 0 0 0 0 0 0 0 5 5 12 35 5 0 0 18 5 1 1 4 15 94 3 36 0 16 40
0 0 0 0 0 0 0 0 0 0 0 4 22 46 12 0 0 0 0 0 0 0 0 0 0 2 3 3 2 5 4 0 0 0 1 4 0 5 12 76 72 89 21 0 8
0 0 0 0 0 0 0 0 0 0 0 20 73 97 7 0 0 0 0 0 0 0 0 0 0 2 1 3 0 5 5 3 0 0 0 0 0 0 0 3 50 44 6 0 1
0 0 2 0 0 0 0 0 0 0 6 34 68 36 0 0 0 0 0 0 0 0 0 0 0 2 3 1 3 4 3 0 0 0 0 0 0 0 0 0 0 0 0 0 0
0 0 0 0 0 0 0 0 0 0 34 19 92 4 0 0 0 0 0 0 0 0 0 0 0 0 0 0 1 4 1 0 0 0 0 0 0 0 0 0 0 0 0 0 0
0 0 0 0 12 15 7 2 3 74 40 20 14 0 0 0 0 0 0 0 0 0 0 0 0 0 0 0 0 0 0 0 0 0 1 5 0 0 0 0 0 0 0 0 0
0 0 0 5 12 33 19 0 0 26 20 0 0 0 0 0 0 0 0 0 0 0 0 0 0 0 0 0 0 0 0 0 0 4 1 5 2 0 0 0 0 0 0 0 0
0 0 0 5 62 3 49 0 0 0 0 0 0 0 0 0 0 0 0 0 0 0 0 0 0 0 0 0 0 0 0 0 0 1 5 5 5 5 0 0 0 0 0 0 0
0 0 1 3 20 0 10 0 0 0 0 0 0 0 0 0 0 0 0 0 0 0 0 0 0 0 0 0 0 0 0 0 3 2 4 70 97 8 4 1 4 1 2 0 0
0 7 19 62 0 0 0 0 0 0 0 0 0 0 0 0 0 0 0 0 0 0 0 0 0 0 0 0 0 0 0 0 0 5 5 8 7 4 49 5 2 5 5 1 0
0 0 79 64 0 1 0 0 0 0 0 0 0 0 0 0 0 0 0 0 0 0 0 0 0 0 0 0 0 0 0 0 0 5 5 5 0 5 77 23 2 5 5 3 0
0 0 100 94 28 1 0 0 0 0 0 0 0 0 0 0 0 0 0 0 0 0 0 0 0 0 0 0 0 0 0 0 4 9 5 2 2 0 5 5 2 0 1 4 0
7 9 98 24 28 4 0 0 0 0 0 0 0 0 0 0 0 0 0 0 0 0 0 0 0 0 0 0 0 0 2 15 5 56 4 0 0 0 0 0 3 4 4 0 0
100 8 97 47 0 0 0 0 0 0 0 0 0 0 0 0 0 0 0 0 0 0 0 0 0 0 0 0 0 0 0 1 2 22 4 0 0 0 0 0 0 3 5 0 0
100 8 98 45 1 1 0 0 0 0 0 0 0 0 0 0 0 0 0 0 0 0 0 0 0 0 0 0 0 0 0 0 5 5 4 0 0 0 0 0 0 1 1 0 0
100 100 100 96 74 30 2 0 0 0 0 0 0 0 0 0 0 0 0 0 0 0 0 0 0 0 0 0 0 0 0 0 7 2 0 0 0 0 0 0 0 0 5 0 0
100 100 100 100 71 50 3 5 6 5 0 0 0 0 0 0 0 0 0 0 0 0 0 0 0 0 0 0 0 0 0 0 4 1 0 0 0 0 0 0 0 0 1 0 1
100 100 100 100 100 99 5 5 5 5 0 0 0 0 0 0 0 0 0 0 0 0 0 0 0 0 0 0 0 0 0 0 0 2 0 0 0 0 0 0 0 0 0 0 0
100 100 100 100 100 100 100 99 6 7 2 0 0 0 0 0 0 0 0 0 0 0 0 0 0 0 0 0 0 0 0 0 0 0 0 0 0 0 0 0 0 0 0 0 0
100 98 95 100 74 100 23 79 78 100 11 0 0 0 0 0 0 0 0 0 0 3 4 0 0 0 0 0 0 0 0 0 0 0 0 0 0 0 0 0 0 0 0 0 0
67 98 74 100 62 21 53 95 84 100 85 3 0 0 0 0 0 0 0 2 6 99 5 1 0 0 0 0 0 0 0 0 0 0 0 0 0 0 0 0 0 0 0 0 0
94 98 100 68 86 6 5 100 100 100 100 92 5 5 5 0 0 0 0 99 90 68 5 5 0 0 0 0 0 0 0 0 0 0 0 0 0 0 0 0 0 0 0 0 0
99 98 97 100 100 100 67 67 82 100 100 100 82 96 5 0 0 0 0 5 100 41 45 0 0 0 0 0 0 0 0 0 0 0 0 0 0 0 0 0 0 0 0 0 0
92 75 100 95 100 100 100 85 99 38 100 100 100 100 14 6 0 0 0 77 22 29 100 12 0 0 0 0 0 0 0 0 0 0 0 0 0 0 0 0 0 0 0 0 0

GFSSW_prec_cloud_009.txt.gz
Cloud_Cover
1 1 0 0 0 0 0 0 0 0 0 0 0 0 0 37 0 0 0 0 0 0 0 2 5 53 5 5 5 5 5 4 5 5 5 2 1 0 0 0 0 0 0 0 5
5 2 0 0 0 0 0 0 0 0 0 0 1 20 39 93 0 0 0 0 0 0 0 0 23 88 5 5 49 32 39 1 2 3 2 53 9 5 0 0 0 0 0 0 4
2 0 0 0 0 0 0 0 0 0 0 0 4 18 5 33 0 0 0 0 0 0 0 0 0 5 5 5 5 56 98 22 2 0 0 4 84 0 0 0 0 0 0 0 0
0 0 0 0 0 0 0 0 0 0 5 4 10 27 0 0 0 0 0 0 0 0 0 0 0 0 5 5 5 4 9 57 5 0 0 0 3 5 8 62 6 0 0 0 1
0 0 0 0 0 0 0 0 0 0 8 10 15 37 1 0 0 0 0 0 0 0 0 0 0 0 1 5 4 5 0 0 0 0 0 2 0 40 9 76 56 88 18 3 0
0 0 0 0 0 0 0 0 0 4 0 15 17 14 0 0 0 0 0 0 0 0 0 0 0 0 0 5 0 4 0 0 0 0 0 0 0 0 1 4 13 38 5 9 6
0 0 0 0 0 0 0 4 4 5 4 87 59 2 0 0 0 0 0 0 0 0 0 0 0 0 0 0 0 4 2 0 0 0 0 0 0 0 0 0 0 0 0 0 0
4 7 2 2 0 0 0 24 9 6 90 29 32 0 0 0 0 0 0 0 0 0 0 0 0 0 0 0 0 0 0 0 0 0 0 0 0 0 0 0 0 0 0 0 0
0 0 0 0 18 22 1 0 3 97 34 48 10 0 0 0 0 0 0 0 0 0 0 0 0 0 0 0 0 0 0 0 0 0 0 0 0 0 0 0 0 0 0 0 0
0 0 0 0 2 10 8 0 28 57 31 3 0 0 0 0 0 0 0 0 0 0 0 0 0 0 0 0 0 0 0 0 0 0 0 0 0 0 0 0 0 0 0 0 0
0 0 3 7 3 0 0 0 0 0 0 0 0 0 0 0 0 0 0 0 0 0 0 0 0 0 0 0 0 0 0 0 5 5 5 5 5 0 0 0 0 0 0 0 0
0 0 0 0 0 0 0 0 0 0 0 0 0 0 0 0 0 0 0 0 0 0 0 0 0 0 0 0 0 0 0 0 2 5 4 5 5 5 0 0 0 0 0 0 0
0 0 0 21 0 0 0 0 0 0 0 0 0 0 0 0 0 0 0 0 0 0 0 0 0 0 0 0 0 0 0 0 0 4 5 5 5 1 0 0 3 1 0 1 0
4 4 3 33 0 0 0 0 0 0 0 0 0 0 0 0 0 0 0 0 0 0 0 0 0 0 0 0 0 0 0 0 0 0 0 24 1 5 5 5 1 1 0 4 0
57 100 90 100 4 0 0 0 0 0 0 0 0 0 0 0 0 0 0 0 0 0 0 0 0 0 0 0 0 0 0 0 0 0 0 2 0 0 5 0 0 0 0 0 3
100 92 100 100 29 5 5 2 0 0 0 0 0 0 0 0 0 0 0 0 0 0 0 0 0 0 0 0 0 0 0 0 0 0 2 0 0 0 0 0 0 1 4 2 0
93 91 100 100 100 56 5 5 4 0 0 0 0 0 0 0 0 0 0 0 0 0 0 0 0 0 0 0 0 0 0 0 0 0 0 0 0 0 0 0 0 3 30 0 0
100 100 100 100 100 100 100 10 2 5 31 0 0 0 0 0 0 0 0 0 0 0 0 0 0 0 0 0 0 0 0 0 0 0 0 0 0 0 0 0 0 0 1 0 0
100 100 100 100 100 100 34 9 96 18 6 8 1 0 0 0 0 0 0 0 0 0 0 0 0 0 0 0 0 0 0 0 0 0 0 0 0 0 0 0 0 0 0 0 0
100 100 100 100 100 100 50 100 98 96 55 99 24 0 0 0 0 0 0 0 0 0 0 0 0 0 0 0 0 0 0 0 0 0 2 0 0 0 0 0 0 0 0 0 1
100 100 100 100 100 100 100 100 100 100 38 8 10 1 0 0 0 0 0 0 0 0 0 0 0 0 0 0 0 0 0 0 0 0 0 0 0 0 0 0 0 0 0 0 0
100 100 85 100 96 31 100 99 68 100 61 5 5 5 1 0 0 0 0 0 0 0 0 0 0 0 0 0 0 0 0 0 0 0 0 0 0 0 0 0 0 0 0 0 0
100 5 25 5 99 84 63 100 34 100 100 98 5 5 7 4 0 0 0 0 0 0 0 0 0 0 0 0 0 0 0 0 0 0 0 0 0 0 0 0 0 0 0 0 0
56 59 65 6 81 89 100 100 100 62 99 49 10 52 50 15 0 0 0 0 0 0 0 0 0 0 0 0 0 0 0 0 0 0 0 0 0 2 0 0 0 0 0 0 0
89 70 98 100 100 100 94 100 100 100 79 100 94 52 100 13 4 0 0 0 2 2 1 0 0 0 0 0 0 0 0 0 0 0 0 2 0 1 0 0 0 0 0 0 0
100 100 100 100 100 100 100 100 100 100 94 100 100 100 100 33 5 0 0 0 0 47 32 4 0 0 0 0 0 0 0 0 0 0 0 0 0 0 0 0 0 0 0 0 0
100 100 100 100 100 100 100 100 100 100 100 100 100 100 100 100 20 5 0 5 0 0 66 22 3 5 0 0 0 0 0 0 0 0 0 0 0 0 0 0 0 0 2 0 0

GFSSW_prec_cloud_012.txt.gz
Cloud_Cover
0 0 3 0 0 0 0 0 0 0 0 0 0 0 0 0 0 0 0 0 0 0 0 0 4 5 6 5 5 5 77 79 43 93 2 0 0 0 0 0 0 0 0 0 0
2 0 0 0 0 0 0 0 0 0 0 0 0 0 0 2 0 0 0 0 0 0 0 0 5 5 8 5 5 5 96 95 9 51 10 66 0 0 0 0 0 0 0 0 0
6 6 1 0 0 0 0 0 0 0 0 0 0 0 0 8 0 0 0 0 0 0 0 0 2 5 5 5 5 50 72 35 1 0 1 7 46 0 0 0 0 0 0 0 0
0 0 0 0 0 0 0 0 0 0 0 5 11 19 0 0 0 0 0 0 0 0 0 0 2 5 5 5 5 11 22 0 0 0 0 0 2 0 3 0 0 0 0 0 1
0 0 0 0 0 0 0 0 0 1 2 16 13 15 0 0 0 0 0 0 0 0 0 0 0 4 1 5 3 0 0 0 0 0 0 0 1 0 3 4 2 4 1 0 1
0 0 0 0 0 0 0 0 0 2 0 14 20 1 0 0 0 0 0 0 0 0 0 0 0 1 4 5 5 0 0 0 0 0 0 0 0 0 1 2 42 8 10 22 5
7 0 0 0 0 0 0 0 1 0 2 10 100 0 0 0 0 0 0 0 0 0 0 0 0 0 3 5 4 0 0 0 0 0 0 0 0 0 0 0 0 0 0 0 0
0 0 0 0 0 0 0 0 0 13 51 99 52 0 0 0 0 0 0 0 0 0 0 0 0 0 0 3 0 4 0 4 0 0 0 0 1 0 0 0 0 0 0 0 0
0 0 0 0 0 0 0 0 2 49 32 5 1 0 0 0 0 0 0 0 0 0 0 0 0 0 0 0 0 0 3 7 0 0 0 0 5 0 0 0 0 0 0 0 0
0 0 0 0 0 0 1 0 21 26 0 0 0 0 0 0 0 0 0 0 0 0 0 0 0 0 0 0 0 4 0 5 2 0 0 0 1 0 0 0 0 0 0 0 0
0 0 0 0 0 0 0 0 0 0 0 0 0 0 0 0 0 0 0 0 0 0 0 0 0 0 0 0 0 5 5 5 5 4 5 4 0 0 0 0 0 0 0 0 0
0 0 0 0 0 0 2 0 0 0 0 0 0 0 0 0 0 0 0 0 0 0 0 0 0 0 0 0 0 0 5 5 39 5 4 8 5 0 0 0 0 0 0 0 0
0 0 0 0 0 0 0 0 0 0 0 0 0 0 0 0 0 0 0 0 0 0 0 0 0 0 0 0 0 0 0 5 92 2 5 5 5 0 0 0 0 0 0 0 0
0 0 0 0 4 2 5 0 0 0 0 0 0 0 0 0 0 0 0 0 0 0 0 0 0 0 0 0 0 0 0 4 62 7 5 1 14 5 1 0 0 0 0 0 0
0 0 5 0 0 4 7 9 4 0 0 0 0 0 0 0 0 0 0 0 0 0 0 0 0 0 0 0 0 0 0 0 4 27 33 75 4 5 2 0 0 0 0 0 0
5 3 12 4 0 0 1 0 2 62 10 3 0 0 0 0 0 0 0 0 0 0 0 0 0 0 0 0 0 0 2 3 4 5 5 36 29 3 4 0 0 0 0 0 0
8 85 80 10 8 4 2 5 3 0 92 72 73 1 0 0 0 0 0 0 0 0 0 0 0 0 0 0 0 0 0 4 0 5 6 7 5 0 1 0 0 0 0 0 0
98 97 99 100 94 56 0 5 0 6 100 6 97 85 1 0 0 0 0 0 0 0 0 0 0 0 0 0 0 0 0 0 4 5 16 5 6 0 0 0 0 0 0 4 0
100 100 100 98 100 71 7 0 40 22 7 27 32 48 57 0 0 0 0 0 0 0 0 0 0 0 0 0 0 0 0 0 41 40 49 12 1 0 0 0 0 0 0 0 0
100 100 100 65 86 48 5 4 5 5 77 5 78 13 100 5 0 0 0 0 0 0 0 0 0 0 0 0 0 0 0 0 1 60 94 7 6 0 0 0 0 0 0 0 0
97 100 100 100 97 18 8 3 12 74 5 5 88 99 100 90 5 3 0 0 0 0 0 0 0 0 0 0 0 0 0 0 3 4 22 55 3 0 0 0 0 0 0 4 1
100 100 100 100 100 83 5 5 5 5 5 6 4 28 41 100 5 5 2 0 0 0 0 0 0 0 0 0 0 0 0 0 0 0 5 5 1 5 2 0 0 0 5 1 0
34 38 44 48 72 26 80 66 77 40 9 12 5 29 94 100 48 5 5 0 0 0 0 0 0 4 0 0 0 0 0 0 0 0 4 5 0 3 0 0 0 0 0 0 0
14 2 5 45 99 98 93 27 96 83 97 69 5 21 22 96 100 70 5 5 0 0 0 0 0 0 0 0 0 0 0 0 0 0 0 2 73 14 2 0 0 0 0 0 0
74 99 93 98 100 100 100 93 100 100 96 100 18 81 98 100 100 99 82 33 2 0 0 0 0 4 0 1 4 4 0 0 0 0 1 1 12 100 100 38 0 0 0 0 0
89 100 100 100 100 100 100 100 100 100 100 100 100 100 100 100 100 100 84 70 5 5 2 0 0 0 5 4 1 5 5 0 0 0 0 0 0 5 100 100 4 0 0 0 0
72 100 87 90 100 100 100 100 100 100 100 100 100 93 98 100 100 100 42 76 56 3 1 0 0 0 0 39 82 21 0 1 3 0 0 0 0 5 29 5 5 0 0 0 0

GFSSW_prec_cloud_015.txt.gz
Cloud_Cover
1 0 0 0 0 0 0 0 0 0 0 0 0 0 0 0 0 0 0 0 0 0 29 0 5 5 5 0 0 58 99 100 100 62 88 5 5 5 4 0 0 64 18 0 0
9 0 0 0 0 0 0 0 0 0 0 0 0 0 0 3 0 0 0 0 0 0 0 0 0 5 5 0 0 53 100 73 100 98 99 3 5 3 3 0 0 0 11 0 0
0 0 0 0 0 0 0 0 0 0 0 0 0 0 0 3 0 0 0 0 0 0 0 0 0 5 5 0 1 71 100 100 35 12 100 3 32 5 5 2 0 0 0 0 0
0 0 0 0 0 0 0 0 0 0 0 0 0 1 0 0 0 0 0 0 0 0 0 0 0 5 5 2 0 1 74 68 58 16 56 25 58 5 5 27 0 0 0 0 0
0 0 0 0 0 0 0 0 0 0 0 0 0 0 0 0 0 0 0 0 0 0 0 0 0 5 5 1 5 4 4 4 2 1 20 94 58 11 5 1 0 0 0 0 0
0 0 0 0 0 0 0 0 0 0 0 0 10 11 0 0 0 0 0 0 0 0 0 0 0 0 5 0 5 46 4 5 5 4 5 54 47 5 5 24 0 5 4 0 2
4 0 0 0 0 0 0 0 0 0 0 11 16 1 0 0 0 0 0 0 0 0 0 0 0 0 0 0 0 2 0 4 0 3 5 5 2 5 4 5 5 3 1 1 2
0 0 0 0 0 0 0 0 0 0 32 30 21 0 0 0 0 0 0 0 0 0 0 0 0 0 0 4 4 1 3 69 2 3 3 0 21 0 0 0 0 0 0 0 0
0 0 0 0 0 0 0 0 0 4 2 3 5 0 0 0 0 0 0 0 0 0 0 0 0 0 0 0 1 3 5 14 100 0 3 14 100 3 0 0 4 0 0 0 0
0 0 0 0 0 0 0 0 0 31 18 0 0 0 0 0 0 0 0 0 0 0 0 0 0 0 0 0 0 5 5 87 48 3 5 0 98 4 0 0 0 0 0 0 0
0 0 0 0 0 0 0 0 0 0 0 0 0 0 0 0 0 0 0 0 0 0 0 0 0 0 0 0 0 5 98 93 100 43 1 5 52 2 0 0 2 0 0 0 0
0 0 0 0 0 0 1 0 0 0 0 0 0 0 0 0 0 0 0 0 0 0 0 0 0 0 0 0 0 0 56 60 100 42 54 80 100 99 5 0 0 0 0 0 0
0 0 0 0 0 0 0 0 0 0 0 0 0 0 0 0 0 0 0 0 0 0 0 0 0 0 0 0 0 0 5 92 91 44 96 53 100 97 71 2 0 0 0 0 0
0 0 0 0 0 0 0 0 0 0 0 0 0 0 0 0 0 0 0 0 0 0 0 0 0 0 0 0 0 0 2 21 98 71 100 14 99 96 20 46 1 0 0 0 0
0 0 0 0 0 0 0 0 0 0 0 0 0 0 0 0 0 0 0 0 0 0 0 0 0 0 0 0 0 0 3 5 61 100 87 91 88 97 98 6 4 0 0 0 0
1 5 5 5 2 0 3 0 0 0 0 0 0 0 0 0 0 0 0 0 0 0 0 0 0 0 0 0 0 0 0 5 14 100 97 100 96 27 100 98 87 84 1 0 0
91 99 80 29 6 5 2 0 0 0 4 0 0 0 0 0 0 0 0 0 0 0 0 0 0 0 0 0 0 0 0 5 62 100 48 100 93 100 70 25 14 21 91 16 0
76 8 6 5 5 6 5 1 0 48 89 0 5 2 3 0 0 0 0 0 0 0 0 0 0 0 0 2 0 0 0 0 5 80 97 55 100 71 100 55 98 84 32 28 0
21 6 5 5 5 5 5 0 42 100 82 5 4 14 5 5 0 0 0 0 0 0 0 0 0 0 0 0 1 0 0 0 5 73 96 97 58 96 97 89 76 5 5 37 1
100 99 90 92 26 5 5 39 85 100 100 26 4 2 5 10 0 3 0 0 0 0 0 0 0 0 0 0 0 0 3 0 0 34 100 99 93 100 53 4 5 5 5 5 4
24 5 4 6 12 5 2 6 5 10 5 92 98 15 1 3 5 3 5 0 0 0 0 0 0 0 0 0 1 4 0 0 0 19 35 100 100 100 100 88 0 2 5 5 5
63 100 9 35 5 5 5 5 5 5 5 84 100 100 41 5 5 0 45 2 1 0 0 0 0 0 0 0 0 0 0 0 0 0 5 75 100 100 71 27 0 5 88 97 51
4 5 1 0 0 0 1 5 5 6 5 10 81 100 100 17 0 1 4 16 0 0 0 0 0 0 1 0 0 0 0 0 0 5 5 24 3 98 100 99 61 15 0 1 100
19 4 26 42 20 1 2 20 100 100 97 22 31 100 100 6 2 2 5 44 3 2 5 0 3 0 0 0 0 0 0 0 0 0 1 4 79 85 62 39 37 0 0 1 7
95 19 84 63 100 100 100 87 100 96 100 100 99 95 100 98 89 67 46 98 55 4 76 3 0 2 0 8 5 1 0 0 0 0 0 2 12 5 99 91 48 5 0 0 0
43 98 76 14 100 6 100 100 87 100 100 100 100 100 100 100 99 100 100 100 57 16 61 44 3 0 4 4 5 11 5 5 0 0 0 0 3 29 14 100 99 4 0 0 0
35 39 100 37 93 100 56 100 100 100 100 100 100 100 100 100 100 99 99 100 100 87 37 100 70 1 0 5 96 97 0 3 8 19 1 0 0 5 75 36 56 3 5 0 0

GFSSW_prec_cloud_018.txt.gz
Cloud_Cover
6 1 0 0 0 0 0 0 0 0 0 0 0 0 0 0 0 0 0 0 0 0 16 0 0 0 0 0 68 100 99 93 100 100 99 46 62 5 89 58 4 99 20 0 4
1 0 0 0 0 0 0 0 0 0 0 0 0 0 0 0 0 0 0 0 0 0 0 0 0 0 0 1 78 83 99 62 85 98 93 13 2 3 0 0 40 4 40 1 2
0 0 0 0 0 0 0 0 0 0 0 0 0 0 0 4 0 0 0 0 0 0 0 0 0 0 0 0 49 84 100 100 8 72 5 96 73 0 8 3 3 16 0 0 0
0 0 0 0 0 0 0 0 0 0 0 0 0 0 0 0 0 0 0 0 0 0 0 0 0 0 0 0 15 87 38 33 99 91 5 23 84 0 25 88 3 0 0 0 0
0 0 0 0 0 0 0 0 0 0 0 0 0 6 0 0 0 0 0 0 0 0 0 0 0 0 0 0 40 28 99 50 52 3 8 96 66 0 19 97 13 0 0 0 0
0 0 0 0 0 0 0 0 0 0 0 0 10 20 0 0 0 0 0 0 0 0 0 0 0 0 0 0 3 51 57 45 11 55 1 56 70 0 6 4 22 0 0 0 0
0 0 0 0 0 0 0 0 0 0 0 4 34 1 0 0 0 0 0 0 0 0 0 0 0 0 0 0 0 4 76 5 3 4 7 84 100 5 5 5 58 5 5 1 0
0 0 0 0 0 0 0 0 0 0 0 44 29 0 0 0 0 0 0 0 0 0 0 0 0 0 0 0 0 0 2 20 98 48 9 0 100 1 13 43 5 5 0 0 0
0 0 0 0 0 0 0 0 0 0 9 9 8 0 0 0 0 0 0 0 0 0 0 0 0 0 0 0 0 0 4 8 100 100 78 100 63 100 41 2 3 0 0 0 0
0 0 0 0 0 0 0 0 0 30 17 0 0 0 0 0 0 0 0 0 0 0 0 0 0 0 0 0 0 0 4 10 37 64 92 94 100 19 14 37 4 3 0 0 0
0 0 0 0 0 0 0 0 0 0 0 0 0 0 0 0 0 0 0 0 0 0 0 0 0 0 0 0 0 0 17 84 100 95 100 100 100 100 6 65 14 0 0 0 0
0 0 0 0 0 0 0 0 0 0 0 0 0 0 0 0 0 0 0 0 0 0 0 0 0 0 0 0 0 0 11 58 100 35 80 100 30 0 11 0 0 0 0 0 0
0 0 0 0 0 0 0 0 0 0 0 0 0 0 0 0 0 0 0 0 0 0 0 0 0 0 0 0 0 0 0 8 100 78 29 93 100 90 62 1 0 1 0 0 0
0 0 0 0 0 0 0 0 0 0 0 0 0 0 0 0 0 0 0 0 0 0 0 0 0 0 0 0 0 0 0 6 14 100 9 100 83 6 99 15 0 0 1 0 0
2 5 11 5 0 0 0 0 0 0 0 0 0 0 0 0 0 0 0 0 0 0 0 0 0 0 0 1 0 0 0 0 5 100 11 8 51 81 89 92 46 0 0 0 0
5 5 31 15 24 1 3 4 0 0 0 0 0 0 0 0 0 0 0 0 0 0 0 0 0 0 0 4 0 0 0 0 2 66 100 96 17 90 66 26 100 99 5 0 0
5 5 4 5 5 13 5 5 5 2 15 2 0 0 0 0 0 0 0 0 0 0 0 0 0 0 0 0 4 3 0 0 0 14 8 96 34 95 95 100 40 100 87 30 0
5 4 5 13 5 5 5 0 2 100 68 2 0 0 0 0 0 0 0 0 0 0 0 0 0 0 0 0 0 5 0 0 0 0 2 0 52 46 53 23 96 94 100 70 3
2 0 4 5 5 5 5 5 21 89 5 5 0 0 0 0 0 0 0 0 0 0 0 0 0 0 0 0 0 0 0 0 0 0 5 15 54 7 14 84 36 100 100 100 16
0 0 0 0 0 5 5 21 7 5 5 2 0 1 0 0 5 1 0 0 0 0 0 0 0 0 0 0 0 0 3 0 0 0 0 1 28 100 38 33 27 18 98 100 8
0 0 0 0 0 0 0 5 3 5 5 3 4 5 5 3 2 1 0 0 0 0 0 0 0 0 0 0 0 0 0 0 0 0 0 0 0 2 92 96 51 2 75 94 1
5 0 2 0 2 5 0 0 0 2 0 0 0 0 1 5 4 5 5 0 5 4 0 4 0 0 0 0 0 0 0 0 0 0 0 0 0 88 97 96 95 73 3 0 0
5 2 0 2 2 1 0 0 0 4 5 31 66 0 4 1 0 0 25 78 45 5 16 2 0 0 0 0 0 0 0 0 0 0 0 0 0 2 100 66 89 100 53 10 5
61 4 0 4 14 47 20 2 4 2 26 48 100 100 35 2 5 0 0 5 100 100 42 9 3 0 0 0 3 0 0 0 0 0 0 0 1 5 100 14 80 99 82 100 5
87 49 77 77 5 100 100 100 53 2 71 100 100 100 100 30 14 5 37 14 83 100 21 32 4 0 0 0 25 0 0 0 0 0 0 0 0 3 26 100 12 98 6 93 42
82 84 88 76 6 6 97 100 100 56 100 36 100 100 100 33 91 23 85 97 97 100 23 5 0 0 0 3 8 89 29 5 0 0 0 0 0 3 4 89 100 72 100 96 5
34 32 82 44 79 100 22 49 100 100 86 91 100 67 100 100 59 5 10 5 0 91 100 3 0 3 0 4 100 85 0 5 31 0 0 0 0 0 73 15 94 99 100 91 100

GFSSW_prec_cloud_021.txt.gz
Cloud_Cover
2 0 0 0 0 0 0 0 0 0 0 0 0 0 0 0 0 0 0 0 0 0 0 0 0 3 1 4 100 100 99 98 99 70 100 95 96 41 71 100 6 1 1 0 0
0 0 0 0 0 0 0 0 0 0 0 0 0 0 0 1 0 0 0 0 0 0 0 0 0 5 5 10 87 87 61 96 100 98 98 31 5 1 6 3 17 0 0 0 0
0 0 0 0 0 0 0 0 0 0 0 0 0 0 0 0 0 0 0 0 0 0 0 0 0 0 1 6 6 64 93 100 97 99 49 24 95 5 0 0 0 0 0 0 0
0 0 0 0 0 0 0 0 0 0 0 0 0 0 0 0 0 0 0 0 0 0 0 0 0 0 0 1 13 81 37 100 90 5 13 5 13 6 0 0 2 0 0 0 0
0 0 0 0 0 0 0 0 0 0 0 0 0 16 0 0 0 0 0 0 0 0 0 0 0 0 0 0 5 5 15 91 100 17 12 4 94 77 34 0 0 0 0 0 0
0 0 0 0 0 0 0 0 0 0 0 0 6 42 1 0 0 0 0 0 0 0 0 0 0 0 0 0 0 0 10 100 91 94 95 15 23 78 28 0 0 0 0 0 0
0 0 0 0 0 0 0 0 0 0 0 0 58 16 0 0 0 0 0 0 0 0 0 0 0 0 0 0 0 0 5 52 100 57 93 23 85 100 60 1 5 3 0 0 0
0 0 0 0 0 0 0 0 0 0 0 0 97 0 0 0 0 0 0 0 0 0 0 0 0 0 0 0 0 0 2 5 6 90 100 5 82 94 66 4 5 5 1 3 0
0 0 0 0 0 0 0 0 0 0 0 22 5 0 0 0 0 0 0 0 0 0 0 0 0 0 0 0 0 0 0 0 5 78 55 12 81 62 21 1 0 0 0 0 0
0 0 0 0 0 0 0 0 0 0 2 0 0 0 0 0 0 0 0 0 0 0 0 0 0 0 0 0 0 0 0 0 5 46 57 11 5 98 58 1 0 0 0 0 0
0 0 0 0 0 0 0 0 0 0 0 0 0 0 0 0 0 0 0 0 0 0 0 0 0 0 0 0 0 0 0 0 5 75 32 100 100 81 5 0 0 0 0 0 0
0 0 0 0 0 0 0 0 0 0 0 0 0 0 0 0 0 0 0 0 0 0 0 0 0 0 0 0 0 0 0 0 62 98 32 97 74 82 5 0 0 0 0 0 0
0 0 0 0 0 0 0 0 0 0 0 0 0 0 0 0 0 0 0 0 0 0 0 0 0 0 0 0 0 0 0 0 20 90 99 95 10 3 5 5 2 0 0 0 0
0 0 0 0 0 0 0 0 0 0 0 5 0 0 0 0 0 0 0 0 0 0 0 0 0 0 0 0 0 0 0 0 5 98 31 48 5 33 46 4 15 5 0 0 0
0 0 0 0 0 0 0 0 0 0 0 2 3 4 0 0 0 0 0 0 0 0 0 0 0 0 0 0 0 0 0 0 5 24 15 74 100 88 43 5 54 7 0 0 0
0 0 0 0 0 0 0 0 0 0 13 0 0 74 36 0 0 0 0 0 0 0 0 0 0 0 0 0 0 5 0 0 5 34 93 3 81 5 79 4 12 16 5 11 0
0 0 0 0 0 0 0 0 0 0 18 5 0 0 0 3 0 0 0 0 0 0 0 0 0 0 0 0 0 0 0 0 0 1 0 5 4 0 93 20 2 0 73 59 44
0 0 0 0 0 0 0 0 0 5 5 2 0 0 0 0 0 0 0 0 0 0 0 0 0 0 0 0 0 0 0 0 0 0 0 0 0 0 13 94 66 28 19 83 75
0 0 0 0 0 0 0 0 0 0 0 0 0 0 0 0 0 0 0 0 0 0 0 0 0 0 0 0 0 0 0 2 0 0 0 0 0 0 0 4 97 97 38 88 98
0 0 0 0 0 0 0 0 0 0 0 0 0 0 0 0 0 0 0 0 0 0 0 0 0 0 0 0 0 0 0 0 0 0 0 0 0 0 0 13 21 8 22 100 77
0 3 0 0 0 0 0 0 0 0 0 2 0 0 0 0 0 0 0 0 0 0 0 0 0 0 0 0 0 0 0 0 0 0 0 1 0 0 0 70 68 3 10 22 0
4 5 0 0 1 4 1 0 0 0 0 0 0 0 0 0 0 0 0 0 4 0 0 0 0 0 0 0 0 0 0 0 0 0 0 0 2 3 32 28 100 100 4 23 9
14 4 0 0 4 2 3 0 4 0 0 0 1 5 5 0 0 0 0 0 1 0 0 0 0 0 0 1 0 0 0 0 0 0 0 0 8 100 10 20 9 27 100 78 98
9 35 0 0 36 41 33 3 2 0 5 6 2 1 5 5 5 0 0 0 0 0 1 52 0 0 0 3 0 0 1 0 0 0 0 0 0 0 6 6 44 80 100 99 99
80 42 73 29 5 51 99 69 4 4 2 4 2 26 16 29 5 1 4 0 0 0 4 63 0 0 0 0 0 0 0 2 0 0 0 0 0 0 0 48 100 98 18 100 98
86 81 5 5 5 5 65 100 100 81 50 5 43 7 100 100 94 65 8 0 1 2 2 8 3 0 0 2 0 0 0 0 4 0 0 0 0 0 0 8 100 76 38 61 70
100 91 100 92 16 5 5 97 100 96 11 48 100 48 88 100 100 80 46 100 6 32 100 70 26 88 0 5 9 4 0 0 4 0 0 0 0 0 0 0 33 92 85 21 95

GFSSW_prec_cloud_024.txt.gz
Cloud_Cover
0 0 0 0 0 0 0 0 0 0 0 0 0 0 0 0 0 0 0 0 0 0 0 0 5 6 0 10 96 97 99 98 69 92 69 78 100 100 15 15 18 31 3 0 0
0 0 0 0 0 0 0 0 0 0 0 0 0 0 4 3 0 0 0 0 0 0 0 0 0 2 0 64 100 41 49 20 100 7 4 17 83 68 70 3 23 3 0 0 0
0 0 0 0 0 0 0 0 0 0 0 0 0 0 0 8 0 0 0 0 0 0 0 0 0 0 0 4 20 6 22 79 51 99 5 5 4 0 0 0 0 0 0 0 0
0 0 0 0 0 0 0 0 0 0 0 0 0 0 0 5 0 0 0 0 0 0 0 0 0 0 0 1 6 5 4 10 82 100 25 5 5 0 4 0 0 0 0 0 0
0 0 0 0 0 0 0 0 0 0 0 0 0 3 1 0 0 0 0 0 0 0 0 0 0 0 0 1 18 0 0 6 98 88 100 12 79 5 5 1 0 0 0 0 0
0 0 0 0 0 0 0 0 0 0 0 0 1 69 4 0 0 0 0 0 0 0 0 0 0 0 3 1 1 0 0 7 98 7 100 40 65 5 2 2 1 0 0 0 0
0 0 0 0 0 0 0 0 0 0 0 0 10 22 0 0 0 0 0 0 0 0 0 0 0 0 0 0 0 0 0 0 15 74 15 52 4 93 4 10 2 0 0 0 0
0 0 0 0 0 0 0 0 0 0 0 0 20 11 0 0 0 0 0 0 0 0 0 0 0 0 0 0 0 0 0 0 5 1 40 4 5 78 34 0 0 4 0 0 0
1 1 0 0 0 0 0 0 0 0 0 37 24 0 0 0 0 0 0 0 0 0 0 0 0 0 0 0 0 0 0 0 0 14 21 29 5 91 2 0 0 0 0 0 0
1 0 0 0 0 0 0 0 0 0 1 1 0 0 0 0 0 0 0 0 0 0 0 0 0 0 0 0 0 0 0 0 0 42 13 79 5 5 2 7 4 0 0 0 0
0 0 0 0 0 0 0 17 0 0 0 0 0 0 0 0 0 0 0 0 0 0 0 0 0 0 0 0 0 0 4 0 0 4 5 6 93 62 5 3 0 0 0 0 0
0 0 0 0 0 0 0 0 0 0 0 0 0 0 0 0 0 0 0 0 0 0 0 0 0 0 0 0 0 0 0 0 0 0 4 89 76 5 5 5 5 1 0 0 0
0 0 0 0 0 0 0 0 0 0 0 0 0 0 0 0 0 0 0 0 0 0 0 0 0 0 0 0 0 0 0 0 0 0 0 53 88 5 9 49 5 0 0 0 0
0 0 0 0 0 0 0 0 0 0 0 4 0 0 0 0 0 0 0 0 0 0 0 0 0 0 0 0 0 0 0 0 0 2 2 29 79 95 49 7 3 0 0 0 0
0 0 0 2 13 0 0 0 0 0 0 2 0 0 0 0 0 0 0 0 0 0 0 0 0 0 0 0 0 0 0 0 1 5 20 5 72 5 88 5 8 2 0 1 2
0 0 0 11 0 0 0 0 0 0 0 4 0 0 0 0 0 0 0 0 0 0 0 0 0 0 0 0 0 0 0 0 3 59 34 0 1 0 4 2 0 3 4 0 1
0 0 0 0 0 0 0 0 0 0 1 1 0 0 5 2 0 0 0 0 0 0 0 0 0 0 0 0 0 0 0 0 0 2 5 0 0 0 0 1 0 1 0 0 0
0 0 0 0 0 0 0 0 0 0 0 0 0 0 1 6 0 0 0 0 0 0 0 0 0 0 0 0 0 0 0 0 0 0 0 0 0 0 0 0 0 5 4 5 2
0 0 0 0 0 0 0 0 0 0 0 0 0 0 0 0 0 0 0 0 0 0 0 0 0 0 0 0 0 0 0 0 0 0 0 0 0 0 0 5 0 4 5 0 3
37 21 0 0 0 0 0 0 0 0 0 0 0 0 0 0 0 0 0 0 0 0 0 0 0 0 0 0 0 0 0 0 0 0 0 0 0 0 0 0 2 5 5 3 3
34 2 0 0 0 0 0 0 0 0 0 0 0 0 0 0 0 0 0 1 0 0 0 4 0 0 0 0 0 0 0 0 0 0 0 0 0 0 3 0 0 0 0 4 5
0 3 0 0 0 3 0 0 0 0 0 0 0 0 0 0 0 0 1 4 3 1 0 1 0 3 0 0 0 0 0 0 0 0 0 0 4 0 0 0 0 2 0 25 65
55 1 0 0 10 5 97 100 98 82 13 0 0 1 0 0 0 0 0 2 0 0 0 0 2 18 68 23 15 40 1 0 0 0 0 0 0 0 0 0 0 0 0 5 63
38 41 0 0 100 75 52 100 100 100 100 64 4 0 4 0 0 0 0 4 0 0 0 0 0 3 98 82 6 5 1 0 0 0 0 0 0 0 0 0 0 0 0 51 96
95 25 5 8 37 100 100 89 100 99 79 10 70 11 2 3 4 0 0 0 0 0 0 0 0 0 28 8 0 5 5 0 0 0 0 57 0 0 0 0 0 5 0 0 63
100 100 10 10 14 10 100 100 93 43 46 7 5 5 5 2 3 5 5 0 0 2 2 0 0 0 0 5 5 0 0 0 5 5 2 0 0 5 0 0 0 1 38 0 0
100 92 100 100 100 36 53 76 99 100 100 100 100 89 5 1 0 0 5 6 6 92 82 54 0 0 0 0 4 0 3 13 5 5 5 0 0 4 3 0 0 0 5 0 3

GFSSW_prec_cloud_027.txt.gz
Cloud_Cover
0 1 0 1 0 0 0 0 0 0 0 0 0 0 16 8 8 0 0 0 0 0 1 0 0 0 5 16 5 7 9 18 5 54 100 100 74 11 34 26 73 65 57 54 0
8 0 0 0 0 0 0 0 0 0 0 0 0 0 11 14 19 0 0 0 0 0 0 0 0 0 17 5 7 6 7 92 23 5 30 27 88 93 62 37 6 16 4 1 0
0 0 0 0 0 0 0 0 0 0 0 0 0 0 10 16 0 0 0 0 0 0 0 0 0 0 0 5 5 5 8 79 75 94 49 88 12 5 14 9 5 0 0 0 0
0 0 0 0 0 0 0 0 0 0 0 0 0 0 0 46 0 0 0 0 0 0 0 0 0 0 0 21 5 49 5 56 99 100 100 96 53 10 76 5 0 0 0 0 0
0 0 0 0 0 0 0 0 0 0 0 0 0 0 2 0 0 0 0 0 0 0 0 0 0 0 0 5 5 5 5 43 54 80 56 8 5 9 4 4 0 0 0 0 0
0 0 0 0 0 0 0 0 0 0 0 0 2 1 8 0 0 0 0 0 0 0 0 0 0 0 0 3 3 5 5 5 4 13 5 5 26 4 29 100 42 0 0 0 0
0 0 0 0 0 0 0 0 0 0 0 7 20 24 0 0 0 0 0 0 0 0 0 0 0 0 0 0 0 0 0 0 0 0 0 0 0 0 2 6 5 0 0 0 0
0 0 0 0 0 0 0 0 0 0 0 8 16 14 0 0 0 0 0 0 0 0 0 0 0 0 0 0 0 0 0 0 0 0 0 0 0 1 2 2 7 5 0 0 0
0 0 0 0 0 0 0 0 0 0 0 4 21 13 0 0 0 0 0 0 0 0 0 0 0 0 0 0 0 0 0 0 0 0 0 0 0 5 5 96 57 2 0 0 0
0 0 0 0 0 0 0 0 0 18 41 3 0 2 0 0 0 0 0 0 0 0 0 0 0 0 0 0 0 0 0 0 1 0 0 0 3 5 100 92 44 3 0 0 0
2 0 0 0 0 0 0 0 0 0 0 0 0 0 0 0 0 0 0 0 0 0 0 0 0 0 0 0 0 0 0 0 5 0 0 13 3 5 60 100 35 5 0 0 0
3 2 0 0 0 0 0 0 0 0 0 0 0 0 0 0 0 0 0 0 0 0 0 0 0 0 0 0 0 0 0 0 5 0 0 0 3 5 5 97 100 1 0 0 0
0 0 0 0 0 0 0 0 0 0 0 0 0 0 0 0 0 0 0 0 0 0 0 0 0 0 0 0 0 0 0 0 0 3 3 0 2 4 72 35 63 0 4 0 0
0 0 0 0 0 0 0 0 0 0 0 0 0 0 0 0 0 0 0 0 0 0 0 0 0 0 0 0 0 0 0 0 0 5 0 0 0 0 4 5 3 2 5 3 0
0 0 0 0 12 8 0 0 0 0 0 0 0 0 0 0 0 0 0 0 0 0 0 0 0 0 0 0 0 0 0 0 0 2 3 0 0 0 3 2 0 0 5 5 7
0 0 0 21 3 0 0 0 0 0 0 1 0 0 0 0 0 0 0 0 0 0 0 0 0 0 0 0 0 0 0 0 0 2 2 0 0 0 1 0 0 5 5 1 5
0 0 0 0 5 0 0 0 0 0 0 0 0 0 0 0 0 0 0 0 0 0 0 0 0 0 0 0 0 0 0 0 0 0 4 0 0 0 0 0 0 0 11 4 2
0 0 0 0 0 0 0 0 0 0 0 0 0 0 0 0 0 0 0 0 0 0 0 0 0 0 0 0 0 0 0 0 0 0 0 0 1 0 0 0 2 5 5 5 0
0 0 0 0 0 0 0 0 0 0 0 0 0 0 0 0 0 0 0 0 0 0 0 0 0 0 0 0 0 0 0 0 0 0 0 0 4 1 0 0 5 3 0 3 5
22 60 2 0 0 0 0 0 0 0 0 0 0 0 0 0 0 0 0 0 0 0 0 0 0 0 0 0 0 0 0 0 0 0 0 0 1 5 0 0 0 1 0 0 0
0 0 0 0 0 0 0 0 0 0 0 0 0 0 0 0 0 0 0 0 0 0 0 0 0 0 0 0 0 0 0 0 0 0 0 0 1 0 4 0 0 1 0 0 0
2 2 0 0 0 11 81 5 0 0 0 0 0 0 0 0 0 0 0 0 0 0 0 0 5 4 0 0 0 0 0 0 0 0 0 0 0 0 0 0 0 0 0 0 0
24 34 0 0 14 31 73 100 100 91 5 12 3 0 0 0 0 0 0 0 0 0 0 0 5 34 4 1 54 8 1 3 5 0 0 0 0 0 0 0 0 1 31 1 0
17 64 1 52 10 60 56 100 100 79 27 84 45 5 4 0 0 0 0 0 0 0 0 0 2 12 5 0 9 25 5 5 4 0 6 7 10 0 0 0 0 0 0 0 0
54 91 86 69 51 8 16 75 64 100 100 70 17 5 5 0 3 5 3 0 0 0 0 0 0 5 5 4 6 100 96 10 64 64 11 99 18 2 0 0 0 0 0 0 1
62 100 100 94 100 96 83 5 100 100 46 39 88 42 78 5 5 5 5 2 0 0 0 0 0 0 1 2 0 4 5 84 100 100 99 100 9 91 25 0 0 0 0 0 0
73 96 100 100 100 99 100 88 9 96 100 100 84 49 80 5 4 0 4 5 5 4 4 0 0 0 0 0 0 0 82 100 93 80 100 97 99 83 9 2 0 0 0 0 0

GFSSW_prec_cloud_030.txt.gz
Cloud_Cover
36 0 0 0 7 15 10 1 4 0 0 0 0 0 15 8 14 0 0 0 0 0 16 2 0 0 5 33 21 72 66 35 39 97 38 29 32 15 24 69 86 69 81 44 12
0 0 0 0 0 0 2 1 0 0 0 0 0 5 20 26 42 0 0 0 0 0 38 0 0 0 6 14 30 94 100 79 3 1 2 46 100 67 28 5 23 14 63 14 18
0 0 0 0 0 0 0 0 0 0 0 0 1 8 12 34 14 0 0 0 0 0 0 0 0 0 18 97 16 71 100 100 95 20 3 20 9 34 32 100 100 100 86 24 9
0 0 0 0 0 0 0 0 0 0 0 4 5 12 0 60 0 0 0 0 0 0 0 0 0 32 62 26 5 5 37 97 88 14 5 12 45 89 19 28 5 54 2 0 0
0 0 0 0 0 0 0 0 0 0 0 4 15 27 1 0 0 0 0 0 0 0 0 0 0 1 1 5 5 5 95 81 87 14 5 5 0 3 37 12 5 0 0 0 0
0 0 0 0 0 0 0 0 0 0 0 5 40 22 16 0 0 0 0 0 0 0 0 0 0 0 0 5 4 5 45 99 19 5 3 4 1 0 5 54 5 4 4 0 0
0 0 0 0 0 0 0 0 1 15 8 23 94 32 0 0 0 0 0 0 0 0 0 0 0 0 0 1 4 5 2 7 5 0 0 0 0 0 1 5 84 5 5 0 0
0 0 0 0 0 0 0 0 0 8 4 66 100 24 0 0 0 0 0 0 0 0 0 0 0 0 0 0 0 0 0 0 0 0 0 0 0 4 4 6 83 4 5 0 0
0 0 0 0 0 0 0 0 11 23 12 21 24 16 0 0 0 0 0 0 0 0 0 0 0 0 0 0 0 0 0 0 0 0 0 0 1 5 5 5 23 2 0 1 0
1 5 0 0 0 0 0 0 26 48 41 28 6 16 0 0 0 0 0 0 0 0 0 0 0 0 0 0 0 0 0 0 0 0 0 0 4 5 12 84 32 64 0 4 0
0 0 0 0 0 0 0 0 0 0 1 0 0 0 0 0 0 0 0 0 0 0 0 0 0 0 0 0 0 0 0 0 0 0 0 0 1 2 20 5 50 52 70 0 0
0 3 3 0 0 0 0 0 0 0 0 0 0 0 0 0 0 0 0 0 0 0 0 0 0 0 0 0 0 0 0 0 0 0 0 0 4 0 5 70 78 86 21 14 0
0 0 0 0 0 0 0 0 0 0 0 0 0 0 0 0 0 0 0 0 0 0 0 0 0 0 0 0 0 0 0 0 0 0 0 0 0 5 4 3 23 24 5 1 0
0 0 0 0 0 0 0 0 0 0 0 0 0 0 0 0 0 0 0 0 0 0 0 0 0 0 0 0 0 0 0 0 0 0 1 1 0 4 4 0 0 4 0 0 0
0 0 0 0 0 0 0 0 0 0 0 0 0 0 0 0 0 0 0 0 0 0 0 0 0 0 0 0 0 0 0 0 0 0 0 0 0 0 0 0 0 1 2 0 0
0 0 0 12 5 4 0 0 0 0 0 0 0 0 0 0 0 0 0 0 0 0 0 0 0 0 0 0 0 0 0 0 0 0 1 0 0 0 0 3 0 2 5 3 2
0 0 0 0 0 0 0 0 0 0 0 0 0 0 0 0 0 0 0 0 0 0 0 0 0 0 0 0 0 0 0 0 0 0 35 0 1 0 0 3 2 0 5 5 5
0 0 0 0 0 0 0 0 0 0 0 0 0 0 0 0 0 0 0 0 0 0 0 0 0 0 0 0 0 0 0 0 0 0 0 0 59 0 1 4 5 56 81 86 5
0 1 0 0 0 0 0 0 0 0 0 0 0 0 0 0 0 0 0 0 0 0 0 0 0 0 0 0 0 0 0 0 0 0 0 2 4 5 0 0 5 57 83 8 5
22 77 0 0 0 0 0 0 0 0 0 0 0 0 0 0 0 0 0 0 0 0 0 0 0 0 0 0 0 0 0 0 0 0 0 0 0 5 49 3 4 5 2 5 0
0 0 0 0 0 0 0 1 0 0 0 0 0 0 0 0 0 0 0 0 0 0 0 0 0 0 0 0 0 0 0 0 0 0 0 0 0 0 0 5 3 0 0 2 5
11 2 0 0 3 15 28 77 20 5 0 0 0 0 0 0 0 0 0 0 0 0 0 0 0 0 0 0 0 0 0 0 0 0 0 0 0 0 0 0 0 5 3 0 19
39 70 0 3 15 8 28 81 77 51 3 5 5 0 0 0 0 0 0 0 0 0 0 0 0 0 0 0 0 0 0 0 0 0 0 0 14 0 0 0 0 0 4 47 2
7 16 1 15 5 13 34 4 39 100 86 100 88 17 5 4 1 0 0 0 0 0 0 0 0 0 0 0 0 0 0 2 3 0 3 0 100 3 0 0 0 0 0 0 6
5 12 83 21 9 100 99 5 31 36 44 100 99 72 25 5 5 1 4 0 0 0 0 0 0 0 0 0 0 0 0 4 18 92 1 66 16 0 0 0 0 0 0 0 0
79 100 100 96 100 100 16 5 5 5 7 99 100 100 83 6 5 0 1 5 4 0 0 0 0 0 0 0 0 0 5 12 93 100 27 63 1 2 0 0 0 0 0 0 0
80 100 100 100 57 86 67 20 5 5 4 100 99 100 100 71 56 5 4 0 34 10 1 0 0 0 0 0 0 0 5 60 31 81 99 100 90 12 0 0 0 0 0 0 0

GFSSW_prec_cloud_033.txt.gz
Cloud_Cover
0 0 0 0 0 0 0 0 0 0 0 0 0 11 8 4 2 0 0 0 0 0 0 0 0 0 9 29 5 29 86 73 28 5 5 5 5 5 0 0 0 5 19 37 43
0 0 0 0 0 0 0 0 0 0 0 0 1 11 11 14 0 0 0 0 0 0 0 0 0 0 6 12 11 5 4 5 29 4 5 5 4 5 5 45 91 97 40 54 70
0 0 0 0 0 0 0 7 0 0 0 6 11 20 10 42 0 0 0 0 0 0 0 0 0 0 1 60 27 79 5 4 5 2 0 4 50 7 5 3 22 22 68 93 75
0 0 0 0 0 0 0 0 0 0 0 6 14 11 6 30 0 0 0 0 0 0 0 0 0 0 0 26 6 11 5 5 5 2 0 5 5 49 19 7 4 38 0 0 0
0 0 0 0 0 0 0 0 0 0 11 19 18 93 0 0 0 0 0 0 0 0 0 0 0 0 0 3 5 5 5 4 4 5 1 2 0 3 13 72 1 2 0 0 0
0 0 0 0 0 0 0 0 0 0 2 25 41 99 7 0 0 0 0 0 0 0 0 0 0 0 0 5 5 5 5 2 63 5 5 4 0 0 5 5 5 5 5 0 0
0 0 0 0 0 0 0 0 0 0 0 28 100 52 0 0 0 0 0 0 0 0 0 0 0 0 0 5 5 5 2 5 5 5 3 0 0 2 4 5 5 5 5 0 0
0 0 0 0 0 0 0 0 8 4 29 100 100 18 0 0 0 0 0 0 0 0 0 0 0 0 0 1 5 5 3 0 5 5 0 0 1 5 5 2 0 1 7 0 0
0 0 0 0 0 0 0 0 94 18 64 96 42 23 0 0 0 0 0 0 0 0 0 0 0 0 0 0 0 0 0 0 2 0 0 0 3 5 23 8 91 17 0 0 0
0 4 0 0 0 0 0 0 93 52 79 71 8 7 0 0 0 0 0 0 0 0 0 0 0 0 0 0 0 0 0 0 0 0 0 4 4 40 5 5 5 5 0 1 1
0 0 0 0 0 0 0 0 0 0 0 0 0 0 0 0 0 0 0 0 0 0 0 0 0 0 0 0 0 0 0 0 0 0 0 0 1 5 5 5 4 30 67 1 4
1 5 0 0 0 0 0 0 0 0 0 0 0 0 0 0 0 0 0 0 0 0 0 0 0 0 0 0 0 0 0 0 0 0 0 0 1 0 5 5 5 36 93 59 0
0 0 0 0 0 0 0 0 0 0 0 0 0 0 0 0 0 0 0 0 0 0 0 0 0 0 0 0 0 0 0 0 0 0 0 0 0 0 4 16 5 4 86 71 0
0 0 0 0 0 0 0 0 0 0 0 0 0 0 0 0 0 0 0 0 0 0 0 0 0 0 0 0 0 0 0 0 0 0 0 0 0 0 5 0 11 43 1 1 0
0 0 0 0 0 0 0 0 0 0 0 0 0 0 0 0 0 0 0 0 0 0 0 0 0 0 0 0 0 0 0 0 0 0 0 0 0 0 0 0 5 5 0 0 0
0 0 0 0 0 0 0 0 0 0 0 0 0 0 0 0 0 0 0 0 0 0 0 0 0 0 0 0 0 0 0 0 0 0 5 4 0 0 0 0 5 0 0 0 0
0 0 0 0 0 0 0 0 0 0 0 0 0 0 0 0 0 0 0 0 0 0 0 0 0 0 0 0 0 0 0 0 0 0 30 0 0 0 0 0 5 3 0 3 0
0 0 0 0 0 0 0 0 0 0 0 0 0 0 0 0 0 0 0 0 0 0 0 0 0 0 0 0 0 0 0 0 0 0 0 0 0 0 0 0 5 5 0 0 0
0 0 0 0 0 0 0 0 0 0 0 0 0 0 0 0 0 0 0 0 0 0 0 0 0 0 0 0 0 0 0 0 0 0 0 0 0 0 0 0 4 0 1 5 5
0 0 0 0 0 0 0 0 0 0 0 0 0 0 0 0 0 0 0 0 0 0 0 0 0 0 0 0 0 0 0 0 0 0 0 0 0 0 0 0 5 0 0 3 5
0 0 0 0 0 0 1 1 1 4 0 0 0 0 0 0 0 0 0 0 0 0 0 0 0 0 0 0 0 0 0 0 0 0 0 0 0 0 0 0 1 5 0 5 5
0 0 0 0 0 0 1 5 0 2 5 4 5 0 0 0 0 0 0 0 0 0 0 0 0 0 0 0 0 0 0 0 0 0 0 0 0 0 0 0 0 0 14 100 45
36 16 0 2 9 31 9 4 5 55 65 9 59 4 5 1 1 0 0 0 0 0 0 0 0 0 0 0 0 0 0 0 0 0 0 0 0 0 0 0 0 0 1 5 5
2 4 2 2 5 88 100 5 13 5 98 100 95 7 5 4 0 4 0 0 0 0 0 0 0 0 0 0 0 0 0 0 0 0 0 0 3 0 0 0 0 0 0 0 0
6 14 18 5 6 11 84 38 64 88 40 68 100 100 100 5 5 0 5 0 0 0 0 0 0 0 0 0 0 0 0 0 0 3 0 91 2 0 0 0 0 0 0 0 0
5 54 75 97 76 74 12 20 71 76 66 9 98 100 100 100 58 7 4 66 10 0 0 0 0 0 0 0 0 0 0 0 1 5 6 98 13 0 0 0 0 0 0 0 0
17 80 99 100 100 98 86 77 78 99 12 63 100 100 100 100 100 21 5 1 83 27 1 0 0 0 0 0 0 0 0 0 0 2 6 78 100 0 0 0 0 0 0 0 0

GFSSW_prec_cloud_036.txt.gz
Cloud_Cover
0 0 0 0 0 0 3 0 0 0 0 0 0 7 3 12 0 0 0 0 0 0 0 0 0 0 0 5 8 14 5 58 66 98 58 5 1 0 0 0 0 2 1 5 53
0 0 0 0 0 0 0 2 0 0 1 10 4 2 15 5 0 0 0 0 0 0 0 0 0 0 2 5 5 6 16 71 52 31 35 5 1 0 0 2 3 4 5 2 16
0 0 0 0 0 0 0 0 0 2 0 18 8 0 0 0 0 0 0 0 0 0 0 0 0 0 1 5 5 5 70 3 0 72 60 17 5 5 4 5 4 4 4 91 14
0 0 0 0 0 0 0 0 0 0 14 5 15 5 0 0 0 0 0 0 0 0 0 0 0 0 0 5 5 4 5 2 0 0 0 95 59 59 5 0 5 5 2 0 0
0 0 0 0 0 0 0 0 0 0 8 18 43 2 0 0 0 0 0 0 0 0 0 0 0 0 0 5 5 5 5 5 0 0 0 0 4 3 4 1 0 0 0 0 0
0 0 0 0 0 0 0 0 0 0 44 25 55 57 0 0 0 0 0 0 0 0 0 0 0 0 0 0 1 5 5 4 0 3 3 0 0 0 3 0 3 0 0 0 0
0 0 0 0 0 0 0 0 0 0 74 98 78 4 0 0 0 0 0 0 0 0 0 0 0 0 0 0 1 5 5 5 4 5 5 0 3 5 4 3 5 5 0 0 0
0 0 0 0 0 0 0 0 0 23 3 100 99 0 0 0 0 0 0 0 0 0 0 0 0 0 0 0 4 4 4 1 84 86 6 0 49 5 7 2 0 2 0 0 0
0 0 0 0 0 0 0 0 89 14 100 83 14 0 0 0 0 0 0 0 0 0 0 0 0 0 0 0 4 5 0 1 5 37 3 0 68 5 5 3 12 10 0 0 0
0 0 0 0 0 0 0 0 63 16 6 5 0 0 0 0 0 0 0 0 0 0 0 0 0 0 0 0 0 5 0 1 2 0 0 0 4 5 9 4 5 12 4 0 0
0 0 0 0 0 0 0 0 0 0 0 0 0 0 0 0 0 0 0 0 0 0 0 0 0 0 0 0 0 0 1 0 0 2 0 0 4 5 5 0 0 0 0 0 0
0 0 0 0 0 0 0 0 0 0 0 0 0 0 0 0 0 0 0 0 0 0 0 0 0 0 0 0 0 0 0 0 2 0 0 0 4 5 5 5 0 56 3 14 0
0 0 0 0 0 0 0 0 0 0 0 0 0 0 0 0 0 0 0 0 0 0 0 0 0 0 0 0 0 0 0 0 0 0 0 0 0 5 1 5 4 5 6 19 5
0 0 0 0 0 0 0 0 0 0 0 0 0 0 0 0 0 0 0 0 0 0 0 0 0 0 0 0 0 0 0 0 0 0 0 0 0 5 5 3 5 3 0 5 1
0 0 0 0 0 0 0 0 0 0 0 0 0 0 0 0 0 0 0 0 0 0 0 0 0 0 0 0 0 0 0 0 0 0 0 0 0 0 5 0 2 5 5 0 0
0 0 4 0 0 0 0 0 0 0 0 0 0 0 0 0 0 0 0 0 0 0 0 0 0 0 0 0 0 0 0 0 0 0 0 0 0 0 0 0 0 5 5 1 0
0 0 0 0 0 0 0 0 0 0 0 0 0 0 0 0 0 0 0 0 0 0 0 0 0 0 0 0 0 0 0 0 0 0 2 3 1 0 0 0 2 4 0 0 0
0 13 0 0 0 0 0 0 0 0 0 0 0 0 0 0 0 0 0 0 0 0 0 0 0 0 0 0 0 0 0 0 0 0 0 0 1 0 0 0 5 1 0 0 0
0 0 0 0 0 0 0 0 0 15 75 1 0 0 0 0 0 0 0 0 0 0 0 0 0 0 0 0 0 0 0 0 0 0 0 0 0 0 0 0 5 0 0 0 0
0 0 0 0 0 0 0 0 5 61 48 1 2 12 0 0 0 0 0 0 0 0 0 0 0 0 0 0 0 0 0 0 0 0 0 0 0 0 0 0 1 0 0 0 0
0 0 0 0 0 0 0 0 0 5 40 13 94 94 80 54 0 0 0 0 0 0 0 0 0 0 0 0 0 0 0 0 0 0 0 0 0 0 0 0 0 0 0 0 0
0 0 0 0 4 4 5 4 2 51 100 94 78 100 96 100 38 19 32 0 0 0 0 0 0 0 0 0 0 0 0 0 0 0 0 0 0 0 0 0 0 0 0 2 0
5 3 3 0 2 5 5 5 5 98 96 71 57 76 97 100 99 96 100 0 0 0 0 0 0 0 0 0 0 0 0 0 3 0 0 0 0 0 0 0 0 2 3 0 0
5 16 19 6 30 98 87 64 52 100 87 95 87 49 53 97 100 100 95 2 0 0 0 0 0 0 0 0 0 0 0 0 0 4 2 0 0 0 0 0 0 0 3 3 0
74 84 80 64 62 97 100 100 100 99 88 82 100 100 100 27 100 100 100 32 0 0 0 0 0 0 0 0 0 0 0 0 0 88 5 65 0 0 0 0 0 0 0 3 5
97 86 94 100 94 100 99 100 100 100 100 86 57 100 100 100 100 100 98 96 89 3 0 0 0 0 0 0 0 0 0 0 0 75 100 100 4 0 0 0 0 0 0 0 3
100 100 100 100 100 100 100 100 99 100 91 89 94 100 100 100 98 100 58 100 35 3 0 0 0 0 0 0 0 0 0 0 0 5 79 100 9 0 0 0 0 0 0 0 0

GFSSW_prec_cloud_039.txt.gz
Cloud_Cover
0 0 0 0 0 0 0 0 0 1 4 3 20 4 0 0 0 0 0 0 0 0 0 0 0 5 5 5 0 5 74 63 98 78 69 34 18 28 4 2 0 41 4 18 99
0 0 0 0 0 0 0 0 0 0 2 8 19 20 0 0 0 0 0 0 0 0 0 0 0 5 5 5 4 0 91 100 100 93 100 73 31 2 4 12 16 5 3 16 48
0 0 0 0 0 0 0 0 0 1 0 9 14 8 0 0 0 0 0 0 0 0 0 0 0 0 3 5 5 0 92 100 52 3 53 86 82 53 65 24 4 2 2 7 36
0 0 0 0 0 0 0 0 0 0 0 7 0 9 0 0 0 0 0 0 0 0 0 0 0 0 0 4 5 1 80 100 73 6 46 23 97 95 86 38 5 2 4 0 16
0 0 0 0 0 0 0 0 0 0 0 14 19 0 0 0 0 0 0 0 0 0 0 0 0 0 0 4 13 5 47 10 12 1 8 14 63 100 67 5 4 0 0 0 10
0 0 0 0 0 0 0 0 0 0 0 34 98 4 0 0 0 0 0 0 0 0 0 0 0 0 0 11 9 12 19 74 1 4 5 7 69 5 86 0 0 0 0 0 1
0 0 0 0 0 0 0 0 0 0 9 60 99 0 0 0 0 0 0 0 0 0 0 0 0 0 0 0 5 92 60 6 5 0 4 5 29 5 90 0 0 0 0 0 0
0 0 0 0 0 0 0 0 0 0 9 11 43 0 0 0 0 0 0 0 0 0 0 0 0 0 0 1 1 1 15 3 4 4 27 7 77 22 21 1 2 0 0 0 0
0 0 0 0 0 0 0 0 0 0 2 35 2 0 0 0 0 0 0 0 0 0 0 0 0 0 0 0 1 0 6 3 73 6 33 10 39 98 5 39 0 0 0 0 0
0 0 0 0 0 0 0 0 0 16 5 0 0 0 0 0 0 0 0 0 0 0 0 0 0 0 0 0 0 0 1 5 70 63 56 67 8 100 88 85 5 5 3 0 0
0 0 0 0 0 0 0 0 0 0 0 0 0 0 0 0 0 0 0 0 0 0 0 0 0 0 0 0 0 0 5 5 58 100 100 41 81 5 98 85 5 5 0 0 0
0 0 0 0 0 0 7 0 0 0 0 0 0 0 0 0 0 0 0 0 0 0 0 0 0 0 0 0 0 0 5 5 7 90 28 100 64 75 98 74 24 0 0 0 0
0 0 0 0 2 0 0 0 0 0 0 0 0 0 0 0 0 0 0 0 0 0 0 0 0 0 0 0 0 0 0 2 5 42 20 5 22 99 94 44 97 4 5 3 0
0 0 0 0 1 0 0 0 0 0 0 0 0 0 0 0 0 0 0 0 0 0 0 0 0 0 0 0 0 0 0 0 0 7 5 3 5 5 14 31 39 3 3 4 0
0 0 0 0 0 0 0 0 0 0 0 0 0 0 0 0 0 0 0 0 0 0 0 0 0 0 0 0 0 0 0 0 0 4 8 24 32 5 99 41 5 6 5 0 0
0 0 2 0 0 0 0 0 0 0 0 0 0 0 0 0 0 0 0 0 0 0 0 0 0 0 0 0 0 0 0 0 0 0 0 0 1 4 43 76 97 5 5 5 0
0 0 6 0 0 0 0 0 0 0 0 0 0 0 0 0 0 0 0 0 0 0 0 0 0 0 0 0 0 0 0 0 0 0 0 0 0 0 5 5 5 10 31 5 0
0 5 0 0 0 0 0 0 1 0 29 4 0 0 0 0 0 0 0 0 0 0 0 0 0 0 0 0 0 0 0 0 0 0 0 0 0 2 0 5 5 5 67 5 4
6 0 0 0 0 0 0 0 48 52 59 59 0 1 0 0 0 0 0 0 0 0 0 0 0 0 0 0 0 0 0 0 0 0 0 0 0 0 0 0 0 1 5 5 5
0 0 0 0 0 0 1 30 37 59 6 1 45 91 53 66 24 1 3 0 0 0 0 0 0 0 0 0 0 0 0 0 0 0 0 0 0 0 0 0 0 0 0 0 5
0 0 0 0 0 5 4 51 1 0 2 5 4 14 100 100 99 100 47 13 0 19 0 0 0 1 0 0 0 0 0 0 0 0 0 0 0 0 0 0 0 1 1 0 0
5 4 0 0 19 88 48 6 3 63 100 100 79 98 99 100 98 100 100 95 0 0 0 0 0 2 0 0 0 0 0 0 0 0 0 0 0 0 0 0 0 5 5 1 0
5 27 74 5 59 78 99 89 100 100 100 100 99 96 40 100 100 100 100 75 2 0 0 25 2 0 1 2 0 0 0 0 0 0 0 0 0 0 0 0 0 0 5 5 5
30 57 100 89 100 100 84 56 100 100 100 100 57 54 5 98 100 100 100 100 96 0 0 0 0 0 0 0 0 0 0 0 0 0 0 0 0 0 0 0 0 0 14 0 5
100 100 100 100 100 100 100 99 100 100 99 100 95 87 66 55 100 100 100 100 68 4 0 0 0 0 0 100 23 0 0 0 0 0 0 3 0 0 0 0 0 0 0 1 0
100 100 100 100 100 100 100 100 100 100 100 100 100 100 100 82 84 100 100 100 100 85 0 0 0 28 4 75 16 0 0 0 0 4 5 26 0 0 0 0 0 0 0 0 0
100 100 100 100 100 100 100 98 100 100 96 100 98 100 100 99 98 98 100 99 99 100 64 5 16 69 43 17 51 0 0 0 0 8 9 58 5 5 0 0 0 0 0 0 0

GFSSW_prec_cloud_042.txt.gz
Cloud_Cover
0 0 0 0 0 0 0 0 0 0 0 0 12 0 0 0 0 0 0 0 0 0 0 0 0 0 2 0 0 36 96 64 100 100 100 64 60 100 34 10 97 9 4 33 89
0 0 0 0 0 0 0 0 0 0 0 10 4 9 0 1 0 0 0 0 0 0 0 0 0 0 0 0 0 36 100 100 80 84 100 100 48 0 5 30 84 58 81 72 98
0 0 0 0 0 0 0 0 0 0 0 0 7 4 0 0 0 0 0 0 0 0 0 0 0 0 0 0 0 37 56 78 100 100 100 91 18 50 3 18 11 5 38 78 100
0 0 0 0 0 0 0 0 0 0 0 0 0 14 0 0 0 0 0 0 0 0 0 0 0 0 0 0 5 37 95 56 100 95 100 100 100 92 74 94 50 5 6 5 32
0 0 0 0 0 0 0 0 0 0 0 0 11 72 1 0 0 0 0 0 0 0 0 0 0 0 0 0 17 70 57 100 100 96 22 76 97 100 100 100 4 0 4 29 19
0 0 0 0 0 0 0 0 0 0 0 42 84 98 0 0 0 0 0 0 0 0 0 0 0 0 0 0 45 65 13 58 96 57 74 7 16 17 56 40 0 0 0 9 24
0 0 0 0 0 0 0 0 0 0 1 81 99 29 0 0 0 0 0 0 0 0 0 0 0 0 0 0 3 46 100 33 82 56 93 9 99 5 70 100 5 0 0 0 2
0 0 0 0 0 0 0 0 0 0 5 15 100 0 0 0 0 0 0 0 0 0 0 0 0 0 0 0 24 49 91 14 44 26 5 6 47 100 14 39 0 0 0 0 0
0 0 0 0 0 0 0 0 0 0 0 62 22 0 0 0 0 0 0 0 0 0 0 0 0 0 0 0 11 2 10 45 95 38 30 4 25 10 87 97 0 0 3 0 0
0 0 0 0 0 0 0 0 0 30 2 0 0 0 0 0 0 0 0 0 0 0 0 0 0 0 0 0 1 41 4 40 5 42 6 74 5 74 44 94 96 0 0 0 0
0 0 0 0 0 0 0 0 0 0 0 0 0 0 0 0 0 0 0 0 0 0 0 0 0 0 0 0 2 10 5 5 28 38 99 55 36 15 16 44 99 2 72 0 0
0 0 0 0 0 0 0 0 0 0 0 0 0 0 0 0 0 0 0 0 0 0 0 0 0 0 0 0 0 5 4 5 7 98 82 79 39 60 68 74 82 4 59 0 28
0 0 0 0 0 0 0 0 0 0 0 0 0 0 0 0 0 0 0 0 0 0 0 0 0 0 0 0 0 3 3 1 14 100 100 100 55 100 68 56 100 82 3 0 0
0 0 0 0 0 0 0 0 0 0 0 0 0 0 0 0 0 0 0 0 0 0 0 0 0 0 0 0 0 0 0 0 76 100 95 56 96 30 2 92 9 16 32 18 0
0 0 0 0 0 0 0 0 0 0 0 0 0 0 0 0 0 0 0 0 0 0 0 0 0 0 0 0 0 0 0 0 23 100 100 100 77 54 16 26 32 5 0 89 1
0 0 0 0 0 0 0 0 0 0 0 72 0 0 0 0 0 0 0 0 0 0 0 0 0 0 0 0 0 0 0 0 0 5 4 5 98 60 12 11 73 70 55 6 7
0 0 0 0 0 0 0 0 0 0 0 53 15 0 0 0 0 0 0 0 0 0 0 0 0 0 0 0 0 0 0 0 0 0 0 0 9 2 85 100 85 46 5 36 17
0 0 0 0 0 0 0 0 0 0 5 5 76 32 0 0 0 0 0 0 0 0 0 0 0 0 0 0 0 0 0 0 0 0 0 0 0 0 0 56 100 100 26 5 5
0 0 0 0 0 0 0 0 0 0 0 0 9 100 84 100 7 68 2 0 0 0 0 0 0 0 0 0 0 0 0 0 0 0 0 0 0 0 0 0 39 100 100 87 5
0 0 2 0 0 0 1 0 49 2 0 0 0 100 100 100 38 34 14 0 8 0 0 0 2 0 0 0 0 0 0 0 0 0 0 0 0 0 0 0 2 6 100 98 7
0 1 5 0 1 12 94 100 4 2 0 0 1 34 100 99 83 100 78 86 100 100 24 0 0 0 1 0 0 0 0 0 0 0 0 0 5 0 0 0 0 0 0 4 82
0 22 65 3 27 100 100 82 12 80 46 54 83 99 100 100 100 100 100 100 92 14 98 5 0 0 12 0 0 0 0 0 0 0 0 0 84 9 0 0 0 0 0 0 90
36 87 100 29 100 100 100 100 100 81 61 6 77 69 98 100 100 100 100 100 20 10 100 97 1 0 29 87 31 0 0 0 0 0 0 0 0 0 0 0 0 0 0 1 4
51 92 50 100 84 100 100 100 100 100 38 59 100 34 96 100 100 100 100 100 84 98 31 64 0 0 1 0 7 0 0 0 0 0 0 0 0 0 0 0 0 0 0 1 5
100 95 79 44 36 99 100 100 100 13 38 100 65 49 100 100 100 100 100 97 100 74 5 90 2 0 5 9 99 5 0 0 0 0 0 0 1 0 0 0 0 0 0 1 5
90 98 92 99 100 100 100 100 100 100 100 70 10 89 100 56 100 100 100 100 100 68 6 33 0 5 5 7 99 100 12 0 0 0 0 0 85 1 0 0 0 0 0 0 5
82 100 100 100 100 100 100 100 95 100 93 99 100 100 94 100 100 100 100 100 100 93 98 100 99 29 4 5 33 99 95 83 0 0 0 1 28 44 0 0 0 0 0 0 0

GFSSW_prec_cloud_045.txt.gz
Cloud_Cover
0 0 0 0 0 0 0 0 0 0 0 0 0 0 12 1 0 0 0 0 0 0 0 0 0 4 0 5 78 88 99 100 100 100 100 100 86 40 91 0 0 0 2 4 4
0 0 0 0 0 0 0 0 0 0 0 0 0 0 12 7 0 0 0 0 0 0 0 0 0 0 1 5 10 99 42 80 100 77 100 100 100 0 0 0 0 0 15 4 5
0 0 0 0 0 0 0 0 0 0 0 0 1 0 4 0 0 0 0 0 0 0 0 0 0 0 0 1 0 27 54 94 88 100 100 100 100 100 14 1 0 0 0 1 5
0 0 0 0 0 0 0 0 0 0 0 0 20 17 16 0 0 0 0 0 0 0 0 0 0 0 0 0 0 65 100 100 100 94 99 44 28 100 55 3 5 2 3 4 60
0 0 0 0 0 0 0 0 0 0 0 15 92 56 21 0 0 0 0 0 0 0 0 0 0 0 0 0 0 16 100 100 99 100 100 78 14 61 95 30 6 3 0 2 32
0 0 0 0 0 0 0 0 0 0 0 65 100 99 12 0 0 0 0 0 0 0 0 0 0 0 0 0 0 0 17 91 94 100 47 60 8 5 80 22 46 44 35 9 0
0 0 0 0 0 0 0 0 0 0 0 37 100 66 0 0 0 0 0 0 0 0 0 0 0 0 0 0 0 2 98 99 57 92 100 100 11 5 1 24 35 100 9 0 0
0 0 0 0 0 0 0 0 0 0 0 44 100 92 17 0 0 0 0 0 0 0 0 0 0 0 0 0 0 0 84 98 92 100 84 32 45 17 10 23 24 3 0 0 0
0 0 0 0 0 0 0 0 0 0 0 29 43 11 0 0 0 0 0 0 0 0 0 0 0 0 0 0 0 0 10 76 96 97 87 31 74 57 84 7 3 1 1 0 0
0 0 0 0 0 0 0 0 0 0 9 0 0 0 0 0 0 0 0 0 0 0 0 0 0 0 0 0 0 0 5 39 3 22 98 12 3 5 93 14 4 6 86 4 0
0 0 0 0 0 0 0 0 0 0 0 0 0 0 0 0 0 0 0 0 0 0 0 0 0 0 0 0 0 0 0 4 0 82 22 0 4 63 10 23 78 100 100 23 4
0 0 0 0 0 0 0 0 0 0 0 0 0 0 0 0 0 0 0 0 0 0 0 0 0 0 0 0 0 0 4 23 2 5 100 98 6 100 53 0 72 100 100 100 8
0 0 0 0 0 0 0 0 0 0 0 0 0 0 0 0 0 0 0 0 0 0 0 0 0 0 0 0 0 0 0 1 0 9 100 56 73 84 99 100 98 100 100 76 38
0 0 0 0 0 0 0 0 0 0 0 0 0 0 0 0 0 0 0 0 0 0 0 0 0 0 0 0 0 0 0 0 0 71 97 43 37 68 82 69 94 75 29 100 11
0 0 0 0 0 0 0 0 0 0 0 0 0 0 0 0 0 0 0 0 0 0 0 0 0 0 0 0 0 0 0 0 0 75 100 82 61 84 65 17 29 0 52 5 40
0 0 0 0 0 0 0 0 0 0 0 0 0 0 0 0 0 0 0 0 0 0 0 0 0 0 0 0 0 0 0 0 0 87 78 6 100 5 72 3 0 0 4 1 79
0 0 0 0 0 0 0 0 0 0 0 0 1 77 5 0 0 0 0 0 0 0 0 0 0 0 0 0 0 0 0 1 0 15 10 9 98 5 48 2 78 20 5 1 83
0 0 0 0 0 0 0 0 0 0 0 0 0 42 100 72 10 0 0 0 0 0 0 0 0 0 0 0 0 0 0 0 0 0 0 0 2 0 1 45 99 99 6 29 5
0 0 0 0 0 0 0 0 2 3 0 0 0 0 99 100 55 46 0 0 0 14 0 0 0 0 0 0 0 0 0 0 0 0 0 0 0 0 0 1 47 93 100 7 4
0 0 0 2 2 1 0 0 86 98 4 0 0 0 0 100 90 52 94 18 23 74 70 0 7 7 0 0 0 0 0 0 0 0 0 0 0 0 0 0 2 1 18 53 26
0 0 5 97 4 3 17 79 47 100 50 84 0 0 0 28 100 100 100 100 100 100 75 3 12 0 70 28 0 0 0 0 0 0 0 0 0 0 0 0 0 0 4 67 70
4 0 4 0 5 5 25 59 100 100 100 100 80 2 0 2 100 100 100 100 100 100 22 96 4 2 3 0 0 0 0 0 0 0 0 0 0 0 0 0 0 0 0 2 7
0 35 60 86 100 100 60 5 100 82 97 100 94 12 1 7 61 100 100 100 100 100 98 95 4 4 0 2 43 14 0 0 0 0 0 0 0 0 0 0 0 0 0 1 5
7 48 100 100 45 56 24 5 50 100 75 21 12 1 90 12 91 100 100 100 100 100 100 72 1 0 0 0 0 4 2 0 0 0 0 0 0 0 2 0 0 0 0 0 86
4 10 15 8 90 38 93 100 64 100 100 100 37 87 74 35 100 100 100 100 100 100 100 75 0 0 0 0 0 10 99 5 0 0 0 0 0 0 4 2 0 0 0 0 4
6 17 99 100 92 100 100 100 89 100 99 100 36 46 27 10 100 100 100 100 100 100 100 94 55 2 0 0 34 100 85 5 0 0 0 0 0 0 9 21 0 0 0 0 0
5 81 100 97 100 100 100 100 100 100 100 100 30 98 90 100 100 100 100 100 100 100 100 86 97 3 1 75 100 7 4 99 14 0 0 0 0 0 1 4 1 0 0 0 0

GFSSW_prec_cloud_048.txt.gz
Cloud_Cover
0 0 0 0 0 0 0 0 0 0 2 0 1 14 19 14 1 0 0 0 0 0 0 0 0 5 5 5 24 46 73 99 100 100 100 100 82 87 79 4 3 0 3 0 5
0 0 0 0 0 0 0 0 0 0 0 0 0 12 60 18 19 0 0 0 0 0 0 0 0 2 5 2 3 7 56 90 100 100 100 100 95 83 80 8 4 1 4 1 3
0 0 0 0 0 0 0 0 0 0 0 0 5 73 28 4 12 0 0 0 0 0 0 0 0 0 1 3 1 3 5 61 100 100 100 100 98 40 4 3 2 0 2 4 5
0 0 0 0 0 0 0 0 0 0 0 0 50 100 7 0 0 0 0 0 0 0 0 0 0 0 0 0 3 0 3 52 100 100 96 8 80 6 3 1 2 1 0 1 5
0 0 0 0 0 0 0 0 0 0 0 0 83 99 14 0 0 0 0 0 0 0 0 0 0 0 0 2 0 0 18 5 92 61 76 84 95 58 15 5 1 0 0 28 0
0 0 0 0 0 0 0 0 0 0 0 12 55 98 12 0 0 0 0 0 0 0 0 0 0 0 0 5 0 2 2 47 98 29 66 98 66 66 23 3 3 0 1 30 0
0 0 0 0 0 0 0 0 0 0 0 0 98 73 9 0 0 0 0 0 0 0 0 0 0 0 0 0 4 5 1 60 100 55 100 84 1 5 95 7 5 3 11 3 0
0 0 0 0 0 0 0 0 0 0 0 10 92 100 28 0 0 0 0 0 0 0 0 0 0 0 0 0 0 1 22 14 3 92 87 100 19 0 4 5 5 5 4 0 0
0 0 0 0 0 0 0 0 0 0 0 25 27 40 23 0 0 0 0 0 0 0 0 0 0 0 0 0 0 0 0 3 6 50 24 36 26 0 1 5 4 5 4 0 0
0 0 0 0 0 0 0 0 0 0 1 0 0 29 0 0 0 0 0 0 0 0 0 0 0 0 0 0 0 0 0 2 27 1 64 58 4 4 2 0 4 4 1 50 5
0 0 0 0 0 0 0 0 0 0 0 0 0 0 0 0 0 0 0 0 0 0 0 0 0 0 0 0 0 0 0 0 5 5 100 7 27 4 0 1 2 16 21 47 5
0 0 0 0 0 0 0 0 0 0 0 0 0 0 0 0 0 0 0 0 0 0 0 0 0 0 0 0 0 0 0 0 0 4 100 76 5 43 6 1 0 5 99 61 4
0 0 0 0 0 0 0 0 0 0 0 0 0 0 0 0 0 0 0 0 0 0 0 0 0 0 0 0 0 0 0 0 0 8 86 100 100 47 99 71 5 4 95 100 35
0 0 0 0 0 0 0 0 0 0 0 0 0 0 0 0 0 0 0 0 0 0 0 0 0 0 0 0 0 0 0 0 0 3 89 80 95 100 94 5 4 33 6 85 100
0 0 0 0 0 0 0 0 0 0 0 0 0 0 0 0 0 0 0 0 0 0 0 0 0 0 0 0 0 0 0 0 0 5 80 82 53 95 87 94 0 0 0 4 98
0 0 0 0 0 0 0 0 0 0 0 0 0 0 0 0 0 0 0 0 0 0 0 0 0 0 0 0 0 0 0 0 0 4 34 50 84 60 15 4 0 0 0 0 74
0 0 0 0 0 0 0 0 0 0 0 0 0 0 0 0 1 0 0 0 0 7 0 0 0 0 0 0 0 0 0 0 1 13 5 4 5 0 5 2 0 4 0 3 100
0 0 0 0 0 0 0 0 0 0 0 0 0 0 0 0 7 1 0 43 25 0 4 0 0 0 0 0 0 0 0 0 0 1 3 0 5 0 0 38 6 53 5 55 100
0 0 0 0 0 0 0 0 0 0 0 0 0 0 0 0 0 26 32 100 100 95 67 66 0 0 0 0 0 0 0 0 1 0 0 0 0 0 5 5 5 5 38 5 88
0 0 0 7 5 2 3 2 4 0 1 1 0 0 0 0 0 0 100 94 100 100 100 44 18 0 0 1 0 0 0 0 0 0 0 0 0 0 0 0 4 5 5 0 4
0 0 0 0 4 0 9 6 5 10 45 11 0 5 60 0 0 0 99 100 100 100 100 98 73 0 72 4 0 0 0 0 0 0 0 0 0 0 0 0 0 5 3 0 0
10 0 0 0 8 15 74 62 39 100 100 44 9 99 99 90 0 0 32 100 100 100 100 100 100 42 8 0 0 0 0 0 0 0 0 0 0 0 0 0 4 0 5 0 0
67 0 0 5 48 74 100 100 99 100 100 100 66 90 5 5 3 0 0 100 100 100 100 100 100 100 0 23 87 10 0 0 0 0 0 0 0 0 0 0 0 0 1 4 0
22 2 5 29 56 100 100 100 100 100 100 100 9 12 5 0 2 2 0 46 100 100 100 100 100 94 64 2 76 0 0 0 0 0 0 0 0 0 0 0 0 0 0 0 0
1 5 6 96 100 100 100 100 100 100 100 100 100 79 5 3 0 1 0 9 100 100 100 100 100 47 4 1 4 0 0 0 0 0 0 0 0 0 0 0 0 0 0 0 0
2 15 100 100 64 100 100 100 100 100 100 100 100 100 23 63 7 2 1 0 100 100 100 100 100 6 0 4 1 0 0 0 0 0 0 0 1 5 1 2 3 0 0 0 0
49 100 100 100 100 100 100 100 100 100 100 97 84 97 100 90 55 4 3 64 100 100 100 100 100 34 14 100 54 38 98 40 2 3 0 0 30 100 45 2 76 79 0 0 0

GFSSW_prec_cloud_051.txt.gz
Cloud_Cover
0 0 0 0 0 0 0 0 0 0 0 0 1 14 72 86 8 0 10 0 0 0 0 0 0 0 0 0 69 30 9 20 89 100 89 98 87 100 100 98 6 100 9 41 58
0 0 0 0 0 0 0 0 0 0 0 0 0 8 100 87 16 0 0 0 0 0 0 0 0 0 0 0 55 28 26 21 69 66 100 100 100 95 99 23 76 28 4 1 5
0 0 0 0 0 0 0 0 0 0 0 0 7 56 100 18 34 0 0 0 0 0 0 0 0 0 0 0 43 6 5 6 33 94 100 100 98 100 63 52 4 6 0 0 23
0 0 0 0 0 0 0 0 0 0 0 0 14 92 10 0 0 0 0 0 0 0 0 0 0 0 0 0 1 5 5 6 5 14 39 100 100 97 43 14 0 0 0 0 10
0 0 0 0 0 0 0 0 0 0 0 28 1 55 0 0 0 0 0 0 0 0 0 0 0 0 0 4 1 5 11 26 6 5 31 5 44 32 4 0 0 0 0 0 0
0 0 0 0 0 0 0 0 0 0 0 36 47 39 0 0 0 0 0 0 0 0 0 0 0 0 0 0 0 45 86 100 7 18 95 12 16 5 2 0 2 2 0 0 0
0 0 0 0 0 0 0 0 0 0 0 0 18 6 0 0 0 0 0 0 0 0 0 0 0 0 0 0 4 3 4 4 4 15 96 45 7 9 5 5 5 5 0 0 0
0 0 0 0 0 0 0 0 0 0 0 0 73 83 28 0 0 0 0 0 0 0 0 0 0 0 0 0 0 5 2 0 0 4 84 59 12 5 4 5 5 5 0 0 0
0 0 0 0 0 0 0 0 0 0 0 0 28 35 15 0 0 0 0 0 0 0 0 0 0 0 0 0 0 0 0 0 2 3 77 45 64 0 1 5 2 0 3 0 0
0 0 0 0 0 0 0 0 0 0 0 0 0 30 0 0 0 0 0 0 0 0 0 0 0 0 0 0 0 0 0 0 0 1 5 19 7 41 5 5 1 5 3 5 0
0 0 0 0 0 0 1 0 0 0 0 0 0 0 0 0 0 0 0 0 0 0 0 0 0 0 0 0 0 0 0 0 0 0 3 0 5 5 34 0 0 5 5 5 1
0 0 0 0 0 0 0 0 0 0 0 0 0 0 0 0 0 0 0 0 0 0 0 0 0 0 0 0 0 0 0 0 0 5 3 54 4 4 0 0 2 2 65 56 5
0 0 0 0 0 0 0 0 0 0 0 0 0 0 0 0 0 0 0 0 0 0 0 0 0 0 0 0 0 0 0 0 0 3 5 15 95 4 0 2 32 5 76 72 52
0 0 0 0 0 0 0 0 0 0 0 0 0 0 0 0 0 0 0 0 0 0 0 0 0 0 0 0 0 0 0 0 0 2 69 4 7 2 2 3 0 2 5 70 94
0 0 0 0 0 0 0 0 0 0 0 0 0 0 0 0 0 0 0 0 0 0 0 0 0 0 0 0 0 0 0 0 0 0 5 61 47 5 2 0 0 5 1 5 42
0 0 0 8 0 0 0 0 0 0 0 0 0 0 0 0 0 0 0 0 0 0 0 0 0 0 0 0 0 0 0 0 0 0 5 25 100 2 4 0 0 3 0 2 15
0 0 0 0 0 0 0 0 0 0 0 0 0 0 0 0 0 0 0 0 0 0 0 0 0 0 0 0 0 0 0 0 0 2 0 2 77 0 2 0 0 0 0 75 5
0 0 0 5 0 0 0 0 0 0 0 0 0 0 0 0 0 0 0 0 0 1 0 13 0 0 0 0 0 0 0 0 0 0 0 0 2 3 0 0 0 2 0 5 43
2 0 5 0 0 0 0 0 0 0 0 0 0 0 0 0 0 0 0 14 3 2 4 13 1 0 0 0 0 0 0 0 0 0 4 0 0 0 0 0 3 0 0 1 78
10 3 0 0 0 0 0 1 2 33 12 5 2 5 1 0 0 0 0 1 29 4 25 82 20 0 0 1 0 0 0 0 0 0 0 0 0 0 0 0 0 0 0 1 89
0 0 0 0 0 1 48 83 8 8 3 3 5 4 1 3 5 0 0 0 0 31 100 34 26 2 0 4 0 0 0 0 0 0 0 0 0 0 0 5 0 0 0 0 6
18 0 0 4 36 43 41 0 43 34 20 97 39 5 5 5 24 2 0 0 0 5 100 78 99 96 0 0 0 0 0 1 0 0 0 0 0 0 0 8 5 0 0 0 0
80 12 0 5 98 100 90 42 5 85 100 100 100 86 84 100 11 1 57 2 0 5 100 96 100 64 1 50 40 97 1 0 0 0 0 0 2 0 0 0 76 49 3 0 0
29 1 5 5 21 17 100 97 99 100 100 98 100 100 100 85 13 36 100 99 5 2 41 100 84 47 27 80 100 100 5 0 2 0 0 0 1 0 0 0 0 14 8 5 0
1 36 6 42 49 77 69 68 100 100 100 100 100 100 100 80 100 35 100 100 24 2 11 100 100 97 35 43 69 6 5 4 2 0 0 2 0 0 0 0 0 0 0 0 0
20 35 5 46 98 100 100 69 87 99 99 100 100 100 100 100 100 36 2 100 24 18 23 100 100 47 5 27 28 5 78 73 5 0 0 4 1 0 0 0 0 0 0 0 0
99 100 100 97 100 100 100 100 100 100 100 100 100 100 100 58 87 51 6 17 6 13 21 100 100 17 5 29 100 100 100 95 95 3 0 4 0 0 0 0 0 0 0 0 0

GFSSW_prec_cloud_054.txt.gz
Cloud_Cover
0 0 0 0 0 0 0 0 0 0 0 0 1 23 12 87 40 14 6 0 0 0 0 8 0 0 0 5 28 99 10 21 60 80 99 99 99 100 100 96 99 98 100 6 7
0 0 0 0 0 0 0 0 0 0 0 4 11 17 10 100 13 0 0 0 0 0 0 18 3 0 15 4 84 97 8 9 90 72 99 100 100 100 100 99 100 93 27 32 44
0 0 0 0 0 0 0 0 0 0 0 0 59 17 78 11 12 0 0 0 0 0 0 0 0 0 1 1 30 48 19 5 12 81 91 68 88 38 10 18 85 38 93 100 45
0 0 0 0 0 0 0 0 0 0 4 1 42 21 8 0 0 0 0 0 0 0 0 0 0 0 0 0 0 7 5 17 7 52 98 100 22 92 29 52 52 21 98 14 25
0 0 0 0 0 0 0 0 0 0 8 11 10 32 0 0 0 0 0 0 0 0 0 0 0 0 0 0 0 5 5 12 10 73 61 100 100 100 76 83 5 62 33 9 0
0 0 0 0 0 0 0 0 0 0 0 0 0 0 0 0 0 0 0 0 0 0 0 0 0 0 0 0 1 5 22 5 5 12 6 7 22 67 9 24 2 0 7 13 0
0 0 0 0 0 0 0 0 0 0 0 0 0 0 0 0 0 0 0 0 0 0 0 0 0 0 0 0 1 5 6 5 5 10 5 5 69 3 13 1 0 0 6 7 1
0 0 0 0 0 0 0 0 0 0 0 21 4 1 5 0 0 0 0 0 0 0 0 0 0 0 0 0 0 5 5 79 10 4 60 84 55 5 23 5 0 0 0 5 0
0 0 0 0 0 0 0 0 0 0 4 51 52 0 0 0 0 0 0 0 0 0 0 0 0 0 0 0 0 4 0 4 16 4 1 5 68 0 4 5 0 0 0 0 0
0 0 0 0 0 0 0 0 0 1 9 0 0 0 0 0 0 0 0 0 0 0 0 0 0 0 0 0 0 0 0 0 3 2 5 17 21 0 5 5 4 0 1 4 0
0 0 0 0 0 0 0 0 0 0 0 0 0 0 0 0 0 0 0 0 0 0 0 0 0 0 0 0 0 0 0 0 0 4 5 35 82 7 3 0 5 0 5 5 5
0 0 0 0 0 0 0 0 0 0 0 0 0 0 0 0 0 0 0 0 0 0 0 0 0 0 0 0 0 0 0 0 0 5 4 0 28 6 13 2 5 5 5 5 2
0 0 0 0 0 0 0 0 0 0 0 0 0 0 0 0 0 0 0 0 0 0 0 0 0 0 0 0 0 0 0 0 0 3 5 0 1 5 3 0 2 0 5 4 5
0 0 0 0 0 0 0 0 0 0 0 0 0 0 0 0 0 0 0 0 0 0 0 0 0 0 0 0 0 0 0 0 0 0 1 2 0 5 3 3 0 0 1 5 5
0 0 0 0 0 0 0 0 0 0 0 0 0 0 0 0 0 0 0 0 0 0 0 0 0 0 0 0 0 0 0 0 0 0 0 16 11 5 5 24 0 0 0 3 5
0 0 0 0 0 0 0 0 0 0 0 0 0 0 0 0 0 0 0 0 0 0 0 0 0 0 0 0 0 0 0 0 0 0 68 1 93 0 0 0 0 0 0 5 5
0 0 0 0 0 0 0 0 0 0 0 0 0 0 0 0 0 0 0 0 0 0 0 0 0 0 0 0 0 0 0 0 0 0 2 0 45 0 0 0 0 0 1 8 35
0 0 0 0 0 0 0 0 0 0 0 0 0 0 0 0 0 0 0 0 0 0 0 4 0 0 0 0 0 0 0 0 0 0 0 0 1 0 0 0 3 5 0 54 75
0 0 0 0 0 0 0 0 0 0 0 0 0 0 0 0 0 0 0 0 0 0 1 22 0 0 0 0 0 0 0 0 0 0 0 0 0 0 0 0 5 95 2 2 5
14 0 0 0 0 0 0 0 0 0 0 0 0 1 5 3 0 0 0 0 0 0 0 2 29 0 0 0 0 0 0 0 0 0 0 0 0 0 0 0 0 2 0 0 5
0 0 0 0 0 0 0 0 0 0 0 0 0 2 4 1 55 6 0 0 0 0 0 0 27 1 0 0 0 0 1 0 0 0 0 0 0 0 0 0 2 100 48 1 0
0 0 0 0 0 0 0 0 5 5 5 5 5 5 5 5 5 5 5 0 0 0 2 3 89 84 0 0 0 5 4 0 0 0 0 0 0 0 0 0 0 0 100 79 0
93 70 0 0 4 5 5 2 4 5 6 5 84 43 80 5 59 6 5 5 0 0 0 2 71 65 0 0 36 48 7 0 5 1 0 0 0 0 0 0 0 8 100 19 0
10 0 1 5 5 24 97 5 5 5 5 48 82 91 99 100 100 75 77 2 0 0 4 2 43 72 5 1 71 4 98 4 21 5 0 1 0 0 0 0 0 2 7 12 2
6 11 17 10 26 100 69 44 6 19 19 55 28 87 83 100 100 100 86 7 2 3 4 3 99 5 5 5 24 10 8 22 65 6 5 4 1 0 0 0 0 0 5 16 10
5 6 6 57 98 100 98 100 100 99 96 95 100 100 100 100 100 100 100 59 13 96 100 42 22 44 96 84 28 93 8 98 51 5 5 5 1 5 0 0 0 5 5 0 0
66 96 100 70 100 100 100 100 100 100 100 100 100 100 100 94 50 100 90 100 55 55 100 100 77 87 77 100 100 35 6 92 5 5 5 3 0 5 0 0 0 0 0 0 0

GFSSW_prec_cloud_057.txt.gz
Cloud_Cover
0 0 0 0 0 1 0 0 0 0 0 0 20 19 98 64 69 23 0 0 0 0 0 49 18 0 12 50 44 99 18 5 52 45 47 87 78 93 67 100 73 50 5 5 82
0 0 0 0 0 7 5 1 0 0 0 9 17 69 100 100 5 0 0 0 0 0 0 0 0 0 1 44 54 54 26 5 40 34 70 98 72 51 100 59 54 16 26 27 99
0 0 0 0 0 1 7 12 3 0 0 14 28 99 96 26 0 0 0 0 0 0 0 0 0 0 0 31 16 34 13 6 7 11 66 50 93 100 42 5 40 75 94 84 54
0 0 0 0 0 0 13 1 0 0 0 14 47 8 54 8 0 0 0 0 0 0 0 0 0 0 0 0 5 19 5 42 5 5 41 85 90 99 75 85 80 30 70 9 34
0 0 0 0 0 0 2 1 7 0 4 8 26 23 0 0 0 0 0 0 0 0 0 0 0 0 0 0 0 5 5 29 5 8 30 15 98 85 100 84 100 24 26 13 27
0 0 0 0 0 0 0 0 2 0 0 0 0 0 0 0 0 0 0 0 0 0 0 0 0 0 0 0 0 5 5 5 30 41 5 5 25 64 100 87 92 1 1 6 12
0 0 0 0 0 0 0 0 0 0 0 0 0 0 0 0 0 0 0 0 0 0 0 0 0 0 0 0 0 5 4 1 5 5 12 30 5 8 100 23 22 28 21 5 17
0 0 0 0 0 0 0 0 0 0 0 0 2 0 0 0 0 0 0 0 0 0 0 0 0 0 0 0 0 0 3 4 5 5 5 7 43 5 5 32 8 31 40 3 1
0 0 0 0 0 0 0 0 0 0 13 24 5 0 0 0 0 0 0 0 0 0 0 0 0 0 0 0 0 0 0 3 0 5 5 87 86 5 5 6 1 9 17 0 0
0 0 0 0 0 0 0 0 0 2 4 4 0 0 0 0 0 0 0 0 0 0 0 0 0 0 0 0 0 0 0 0 3 3 2 5 15 5 4 2 1 0 2 0 0
0 0 0 0 0 0 0 0 0 0 0 0 0 0 0 0 0 0 0 0 0 0 0 0 0 0 0 0 0 0 0 0 20 32 4 2 5 5 5 92 8 0 5 5 0
0 0 0 0 0 0 0 0 0 0 0 0 0 0 0 0 0 0 0 0 0 0 0 0 0 0 0 0 0 0 0 0 4 25 4 2 5 5 9 73 6 5 5 5 0
0 0 0 0 0 0 0 0 0 0 0 0 0 0 0 0 0 0 0 0 0 0 0 0 0 0 0 0 0 0 0 0 0 4 5 0 29 5 64 53 5 2 3 3 5
0 0 0 0 0 0 0 0 0 0 0 0 0 0 0 0 0 0 0 0 0 0 0 0 0 0 0 0 0 0 0 0 0 1 5 5 0 5 68 100 7 3 0 1 0
0 0 0 0 0 0 0 0 0 0 0 0 0 0 0 0 0 0 0 0 0 0 0 0 0 0 0 0 0 0 0 0 0 0 2 5 16 0 0 4 13 3 0 0 2
0 0 1 0 0 0 0 0 0 0 0 0 0 0 0 0 0 0 0 0 0 0 0 0 0 0 0 0 0 0 0 0 0 0 0 0 2 0 0 0 5 5 0 0 5
0 0 0 0 0 0 0 0 0 0 0 0 0 0 0 0 0 0 0 0 0 0 0 0 0 0 0 0 0 0 0 0 0 0 0 0 0 0 0 0 3 4 4 4 5
1 0 0 0 0 0 0 0 0 0 0 0 0 0 0 0 0 0 0 0 0 0 0 0 0 0 0 0 0 0 0 0 0 0 0 0 0 0 0 0 0 0 69 68 5
0 0 0 0 0 0 0 0 0 0 0 0 0 0 0 0 0 0 0 0 0 0 0 0 0 0 0 0 0 0 0 0 0 0 0 0 0 0 0 0 0 3 63 20 16
0 0 0 0 0 0 0 0 0 0 0 0 0 0 0 0 0 0 0 0 0 0 0 0 0 0 0 0 0 0 0 0 0 0 0 0 0 0 0 0 0 2 5 16 99
0 0 0 0 0 0 0 0 0 0 0 0 0 0 0 0 0 0 0 0 0 0 0 0 1 0 0 0 0 0 3 0 0 0 0 0 0 0 0 0 0 1 5 5 99
0 0 0 0 0 0 0 5 5 3 0 5 5 5 5 5 5 5 4 0 0 0 0 3 3 0 0 0 0 0 10 1 0 0 0 0 0 0 0 0 0 2 5 29 19
2 0 0 0 3 6 5 5 4 5 5 5 42 77 86 76 86 43 7 5 5 1 3 5 32 2 0 0 1 3 2 0 1 0 0 0 0 0 0 0 0 0 40 59 8
0 0 3 3 5 28 100 11 13 30 7 5 48 99 100 97 79 50 42 65 5 5 3 1 5 0 0 0 8 76 60 5 1 2 0 0 1 0 0 0 0 69 16 1 4
1 5 5 6 50 99 31 30 89 88 49 68 61 77 100 100 100 96 98 86 80 94 86 5 5 0 0 0 4 0 30 23 5 0 0 0 3 0 0 0 0 92 5 5 5
5 10 10 90 100 61 74 100 100 100 100 78 100 100 100 96 40 80 5 82 53 100 100 31 27 5 0 0 4 5 0 22 5 5 0 0 0 0 0 0 0 0 1 2 6
30 44 87 100 100 100 99 100 100 100 100 82 100 100 100 45 85 33 10 15 72 32 56 19 95 17 0 25 51 5 0 1 3 0 4 0 0 0 0 0 0 0 0 0 5

GFSSW_prec_cloud_060.txt.gz
Cloud_Cover
0 0 0 0 0 1 8 4 0 0 0 17 23 23 100 100 33 0 0 0 0 0 0 0 0 0 1 71 97 48 47 28 88 41 87 15 23 40 86 58 60 41 36 23 100
0 0 0 0 0 0 15 18 0 0 5 26 22 48 100 55 0 0 0 0 0 0 0 0 0 0 0 1 85 28 44 98 20 59 8 25 73 18 95 70 25 24 50 36 78
0 0 0 0 0 2 0 6 0 0 0 22 53 43 55 13 0 0 0 0 0 0 0 0 0 0 0 0 5 40 35 7 86 78 82 68 61 37 84 78 40 10 31 59 87
0 0 0 0 0 3 0 0 0 2 0 26 12 0 0 0 0 0 0 0 0 0 0 0 0 0 0 0 5 5 65 55 94 20 78 65 89 58 34 50 6 25 9 44 13
0 0 0 0 0 0 0 0 0 0 0 15 12 0 4 0 0 0 0 0 0 0 0 0 0 0 0 0 4 5 27 14 22 81 55 82 27 79 97 55 22 19 36 49 29
0 0 0 0 0 0 0 0 0 0 0 0 3 0 0 0 0 0 0 0 0 0 0 0 0 0 0 0 0 5 5 6 21 94 51 21 7 19 21 96 85 41 83 38 44
0 0 0 0 0 0 0 0 0 0 0 0 0 0 0 0 0 0 0 0 0 0 0 0 0 0 0 0 0 0 4 4 5 18 99 5 3 0 3 98 87 35 57 47 39
0 0 0 0 0 0 0 0 0 0 0 0 0 0 0 0 0 0 0 0 0 0 0 0 0 0 0 0 0 0 0 2 3 5 32 5 98 1 1 0 4 20 24 28 18
0 0 0 0 0 0 0 0 0 0 0 0 0 0 0 0 0 0 0 0 0 0 0 0 0 0 0 0 0 0 0 0 99 6 17 60 97 5 5 2 1 2 5 8 38
0 0 0 0 0 0 0 0 0 20 3 0 0 0 0 0 0 0 0 0 0 0 0 0 0 0 0 0 0 0 0 0 26 8 6 95 88 5 5 5 5 0 1 30 23
0 0 0 0 0 0 5 0 0 0 0 0 0 0 0 0 0 0 0 0 0 0 0 0 0 0 0 0 0 0 0 0 2 98 21 95 99 5 5 2 0 0 0 0 0
0 0 0 0 0 0 0 0 0 0 0 0 0 0 0 0 0 0 0 0 0 0 0 0 0 0 0 0 0 0 0 0 0 55 6 100 92 79 5 5 1 0 0 0 2
0 0 0 0 0 0 0 0 0 0 0 0 0 0 0 0 0 0 0 0 0 0 0 0 0 0 0 0 0 0 0 0 0 4 5 72 96 100 5 5 0 5 0 0 0
0 0 0 20 9 0 0 0 0 0 0 0 0 0 0 0 0 0 0 0 0 0 0 0 0 0 0 0 0 0 0 0 0 0 5 12 31 15 5 5 3 5 0 0 0
0 0 0 5 0 0 0 0 0 0 0 0 0 0 0 0 0 0 0 0 0 0 0 0 0 0 0 0 0 0 0 0 0 0 1 60 96 99 31 5 2 0 2 0 0
0 0 11 28 0 0 0 0 0 0 0 0 0 0 0 0 0 0 0 0 0 0 0 0 0 0 0 0 0 0 0 0 0 0 0 0 5 5 96 5 14 5 5 5 0
0 0 0 0 0 0 0 0 0 0 0 0 0 0 0 0 0 0 0 0 0 0 0 0 0 0 0 0 0 0 0 0 0 0 0 0 0 0 20 65 71 67 5 6 5
0 41 0 0 0 0 0 0 0 0 0 0 0 0 0 0 0 0 0 0 0 0 0 0 0 0 0 0 0 0 0 0 0 0 0 0 0 0 2 12 5 0 5 72 5
17 0 0 0 0 0 0 0 0 0 0 0 0 0 0 0 0 0 0 0 0 0 0 0 0 0 0 0 0 0 0 0 0 0 0 0 0 0 0 0 0 0 5 5 5
0 0 0 0 0 0 0 0 0 0 0 0 0 0 0 1 0 0 0 0 0 0 0 0 0 0 0 0 0 9 0 0 0 1 0 0 0 0 0 0 0 0 5 0 8
0 0 0 0 0 0 1 0 0 2 0 2 3 5 18 6 41 5 5 4 0 0 0 0 0 0 0 0 0 0 0 91 4 2 0 0 0 0 0 0 0 0 0 1 5
0 0 0 0 3 0 4 5 0 5 5 5 5 8 72 83 100 98 100 98 38 0 0 4 0 0 0 0 0 0 50 6 100 23 0 2 1 0 0 0 0 0 0 0 5
0 0 0 0 3 5 5 5 5 5 5 5 5 7 5 20 54 99 100 81 6 11 11 45 0 0 0 0 0 0 0 2 100 100 62 7 0 0 0 0 0 0 0 0 94
0 4 5 1 3 4 5 4 12 6 51 12 71 81 95 97 98 93 100 96 43 90 5 4 0 5 0 2 0 5 22 93 14 98 61 96 98 7 0 0 0 0 0 13 61
5 4 5 6 5 14 28 53 81 73 58 46 88 98 100 98 100 100 100 100 61 54 18 12 21 70 4 0 0 0 5 5 1 34 77 96 100 100 0 0 0 0 0 0 5
82 91 97 70 76 86 45 45 95 100 100 47 82 100 81 81 100 98 90 99 99 100 100 91 94 100 68 1 0 0 0 5 5 5 5 10 77 100 68 0 0 0 0 0 0
29 86 78 64 100 91 97 98 100 100 100 99 100 99 76 66 100 97 66 93 90 73 82 99 96 100 88 13 3 0 0 0 0 2 5 3 2 5 76 1 0 0 0 0 0

GFSSW_prec_cloud_063.txt.gz
Cloud_Cover
0 0 0 0 0 0 13 0 5 0 2 19 21 14 0 1 0 0 0 0 0 0 0 0 0 0 0 0 25 54 42 90 77 96 98 54 94 100 53 92 62 47 63 12 31
0 0 0 0 0 0 11 3 0 0 17 17 5 0 0 0 0 0 0 0 0 0 0 0 0 0 0 1 5 32 90 45 94 100 100 9 53 98 48 91 99 100 97 40 75
0 0 0 0 0 0 5 2 0 0 0 7 9 0 0 0 0 0 0 0 0 0 0 0 0 0 0 0 5 86 69 100 97 48 12 15 56 89 88 100 59 100 76 55 66
0 0 0 0 0 0 0 0 0 0 0 0 21 0 0 0 0 0 0 0 0 0 0 0 0 0 0 0 4 28 99 86 98 14 43 60 100 100 58 66 22 74 79 98 67
0 0 0 0 0 0 0 0 0 0 0 0 34 0 10 0 0 0 0 0 0 0 0 0 0 0 0 0 2 5 100 86 45 70 99 82 100 91 96 42 5 5 86 92 99
0 0 0 0 0 0 0 0 0 0 0 0 29 0 0 0 0 0 0 0 0 0 0 0 0 0 0 0 0 2 6 100 100 96 91 64 99 31 100 46 73 50 68 100 78
0 0 0 0 0 0 0 0 0 0 0 0 0 0 0 0 0 0 0 0 0 0 0 0 0 0 0 0 0 0 0 0 21 85 96 96 100 8 100 94 70 55 89 100 100
0 0 0 0 0 0 0 0 0 0 0 0 2 0 0 0 0 0 0 0 0 0 0 0 0 0 0 0 0 0 0 0 9 7 88 90 100 94 2 0 5 5 37 88 100
0 0 0 0 0 0 0 0 0 0 0 1 0 0 0 0 0 0 0 0 0 0 0 0 0 0 0 0 0 0 0 0 5 4 40 96 81 100 100 41 0 1 37 86 100
0 0 0 0 0 0 0 9 0 30 16 0 0 0 0 0 0 0 0 0 0 0 0 0 0 0 0 0 0 0 0 0 2 49 59 100 100 99 97 18 0 0 12 36 100
0 0 0 0 0 0 9 0 0 0 0 0 0 0 0 0 0 0 0 0 0 0 0 0 0 0 0 0 0 0 0 0 4 4 100 28 100 100 100 86 1 0 0 5 33
0 0 0 0 0 0 2 0 0 0 0 0 0 0 0 0 0 0 0 0 0 0 0 0 0 0 0 0 0 0 0 0 0 14 28 23 96 99 56 2 0 0 0 0 33
0 0 0 0 7 0 0 0 0 0 0 0 0 0 0 0 0 0 0 0 0 0 0 0 0 0 0 0 0 0 0 0 0 3 73 100 30 100 100 2 0 0 0 0 0
1 0 0 10 9 0 0 0 0 0 0 0 0 0 0 0 0 0 0 0 0 0 0 0 0 0 0 0 0 0 0 0 0 0 5 14 89 68 80 56 0 0 0 0 0
5 0 0 69 0 0 0 0 0 0 0 0 0 0 0 0 0 0 0 0 0 0 0 0 0 0 0 0 0 0 0 0 0 0 2 4 17 100 36 65 37 0 0 0 0
25 4 7 0 0 0 0 0 0 0 0 0 0 0 0 0 0 0 0 0 0 0 0 0 2 0 0 0 0 0 0 0 0 0 0 0 5 13 100 100 74 6 4 0 0
0 2 22 0 0 0 0 0 0 0 0 0 0 0 0 0 0 0 0 0 0 0 0 0 0 0 0 0 0 0 0 0 0 0 0 0 0 2 91 72 100 10 5 1 0
5 33 0 0 0 0 0 0 0 1 0 0 0 0 0 0 0 0 0 0 0 0 0 0 0 0 0 0 0 0 0 0 0 0 0 0 0 0 10 99 6 100 53 1 5
17 0 0 0 0 0 0 0 3 0 0 0 0 0 0 0 0 0 0 0 0 0 0 0 0 3 0 0 0 0 1 0 0 3 0 0 0 0 0 3 61 100 76 95 15
0 0 0 0 0 0 1 3 1 0 0 0 0 0 0 1 0 0 0 0 0 0 0 0 0 0 4 0 0 5 22 0 0 3 0 0 0 0 0 0 2 52 89 33 100
0 2 0 0 0 2 12 3 0 0 0 0 3 3 25 4 6 25 4 2 0 3 0 0 0 0 0 0 0 0 0 66 77 2 4 1 0 0 0 0 0 0 3 4 12
0 4 0 0 4 0 4 0 0 4 5 4 0 3 5 65 100 100 99 100 11 8 5 3 0 0 0 0 0 0 2 0 90 83 5 1 13 5 36 0 0 0 5 4 5
0 0 0 0 24 4 2 2 1 5 5 5 25 21 45 24 82 100 100 100 100 100 10 44 4 1 0 0 0 0 0 5 8 50 99 6 2 77 30 0 0 0 2 5 5
2 5 3 3 3 2 7 4 56 3 5 6 4 5 32 30 23 20 68 66 25 5 41 5 29 100 62 59 74 4 0 4 5 81 85 96 99 95 59 4 0 0 0 4 6
2 5 5 5 5 5 22 75 93 51 22 3 50 53 84 57 99 96 100 100 85 95 3 5 99 98 75 29 88 0 1 27 23 25 83 68 100 25 100 96 77 26 5 76 99
4 2 5 6 5 12 61 100 21 45 55 63 54 76 80 72 93 75 92 47 100 100 82 100 80 100 100 100 97 4 0 5 36 5 90 73 87 74 100 100 100 0 99 33 5
1 5 5 6 91 100 100 63 72 100 56 94 96 59 61 85 85 91 100 85 97 39 98 100 58 99 90 100 100 96 0 0 0 0 0 3 0 98 99 99 100 47 31 8 0

GFSSW_prec_cloud_066.txt.gz
Cloud_Cover
0 0 0 0 0 0 1 11 10 4 1 6 0 4 0 0 0 0 0 0 0 0 0 0 0 0 4 2 8 50 79 62 100 100 100 100 100 100 100 99 84 33 4 5 5
0 0 0 0 0 0 12 2 5 6 0 0 0 22 0 0 0 0 0 0 0 0 0 0 0 0 0 0 80 5 33 100 43 18 95 100 100 40 49 88 72 77 4 9 9
0 0 0 0 0 1 3 0 0 0 0 0 1 19 0 0 0 0 0 0 0 0 0 0 0 0 0 0 5 6 20 82 98 77 61 98 100 59 80 72 90 0 5 24 17
0 0 0 0 0 0 0 0 0 0 0 0 0 6 0 0 0 0 0 0 0 0 0 0 0 0 0 0 34 21 92 100 100 66 97 100 14 100 14 100 100 98 5 34 7
0 0 0 0 0 0 0 0 0 2 0 0 0 1 16 0 0 0 0 0 0 0 0 0 0 0 0 0 17 12 70 100 70 64 73 68 94 100 2 100 100 68 4 88 85
0 0 0 0 0 0 0 0 0 1 0 0 16 2 0 0 0 0 0 0 0 0 0 0 0 0 0 0 2 43 22 100 74 94 66 3 100 100 85 99 98 0 9 100 100
0 0 0 0 0 0 0 0 0 0 0 0 1 0 0 0 0 0 0 0 0 0 0 0 0 0 0 0 0 0 5 5 15 21 98 99 40 96 85 100 10 5 62 100 100
0 0 0 0 0 0 0 0 0 0 0 0 0 0 0 0 0 0 0 0 0 0 0 0 0 0 0 0 0 0 0 0 3 19 20 30 100 99 95 90 94 58 32 100 90
0 0 0 0 0 0 0 0 0 0 0 1 0 0 0 0 0 0 0 0 0 0 0 0 0 0 0 0 0 0 0 0 0 11 16 68 86 100 94 100 100 86 99 88 99
0 0 0 0 0 0 0 0 0 0 0 0 0 0 0 0 0 0 0 0 0 0 0 0 0 0 0 0 0 0 0 0 0 3 72 65 64 97 100 100 100 100 100 48 66
0 0 0 0 0 0 1 0 0 0 0 0 0 0 0 0 0 0 0 0 0 0 0 0 0 0 0 0 0 0 0 0 0 1 21 100 9 62 50 46 100 100 100 34 0
0 0 0 0 0 4 7 0 0 0 0 0 0 0 0 0 0 0 0 0 0 0 0 0 0 0 0 0 0 0 0 0 0 2 4 17 98 71 100 100 100 75 100 16 6
0 0 0 0 6 4 0 0 0 0 0 0 0 0 0 0 0 0 0 0 0 0 0 0 0 0 0 0 0 0 0 0 0 1 7 13 2 99 84 100 100 100 71 22 0
0 0 1 2 6 0 1 2 0 0 0 0 0 0 0 0 0 0 0 0 0 0 0 0 0 0 0 0 0 0 0 0 0 0 2 36 68 7 99 100 100 100 80 6 38
0 0 0 27 75 2 0 0 0 2 8 0 0 0 0 0 0 0 0 0 0 0 0 0 0 0 0 0 0 0 0 0 0 0 0 1 71 22 32 17 100 100 100 26 13
0 0 0 0 7 73 5 0 0 0 65 0 0 0 0 0 0 0 0 0 0 0 0 0 0 0 0 0 0 0 0 0 0 0 0 0 0 21 56 54 100 100 100 4 0
0 0 12 0 0 8 19 5 0 0 0 0 0 0 0 0 0 0 0 0 0 0 0 0 0 0 2 0 0 0 0 0 0 0 0 0 0 0 29 18 100 100 100 74 0
0 27 0 4 49 4 8 48 5 100 83 0 0 0 0 0 0 0 0 0 0 0 0 0 0 0 0 0 0 0 0 0 0 0 0 0 0 0 0 35 65 100 100 99 9
0 0 0 0 2 8 6 39 91 5 0 0 0 0 0 0 0 0 0 0 0 0 0 0 0 2 0 0 0 0 13 0 0 0 0 0 0 0 0 0 72 100 97 100 100
0 0 0 0 0 0 0 58 10 0 0 0 0 0 0 61 1 0 0 0 0 0 0 0 0 0 1 14 0 0 0 38 1 0 0 0 0 0 0 0 3 64 99 100 100
0 3 0 0 0 1 91 86 21 0 0 0 0 1 5 0 6 31 4 30 3 1 0 0 0 0 0 1 3 6 0 5 87 60 0 0 0 0 0 0 0 1 46 52 100
0 68 0 0 4 6 24 0 0 0 2 1 0 0 1 3 2 25 92 100 2 4 4 5 0 0 0 0 0 1 6 5 95 5 6 0 0 0 1 47 0 0 0 100 100
1 1 0 0 82 51 2 4 1 0 5 2 0 4 5 5 2 3 5 28 4 4 5 46 3 2 0 0 0 0 0 0 2 26 44 32 9 0 69 95 94 4 0 13 100
0 78 4 3 3 4 21 73 26 4 2 0 1 0 2 0 2 1 2 24 0 1 5 0 2 3 31 12 34 0 5 0 2 16 4 5 7 0 100 38 96 64 4 100 100
0 0 0 3 5 5 5 9 20 5 5 2 54 13 17 19 17 98 99 72 83 68 3 2 5 5 5 1 100 10 3 4 0 0 5 0 18 0 100 100 88 84 5 17 100
1 5 6 0 1 4 3 7 80 100 50 4 4 62 5 58 94 96 71 98 88 44 29 5 36 86 65 77 55 32 5 2 0 0 5 5 84 0 100 95 6 20 9 3 4
99 99 28 5 7 28 100 100 95 69 6 1 3 2 56 87 68 40 19 5 72 88 86 77 50 39 5 56 100 74 49 50 0 0 0 8 1 6 100 97 86 69 100 10 5

GFSSW_prec_cloud_069.txt.gz
Cloud_Cover
0 0 0 0 0 0 8 19 8 8 6 5 2 1 14 0 0 0 0 0 0 0 0 0 0 0 2 18 17 88 13 50 100 100 100 100 100 100 100 100 99 94 2 5 5
0 0 0 0 0 0 7 5 11 0 0 6 2 5 25 0 0 0 0 0 0 0 0 0 0 0 0 0 86 69 4 98 100 100 100 100 100 100 75 93 100 90 36 5 5
0 0 0 0 0 0 4 4 0 0 5 14 10 3 8 0 0 0 0 0 0 0 0 0 0 0 0 0 18 100 14 22 84 94 92 100 100 100 56 100 100 99 99 11 5
0 0 0 0 0 0 0 0 0 0 33 17 6 2 0 0 0 0 0 0 0 0 0 0 0 0 0 0 1 4 71 100 100 88 98 100 100 100 100 100 96 77 100 13 5
0 0 0 0 0 0 0 0 0 0 39 7 0 1 16 0 0 0 0 0 0 0 0 0 0 0 0 0 0 5 100 88 100 100 31 97 100 100 100 100 100 58 54 9 5
0 0 0 0 0 0 0 0 0 0 1 0 0 3 0 0 0 0 0 0 0 0 0 0 0 0 0 0 0 4 95 96 100 96 54 37 99 100 100 100 100 81 5 54 5
0 0 0 0 0 0 0 0 0 0 0 0 15 0 0 0 0 0 0 0 0 0 0 0 0 0 0 0 0 4 6 91 86 6 59 65 58 100 100 100 100 100 100 44 5
0 0 0 0 0 0 0 0 0 0 0 0 0 0 0 0 0 0 0 0 0 0 0 0 0 0 0 0 0 0 0 2 3 95 31 5 68 86 100 89 98 100 100 58 98
0 0 0 0 0 0 0 0 0 0 0 0 0 0 0 0 0 0 0 0 0 0 0 0 0 0 0 0 0 0 0 0 0 2 84 18 5 92 100 100 100 100 100 94 37
0 0 15 0 0 0 0 0 0 0 0 0 0 0 0 0 0 0 0 0 0 0 0 0 0 0 0 0 0 0 0 0 0 2 88 98 20 22 45 82 100 100 22 13 87
0 0 0 0 0 0 2 0 0 0 0 0 0 0 0 0 0 0 0 0 0 0 0 0 0 0 0 0 0 0 0 0 0 0 2 80 31 5 19 100 100 100 90 98 93
0 0 0 0 0 0 15 0 0 0 0 0 0 0 0 0 0 0 0 0 0 0 0 0 0 0 0 0 0 0 0 0 0 0 53 5 4 0 69 100 58 100 100 99 100
0 0 0 0 2 0 0 0 0 0 0 0 0 0 0 0 0 0 0 0 0 0 0 0 0 0 0 0 0 0 0 0 0 0 4 30 63 5 27 99 90 100 100 95 100
0 0 0 13 0 0 0 0 0 0 0 0 0 0 0 0 0 0 0 0 0 0 0 0 0 0 0 0 0 0 0 0 0 0 0 9 100 65 10 11 43 81 100 100 100
0 0 0 31 0 0 0 0 2 3 26 0 0 0 0 0 0 0 0 0 0 0 0 0 0 0 0 0 0 0 0 0 0 0 0 1 4 5 13 5 97 100 100 100 89
0 0 9 0 0 0 0 0 0 5 24 1 5 2 0 0 0 0 0 0 0 0 0 0 0 0 0 0 0 0 0 0 0 0 0 0 0 55 0 2 96 100 100 100 84
0 0 51 1 0 0 0 0 2 53 3 0 0 5 5 4 0 0 0 0 0 0 0 0 0 0 0 0 0 0 0 0 0 0 0 0 0 0 0 0 61 100 100 100 100
0 0 0 10 5 2 1 0 28 6 72 5 0 0 5 5 5 3 0 0 0 0 0 0 0 0 0 0 0 0 0 0 0 0 0 0 0 0 0 0 0 100 100 100 100
0 0 0 0 0 0 2 50 98 23 41 99 5 0 0 0 0 3 5 5 2 0 0 0 0 0 0 0 0 0 0 0 0 0 0 0 0 0 0 0 0 62 100 100 100
0 0 0 0 0 1 4 100 36 4 0 4 91 76 31 28 5 3 1 2 0 0 0 0 0 0 0 0 0 0 0 0 0 0 0 0 0 0 0 0 2 0 56 100 100
0 0 0 0 0 1 50 61 5 13 5 5 4 62 78 5 5 14 95 2 0 0 0 0 0 0 0 0 0 0 0 5 3 0 0 0 0 0 48 0 99 6 97 100 100
0 0 0 0 1 86 5 1 4 0 0 0 1 5 0 17 44 5 5 0 0 0 0 0 0 2 0 0 0 0 0 0 5 0 0 0 0 0 0 72 12 2 100 100 100
0 5 0 0 8 21 8 4 0 0 0 0 0 0 0 0 0 0 0 0 0 0 0 0 0 0 0 0 0 0 0 4 1 0 0 4 0 0 7 99 90 4 16 20 100
0 4 1 0 5 4 5 17 5 4 0 0 0 0 0 0 0 0 0 0 2 0 0 0 0 0 0 0 0 0 0 0 0 0 0 4 0 0 5 100 99 99 5 2 93
1 1 0 1 1 0 5 5 16 5 4 0 2 0 0 0 0 0 4 4 0 2 4 3 0 0 0 0 1 0 0 0 0 0 0 0 0 0 18 100 100 100 100 22 11
3 6 48 6 5 5 3 0 5 4 12 99 58 6 0 2 56 5 3 5 3 3 5 32 7 3 0 0 0 4 0 0 0 0 0 0 0 26 0 12 25 100 100 22 5
0 0 2 75 77 7 26 73 98 100 72 72 51 8 4 5 4 0 0 0 2 5 1 20 9 5 4 2 5 0 3 0 0 0 0 0 0 93 1 1 23 32 99 96 10

GFSSW_prec_cloud_072.txt.gz
Cloud_Cover
0 0 0 1 0 0 0 12 10 14 8 13 16 25 18 0 0 0 0 0 0 0 0 0 0 0 0 0 7 91 91 100 100 100 100 100 100 100 100 100 100 100 72 69 94
0 0 0 2 10 4 0 6 11 10 17 16 16 21 15 2 0 0 0 0 0 0 0 0 0 0 1 0 10 36 54 100 72 100 100 100 100 100 100 100 100 100 100 93 72
0 0 0 0 0 7 4 2 1 3 14 94 23 22 0 0 0 0 0 0 0 0 0 0 0 0 0 2 1 14 5 8 100 55 99 100 100 100 100 100 100 98 100 65 44
0 0 5 4 0 0 9 0 0 0 15 82 20 0 0 0 0 0 0 0 0 0 0 0 0 0 0 0 0 5 5 20 66 100 69 100 100 100 100 100 100 100 100 100 24
0 0 4 2 7 9 4 7 0 1 7 6 0 0 16 0 0 0 0 0 0 0 0 0 0 0 0 0 0 5 5 7 100 97 100 100 100 100 100 100 100 100 100 100 26
0 1 10 9 3 7 0 0 0 0 0 0 0 0 0 0 0 0 0 0 0 0 0 0 0 0 0 0 0 5 5 3 22 14 91 100 100 100 100 100 100 95 100 100 61
8 4 0 12 0 0 1 0 0 0 0 0 0 2 0 0 0 0 0 0 0 0 0 0 0 0 0 0 0 0 0 3 5 5 26 41 100 100 100 100 100 99 100 100 76
4 10 7 2 0 0 0 0 0 0 0 0 1 3 0 0 0 0 0 0 0 0 0 0 0 0 0 0 0 0 0 0 5 5 5 9 38 100 100 100 100 100 100 100 27
0 1 0 0 0 0 0 0 0 0 0 0 0 0 0 0 0 0 0 0 0 0 0 0 0 0 0 0 0 0 0 0 5 11 2 3 72 91 99 100 100 100 100 100 96
0 0 0 0 0 0 0 0 0 0 0 0 0 0 0 0 0 0 0 0 0 0 0 0 0 0 0 0 0 0 0 0 0 78 98 57 2 5 37 97 99 100 84 92 100
0 0 0 0 0 0 28 0 0 0 0 0 0 0 0 0 0 0 0 0 0 0 0 0 0 0 0 0 0 0 0 0 0 12 56 21 15 9 74 30 35 100 100 84 84
0 0 0 0 0 5 56 0 0 0 0 0 0 0 0 0 0 0 0 0 0 0 0 0 0 0 0 0 0 0 0 0 0 0 1 4 67 68 57 30 70 62 91 82 100
0 0 0 3 5 0 0 0 0 0 0 0 0 0 0 0 0 0 0 0 0 0 0 0 0 0 0 0 0 0 0 0 0 0 0 0 94 84 78 37 4 81 100 100 100
0 0 0 50 0 0 0 0 0 4 5 1 0 0 0 0 0 0 0 0 0 0 0 0 0 0 0 0 0 0 0 0 0 0 0 0 5 72 53 16 13 76 100 100 100
0 0 0 2 0 0 0 0 0 0 94 22 2 0 0 0 0 0 0 0 0 0 0 0 0 0 0 0 0 0 0 0 0 0 0 0 0 55 22 5 18 100 98 100 100
0 0 29 5 1 0 0 0 0 0 11 100 100 27 5 0 0 0 0 0 0 0 0 0 0 0 0 0 0 0 0 0 0 0 0 0 0 0 0 2 39 24 100 100 100
0 0 54 0 6 5 2 0 0 0 0 1 77 100 49 4 0 0 0 0 0 0 0 0 0 0 0 0 0 0 0 0 0 0 0 0 0 0 0 0 0 1 55 81 100
0 0 0 0 0 93 74 16 1 0 2 2 0 10 86 87 15 4 4 0 0 0 0 0 0 0 0 0 0 0 0 0 0 0 0 0 0 0 0 0 0 0 30 100 94
0 0 0 0 0 1 16 100 7 12 47 5 5 0 2 4 58 100 6 0 0 0 0 0 0 0 0 0 0 0 0 0 0 0 0 0 0 0 0 0 0 0 0 68 100
0 0 0 0 0 0 2 40 72 85 10 81 17 20 5 5 0 5 20 2 0 0 0 0 0 0 0 0 0 0 0 0 0 0 0 0 0 0 0 0 0 0 0 45 97
0 0 0 0 0 0 4 11 5 5 24 89 3 18 67 91 31 1 6 42 11 5 3 1 0 0 0 0 0 0 0 0 0 0 0 0 0 0 0 0 0 0 0 23 100
0 0 0 0 0 0 4 4 0 5 5 69 26 5 5 87 100 100 4 0 0 1 24 5 73 5 0 0 0 0 0 0 0 0 0 0 0 0 2 2 0 0 0 0 93
0 0 0 0 0 4 10 49 66 6 0 3 6 26 5 0 26 99 100 26 1 0 0 0 1 69 39 2 0 0 0 0 0 0 0 0 0 0 4 4 0 0 0 0 99
0 2 1 0 0 5 15 100 12 94 56 2 0 2 4 5 4 0 7 93 68 5 0 0 0 0 0 0 0 0 0 1 0 0 0 0 0 0 3 5 5 0 0 0 8
0 0 1 5 4 0 1 5 33 64 5 5 5 0 0 0 0 0 0 0 10 62 14 5 3 0 0 0 0 0 0 0 0 0 0 0 0 0 0 3 22 4 0 0 0
0 0 0 0 11 81 3 0 2 5 5 5 5 0 0 0 0 0 0 0 0 0 0 2 5 0 0 0 0 0 0 0 0 0 0 0 0 0 0 0 3 6 5 2 93
0 0 0 0 0 3 9 5 4 2 4 5 10 62 28 4 1 0 0 0 0 0 0 0 1 2 0 0 0 0 0 0 0 4 1 0 0 0 0 52 1 5 8 5 26

GFSSW_prec_cloud_075.txt.gz
Cloud_Cover
0 0 0 7 7 3 5 1 6 3 11 15 12 27 46 20 0 8 0 0 0 0 0 0 0 0 0 3 10 96 98 100 100 100 100 100 100 100 100 100 100 100 100 100 100
0 0 3 2 6 6 6 2 5 7 6 23 98 13 45 23 0 0 0 0 0 0 0 0 0 0 1 0 5 75 100 93 92 78 91 100 100 100 100 100 76 100 96 98 100
0 5 10 1 1 4 4 12 4 5 5 47 95 20 11 0 0 0 0 0 0 0 0 0 0 0 0 0 3 72 100 57 100 100 100 100 100 100 100 100 100 41 100 100 100
4 8 10 9 4 3 3 7 3 1 9 54 61 0 0 0 0 0 0 0 0 0 0 0 0 0 0 0 1 79 95 86 19 99 100 100 100 100 100 100 100 98 55 100 100
2 19 19 9 8 4 7 10 13 7 5 52 1 0 8 0 0 0 0 0 0 0 0 0 0 0 0 0 0 90 32 5 5 40 64 99 100 100 100 100 100 100 92 100 99
10 40 70 16 11 5 4 9 11 5 1 3 33 1 0 0 0 0 0 0 0 0 0 0 0 0 0 0 0 91 37 5 5 1 5 88 100 100 100 100 100 100 94 97 91
52 69 12 14 7 0 0 0 0 0 0 0 12 10 0 0 0 0 0 0 0 0 0 0 0 0 0 0 0 0 3 5 3 4 3 41 100 100 100 100 100 100 98 70 100
99 63 4 5 9 5 6 4 0 0 0 0 22 4 0 0 0 0 0 0 0 0 0 0 0 0 0 0 0 0 0 2 0 0 5 4 75 100 100 100 99 99 92 45 90
20 1 0 0 5 14 11 4 0 0 0 0 2 0 0 0 0 0 0 0 0 0 0 0 0 0 0 0 0 0 0 3 0 1 5 5 17 100 100 100 100 90 100 100 97
0 0 0 1 34 38 44 0 0 0 0 0 0 0 0 0 0 0 0 0 0 0 0 0 0 0 0 0 0 0 0 0 4 3 5 4 3 98 100 100 100 99 100 100 92
0 0 0 16 27 63 74 0 0 0 0 0 0 0 0 0 0 0 0 0 0 0 0 0 0 0 0 0 0 0 0 0 80 7 0 0 0 5 8 87 96 100 90 73 99
2 0 11 22 32 19 77 0 0 0 0 0 0 0 0 0 0 0 0 0 0 0 0 0 0 0 0 0 0 0 0 0 0 73 4 3 3 3 20 35 26 74 55 96 79
0 5 9 18 1 4 0 0 0 0 0 0 0 0 0 0 0 0 0 0 0 0 0 0 0 0 0 0 0 0 0 0 34 74 4 0 54 96 97 95 5 6 53 77 10
11 10 8 43 0 0 0 0 0 3 4 0 2 0 0 0 0 0 0 0 0 0 0 0 0 0 0 0 0 0 0 0 6 4 0 0 22 97 2 4 32 2 11 80 99
25 24 5 2 0 0 0 0 0 0 63 13 11 4 0 0 0 0 0 0 0 0 0 0 0 0 0 0 0 0 0 0 5 0 0 0 0 0 5 4 4 6 100 86 62
16 24 56 2 0 4 1 0 0 0 50 43 92 100 8 0 0 0 0 0 0 0 0 0 0 0 0 0 0 0 0 0 0 0 0 0 0 0 12 61 6 1 84 71 99
7 1 76 0 0 0 97 2 0 0 0 5 10 62 100 32 1 0 0 0 0 0 0 0 0 0 0 0 0 0 0 0 0 0 0 0 0 0 0 16 3 0 5 89 80
0 0 0 0 0 1 77 98 54 0 0 0 35 65 20 99 90 1 0 0 0 0 0 0 0 0 0 0 0 0 0 0 0 0 0 0 0 0 0 0 0 0 0 52 68
0 0 0 0 0 0 1 96 100 100 27 4 4 6 75 83 96 46 1 0 0 0 0 0 0 0 0 0 0 0 0 0 0 0 0 0 0 0 0 0 0 0 0 0 43
0 0 0 0 0 4 64 74 100 100 100 14 1 5 12 59 100 100 79 4 0 0 0 0 0 0 0 0 0 0 0 0 0 0 0 0 0 0 0 0 0 0 0 0 1
0 0 0 0 0 0 48 90 83 100 88 96 92 80 27 100 48 100 100 100 100 33 4 13 0 0 0 0 0 0 0 0 0 0 0 0 0 0 0 0 0 0 0 0 0
0 0 0 0 0 4 31 12 3 30 100 100 100 100 100 100 100 20 23 5 23 94 62 100 97 23 0 0 0 0 0 0 0 0 0 0 0 0 0 0 0 0 0 0 0
0 0 0 0 0 4 5 89 100 9 28 95 98 100 91 73 100 100 46 21 1 40 100 100 100 100 14 0 0 0 0 0 0 0 0 0 0 0 0 0 0 0 0 0 0
0 0 0 0 0 1 5 5 67 100 48 48 38 98 100 96 73 100 98 80 40 5 1 54 100 100 45 5 4 1 0 0 0 0 0 0 0 0 0 5 0 0 0 0 0
0 0 0 0 0 3 4 7 5 62 100 82 5 6 67 30 25 89 100 100 100 95 37 0 20 89 100 52 5 5 5 5 2 0 0 0 0 0 24 75 5 0 0 27 84
0 0 0 0 0 1 5 2 3 4 5 5 13 5 0 3 5 5 7 99 100 100 100 63 5 5 70 49 5 5 5 5 0 0 0 0 0 0 0 16 0 4 1 14 94
0 0 0 0 0 0 0 1 4 1 0 2 5 4 0 0 0 0 0 4 5 4 88 100 100 62 5 5 5 5 0 0 0 0 0 0 0 0 0 0 2 0 0 0 0

GFSSW_prec_cloud_078.txt.gz
Cloud_Cover
0 0 0 6 5 5 9 6 7 10 10 5 20 100 41 82 24 34 0 0 0 0 0 0 1 1 0 0 81 98 58 90 100 100 100 100 100 100 100 100 100 100 54 75 100
4 2 24 27 3 8 8 8 10 2 12 15 16 89 100 100 9 0 0 0 0 0 0 0 0 0 19 3 34 84 100 31 51 100 100 100 100 100 100 100 100 94 49 57 100
5 35 29 4 6 2 5 13 6 4 13 21 80 64 3 22 0 0 0 0 0 0 0 0 0 0 0 0 7 96 17 84 96 97 88 100 100 100 100 100 100 100 59 81 98
0 40 78 0 7 4 2 8 11 5 11 44 82 0 0 0 0 0 0 0 0 0 0 0 0 0 0 0 2 58 100 100 100 98 96 100 100 100 100 100 100 100 100 84 95
30 100 59 7 9 6 7 5 17 12 5 53 86 0 2 0 0 0 0 0 0 0 0 0 0 0 0 0 0 50 5 58 82 58 63 91 100 100 100 100 100 100 100 47 96
100 98 22 14 5 5 7 10 12 21 8 18 88 0 0 0 0 0 0 0 0 0 0 0 0 0 0 0 0 5 21 5 39 55 83 62 100 100 100 100 100 100 100 30 32
99 11 8 16 9 14 10 12 7 18 14 0 84 6 0 0 0 0 0 0 0 0 0 0 0 0 0 0 0 0 0 5 31 51 9 7 72 100 100 100 100 56 96 39 82
97 62 16 27 22 31 26 59 15 12 18 0 82 2 0 0 0 0 0 0 0 0 0 0 0 0 0 0 0 0 0 54 5 5 5 18 98 100 100 100 100 97 100 100 45
71 14 14 29 95 100 100 40 15 5 0 13 28 0 0 0 0 0 0 0 0 0 0 0 0 0 0 0 0 0 10 40 5 5 0 5 5 95 100 100 100 100 100 96 58
100 5 13 51 100 100 66 0 0 0 0 0 0 0 0 0 0 0 0 0 0 0 0 0 0 0 0 0 0 0 1 5 3 2 0 3 9 5 83 100 100 100 94 54 13
9 59 53 100 100 100 28 0 0 0 0 0 0 0 0 0 0 0 0 0 0 0 0 0 0 0 0 0 0 0 0 16 6 3 0 0 5 5 66 11 100 100 100 32 19
100 93 100 100 42 69 22 0 0 0 0 0 0 0 0 0 0 0 0 0 0 0 0 0 0 0 0 0 0 0 0 10 21 5 0 0 8 0 30 4 91 100 100 76 98
74 100 100 96 15 7 0 0 0 0 1 0 0 0 0 0 0 0 0 0 0 0 0 0 0 0 0 0 0 0 0 7 68 6 2 0 48 60 85 0 31 36 68 97 33
98 100 100 100 0 0 0 0 0 0 5 4 0 2 5 0 0 0 0 0 0 0 0 0 0 0 0 0 0 0 0 0 47 5 0 0 0 1 58 100 35 5 71 37 5
100 99 98 94 2 0 1 2 0 0 8 45 18 5 2 0 0 0 0 0 0 0 0 0 0 0 0 0 0 0 0 0 0 5 0 0 0 0 0 3 5 49 98 100 74
100 74 99 10 1 0 27 5 2 0 12 44 37 24 5 5 0 0 0 0 0 0 0 0 0 0 0 0 0 0 0 0 0 5 5 0 0 0 50 38 5 7 5 95 94
98 48 81 0 0 0 2 95 5 2 0 5 90 63 6 48 5 0 0 0 0 0 0 0 0 0 0 0 0 0 0 0 0 1 0 0 0 0 0 1 0 5 5 7 100
21 0 3 0 0 0 0 88 99 5 0 3 6 100 97 99 97 5 0 0 0 0 0 0 0 0 0 0 0 0 0 0 0 0 0 0 0 0 0 5 5 0 0 1 51
0 0 0 0 0 0 0 44 100 97 34 12 48 100 100 100 100 100 51 1 0 0 0 0 0 0 0 0 0 0 0 0 0 0 0 0 0 0 0 0 4 0 0 0 100
0 0 0 0 0 2 1 31 100 100 100 100 90 100 100 100 100 100 100 97 11 1 0 0 0 0 0 0 0 0 0 0 0 0 0 0 0 0 0 0 0 0 0 0 88
0 0 0 0 0 5 37 11 89 100 100 100 100 100 78 69 100 100 100 100 100 98 27 0 0 0 0 0 0 0 0 0 0 0 0 0 0 0 0 0 0 39 37 22 3
0 0 0 0 0 0 0 5 12 100 100 100 100 89 40 36 10 98 100 100 100 100 100 100 64 0 0 0 0 0 0 0 0 0 0 0 0 0 0 0 68 100 94 54 0
0 0 0 0 0 0 5 11 1 13 100 100 100 100 90 9 3 8 84 100 100 100 100 100 59 5 0 0 0 0 0 0 0 0 0 0 0 0 0 0 42 100 100 54 65
0 0 0 0 0 0 0 80 90 3 45 100 100 100 100 100 51 57 100 100 99 99 100 100 100 54 5 2 0 0 0 0 0 0 0 0 0 0 0 14 3 38 100 100 87
0 0 0 0 0 0 0 0 5 61 51 10 100 100 100 100 100 100 100 100 100 99 94 92 100 100 91 9 5 4 0 0 0 0 0 0 0 0 0 14 8 4 21 66 99
0 0 0 0 0 0 0 2 0 5 5 53 43 51 100 100 100 100 83 100 100 100 100 100 100 100 100 89 93 35 5 5 0 0 0 0 0 0 0 0 0 0 0 86 62
0 0 0 0 0 0 0 0 1 2 2 4 5 5 5 26 99 100 100 81 44 100 100 100 100 100 39 5 13 6 5 5 5 5 3 0 0 0 0 0 0 0 0 0 0

GFSSW_prec_cloud_081.txt.gz
Cloud_Cover
7 6 3 11 12 10 6 52 29 8 2 15 20 18 13 56 54 18 0 0 0 0 0 2 0 0 0 4 81 58 100 93 90 95 89 100 100 100 100 100 100 100 100 56 11
1 6 11 13 9 9 10 11 8 9 8 17 93 83 0 100 2 0 0 0 0 0 0 5 2 0 2 16 97 59 68 49 18 100 96 100 100 100 100 100 100 100 89 82 27
4 2 54 12 12 14 6 5 16 13 10 14 78 63 0 67 0 0 0 0 0 0 0 0 0 0 5 0 26 36 38 27 55 100 84 96 100 100 100 100 100 100 100 96 16
100 100 98 3 6 5 1 3 11 22 12 10 100 2 0 0 0 0 0 0 0 0 0 0 0 0 0 0 44 43 6 5 7 62 67 68 100 100 100 100 100 100 95 11 27
100 32 14 11 13 7 8 15 15 13 23 4 96 14 0 0 0 0 0 0 0 0 0 0 0 0 0 0 12 11 5 49 5 42 60 97 84 98 100 100 100 100 30 61 5
41 13 24 100 98 16 41 62 9 18 17 32 52 2 0 0 0 0 0 0 0 0 0 0 0 0 0 0 1 29 4 26 30 75 71 100 98 99 100 100 100 68 10 30 36
44 15 87 100 100 100 100 100 27 6 26 30 19 16 0 0 0 0 0 0 0 0 0 0 0 0 0 0 0 24 5 5 46 51 56 100 100 100 100 100 100 100 19 18 5
66 72 100 100 100 100 100 100 63 44 26 1 83 5 0 0 0 0 0 0 0 0 0 0 0 0 0 0 0 1 12 93 5 19 100 100 100 100 100 100 100 100 38 13 5
22 53 100 100 100 100 100 28 3 1 2 48 4 0 0 0 0 0 0 0 0 0 0 0 0 0 0 0 0 0 29 22 29 10 14 100 100 100 100 100 100 100 100 96 10
1 49 100 100 100 100 39 25 12 0 7 9 0 0 0 0 0 0 0 0 0 0 0 0 0 0 0 0 0 0 21 2 7 4 5 4 11 31 100 100 100 100 100 18 39
3 83 100 100 100 100 12 0 0 0 0 0 0 0 0 0 0 0 0 0 0 0 0 0 0 0 0 0 0 0 31 78 24 5 5 5 5 5 75 100 100 100 100 92 8
31 100 100 100 100 87 3 0 0 0 0 0 0 0 0 0 0 0 0 0 0 0 0 0 0 0 0 0 0 0 3 46 12 5 5 2 5 5 27 100 99 100 100 57 46
100 100 100 100 42 6 0 0 0 0 0 0 0 0 0 0 0 0 0 0 0 0 0 0 0 0 0 0 0 0 0 1 4 5 5 0 3 13 72 28 58 61 100 37 14
100 100 100 100 0 0 0 0 0 0 5 5 2 2 0 0 0 0 0 0 0 0 0 0 0 0 0 0 0 0 0 3 5 5 2 0 0 2 98 99 33 75 79 89 17
100 100 100 95 0 0 0 0 2 6 13 30 48 4 0 0 0 0 0 0 0 0 0 0 0 0 0 0 0 0 0 0 4 5 5 0 0 0 55 99 17 75 91 100 77
100 100 99 11 0 0 0 0 17 60 42 32 28 5 4 0 1 0 0 0 0 0 0 0 0 0 0 0 0 0 0 0 2 3 3 0 0 0 0 0 0 5 5 22 99
98 60 57 0 0 0 0 0 29 100 0 14 95 99 100 13 0 44 0 0 0 0 0 0 0 0 0 0 0 0 0 0 2 0 0 0 0 0 0 0 11 5 5 5 31
70 1 1 0 0 0 0 0 89 100 93 3 96 100 100 87 17 4 38 0 0 0 0 0 0 0 0 0 0 0 0 0 0 0 0 0 0 0 0 0 5 4 1 5 5
0 0 0 0 0 0 0 1 96 100 100 29 87 100 100 100 98 60 76 16 0 0 0 0 0 0 0 0 0 0 0 0 0 0 0 0 0 0 0 0 3 5 2 3 2
0 0 0 0 0 0 0 4 65 100 100 100 100 100 80 100 100 100 100 100 27 0 0 0 0 0 0 0 0 0 0 0 0 0 0 0 0 0 0 0 8 97 100 100 2
0 0 0 0 0 1 2 86 100 100 100 100 100 100 75 48 100 100 100 100 100 69 2 0 0 0 0 0 0 0 0 0 0 0 0 0 0 0 3 93 100 100 100 100 61
0 0 0 0 0 0 0 45 6 100 100 100 100 98 75 70 100 100 100 100 100 100 90 4 0 0 0 0 0 0 0 0 0 0 0 0 0 0 12 100 100 100 100 100 100
0 0 0 0 0 0 0 0 100 51 100 100 100 100 68 14 18 39 97 100 100 100 100 79 5 4 0 0 0 0 0 0 0 0 0 0 0 0 6 21 98 76 92 100 100
0 0 0 0 0 0 0 3 2 100 95 100 100 100 100 68 8 5 98 100 100 100 100 98 84 19 0 0 0 0 0 0 0 0 0 0 0 0 0 6 0 36 72 76 99
0 0 0 0 0 0 0 0 4 0 80 88 100 100 100 94 68 48 5 96 100 100 66 100 82 50 5 12 4 0 0 0 0 0 0 0 0 0 20 40 27 46 29 3 3
0 0 0 0 0 0 0 0 0 0 2 4 100 100 100 100 100 100 100 4 37 100 100 99 100 100 99 88 100 74 6 0 0 0 0 0 0 0 18 44 10 13 10 2 0
0 0 0 0 0 0 0 0 0 0 0 5 2 45 100 100 100 100 100 90 5 11 70 100 100 100 100 97 93 59 49 5 5 3 0 0 0 0 0 0 0 0 0 26 37

GFSSW_prec_cloud_084.txt.gz
Cloud_Cover
12 13 12 10 11 14 15 6 14 13 0 4 16 33 1 0 6 0 0 0 0 0 0 0 0 0 0 10 24 36 60 100 100 99 88 68 100 100 100 100 100 77 85 98 6
15 8 80 76 10 4 12 15 14 8 12 10 1 81 3 0 0 0 0 0 0 0 0 5 0 0 0 23 58 91 73 100 100 92 95 52 100 100 100 100 100 100 100 9 2
100 99 62 18 12 9 9 19 7 12 5 21 4 89 0 12 0 0 0 0 0 0 0 3 5 0 0 7 74 22 66 99 76 50 100 79 100 100 100 100 100 100 100 4 0
99 3 22 14 10 4 8 10 43 8 13 4 21 0 0 0 0 0 0 0 0 0 0 0 5 5 4 0 81 40 10 33 36 48 100 100 87 100 100 100 99 100 100 4 0
14 13 84 97 99 100 21 43 77 95 3 16 4 2 13 0 0 0 0 0 0 0 0 0 0 0 0 0 39 52 15 5 5 26 56 47 100 100 93 100 100 100 100 11 0
55 37 100 53 100 100 100 100 100 62 12 15 0 9 0 0 0 0 0 0 0 0 0 0 0 0 0 0 68 18 18 8 5 25 100 92 70 99 100 100 100 100 16 3 0
98 100 100 100 100 100 100 100 86 75 19 7 0 4 0 0 0 0 0 0 0 0 0 0 0 0 0 0 0 0 4 10 5 38 75 15 98 68 100 100 100 99 8 0 4
100 100 100 100 100 100 100 99 93 100 69 4 2 0 0 0 0 0 0 0 0 0 0 0 0 0 0 0 0 1 2 14 25 25 5 33 79 100 100 100 100 100 27 15 5
6 100 100 100 100 97 59 100 18 7 11 7 2 0 0 0 0 0 0 0 0 0 0 0 0 0 0 0 0 0 50 50 5 18 26 31 38 100 100 100 100 100 94 60 21
56 100 100 100 100 100 0 10 30 22 8 0 0 0 0 0 0 0 0 0 0 0 0 0 0 0 0 0 0 2 86 61 40 2 5 16 5 99 100 100 100 100 100 96 88
100 100 100 100 100 70 16 3 67 90 5 1 0 0 0 0 0 0 0 0 0 0 0 0 0 0 0 0 26 5 73 40 100 5 5 5 5 80 100 100 90 100 99 82 8
100 100 100 100 70 37 16 42 79 8 4 0 0 0 0 0 0 0 0 0 0 0 0 0 0 0 0 0 0 0 3 2 11 3 5 4 74 31 100 100 100 100 100 98 17
100 100 100 76 87 50 77 37 5 4 0 0 0 0 0 0 0 0 0 0 0 0 0 0 0 0 0 0 0 0 3 2 4 2 5 3 55 85 49 100 94 100 95 100 78
100 100 100 1 45 0 0 0 0 0 0 4 4 1 0 0 0 0 0 0 0 0 0 0 0 0 0 0 0 0 6 4 2 0 14 1 77 15 64 100 100 89 100 100 100
100 100 100 58 0 0 0 0 0 0 63 56 98 2 1 0 0 0 0 0 0 0 0 0 0 0 0 0 0 24 0 0 5 0 0 0 85 17 88 100 99 100 99 99 91
100 100 64 28 0 0 0 0 0 38 40 100 100 68 9 3 0 0 1 0 0 0 0 0 0 0 0 0 0 0 0 2 5 0 0 3 27 0 9 56 20 76 58 41 86
93 34 47 0 0 0 0 0 17 100 80 94 88 98 100 5 1 0 5 0 1 1 1 0 0 0 0 0 0 0 0 0 2 0 0 1 4 19 1 0 1 4 6 31 76
40 19 0 0 0 0 0 0 88 96 100 98 100 100 96 63 5 5 5 5 0 0 5 0 0 0 0 0 0 0 0 0 2 0 1 0 4 0 0 0 10 10 2 53 9
38 0 0 0 0 0 0 4 8 100 100 53 100 100 100 100 99 35 5 12 3 0 59 39 0 0 0 0 0 0 0 2 2 3 4 0 0 0 0 0 1 85 98 15 67
0 0 0 0 0 0 2 3 71 100 100 100 100 100 100 100 100 100 99 82 80 5 0 0 0 0 0 0 0 0 0 0 0 0 1 0 0 0 0 0 48 100 100 99 14
0 0 0 0 0 4 8 17 65 100 100 100 100 100 100 100 99 98 100 100 100 98 3 0 0 0 0 0 0 0 0 0 0 0 0 3 2 0 0 37 100 100 100 100 100
0 0 0 0 0 0 0 1 4 100 100 100 100 100 96 100 100 100 99 100 100 100 99 2 2 2 0 0 0 0 0 0 0 0 0 4 2 0 0 9 58 100 100 100 100
0 0 0 0 0 0 0 5 0 89 100 100 100 100 99 100 98 98 74 92 100 100 98 35 1 0 0 0 0 0 0 0 0 0 2 0 1 0 8 5 66 99 100 100 100
0 0 0 0 0 0 0 1 76 12 98 100 100 100 90 8 29 91 99 17 10 94 100 100 88 3 44 0 0 0 0 0 0 1 25 14 0 4 28 11 51 100 100 100 100
0 0 0 0 0 0 0 0 0 79 32 100 100 100 100 100 91 5 9 95 5 5 96 99 100 100 19 0 0 0 0 0 0 0 7 48 0 0 23 0 9 56 100 98 90
0 0 0 0 0 0 0 0 0 0 7 94 76 100 100 100 100 100 53 4 2 4 5 53 98 98 84 84 8 4 0 0 0 0 0 0 0 11 0 0 0 13 39 58 79
0 0 0 0 0 0 0 0 0 0 0 0 6 100 100 100 100 100 100 48 5 2 24 5 42 100 99 100 100 89 10 2 0 0 0 1 0 0 0 0 0 0 0 5 34

GFSSW_prec_cloud_087.txt.gz
Cloud_Cover
44 26 22 13 12 8 4 5 16 22 24 6 19 0 0 1 0 0 0 0 0 0 4 0 0 0 0 56 49 100 82 66 100 100 93 96 99 100 100 100 100 57 100 2 4
9 58 16 17 19 18 13 7 9 16 20 18 1 3 0 0 0 0 0 0 0 0 0 0 0 0 0 78 79 49 42 75 100 100 68 93 99 100 100 100 100 100 85 1 5
99 15 14 21 15 18 15 11 12 10 13 20 0 0 0 2 0 0 0 0 0 0 0 0 0 0 0 85 38 95 100 100 100 100 99 88 89 100 100 100 94 23 97 69 3
30 6 5 17 56 38 47 16 19 9 19 16 10 0 1 0 0 0 0 0 0 0 0 2 0 0 0 24 20 79 90 97 93 100 99 100 88 100 100 100 100 87 100 30 5
92 18 67 100 98 100 100 100 100 100 39 13 6 0 2 0 0 0 0 0 0 0 0 0 5 4 0 25 96 100 87 16 23 90 100 87 87 99 100 100 98 89 100 84 16
100 100 100 100 100 100 100 100 100 52 2 14 0 0 0 0 0 0 0 0 0 0 0 0 0 2 1 0 20 96 100 16 4 47 46 100 93 95 89 98 100 50 100 100 9
100 100 100 100 100 100 100 100 31 26 3 7 0 1 0 0 0 0 0 0 0 0 0 0 0 0 0 0 41 25 28 9 5 5 70 75 89 100 100 100 100 100 100 96 5
76 100 100 100 100 100 100 58 62 85 41 0 13 0 0 0 0 0 0 0 0 0 0 0 0 0 0 0 0 5 22 100 6 9 4 99 76 48 100 100 100 100 100 4 22
100 100 100 100 78 100 42 0 21 0 0 2 5 0 0 0 0 0 0 0 0 0 0 0 0 0 0 0 0 0 62 58 99 69 5 89 79 100 82 100 100 100 98 52 74
100 100 99 97 100 84 0 10 52 12 0 0 0 0 0 0 0 0 0 0 0 0 0 0 0 0 0 0 1 5 50 91 26 85 21 100 26 81 100 100 100 100 100 100 100
100 86 79 90 100 32 31 0 1 5 0 0 0 0 0 0 0 0 0 0 0 0 0 0 0 0 0 0 4 80 48 65 50 54 80 100 1 72 93 100 100 100 100 100 100
99 100 6 46 25 1 8 4 1 9 1 0 0 0 1 0 0 0 0 0 0 0 0 0 0 0 0 0 52 4 99 100 23 15 93 76 96 63 73 100 100 100 100 100 100
91 57 4 18 13 33 0 27 35 100 100 5 29 53 72 9 2 0 0 0 0 0 0 0 0 0 0 0 0 5 99 96 17 1 12 29 100 4 19 96 100 100 100 100 100
100 89 22 1 45 0 0 55 36 90 100 76 5 8 38 5 2 0 0 0 0 0 0 0 0 0 0 0 0 5 11 58 60 6 28 22 87 95 4 27 75 100 100 100 100
100 78 24 80 0 0 0 0 0 22 65 21 5 29 5 0 0 0 0 0 0 0 0 0 0 0 0 1 0 5 67 96 5 5 100 48 57 100 97 24 45 100 100 100 100
98 91 43 0 0 0 0 0 0 0 97 5 2 15 2 5 12 1 0 2 65 5 0 1 0 0 0 3 0 10 80 8 4 5 31 44 64 100 35 9 24 57 99 100 100
2 0 49 0 0 0 0 0 17 99 98 46 27 100 100 90 50 0 0 0 4 16 2 1 0 0 0 4 2 93 8 5 10 5 10 5 71 41 56 34 95 76 100 99 100
0 34 0 0 0 0 0 5 100 100 72 74 83 100 100 100 91 5 5 4 11 96 5 5 0 0 5 55 12 5 5 4 4 5 6 99 94 4 20 31 99 99 100 22 69
39 0 0 0 0 0 0 100 100 26 43 100 100 96 100 100 100 100 89 100 28 16 96 17 80 0 0 68 17 14 4 11 82 19 74 52 3 25 9 4 59 100 59 14 5
0 1 2 0 0 0 68 37 1 100 100 100 100 100 100 100 100 100 100 54 18 100 76 100 59 0 0 0 2 3 3 64 5 100 100 85 2 2 7 12 99 100 100 82 5
0 9 0 0 0 2 100 19 44 100 100 98 100 100 100 100 100 100 100 12 100 100 100 59 65 1 0 0 0 0 0 30 80 90 100 100 84 3 2 37 100 100 100 100 100
4 50 0 0 40 5 70 0 41 100 100 100 100 100 100 100 100 100 100 12 100 100 100 100 10 10 0 0 0 0 7 5 6 4 22 100 89 96 0 0 99 100 100 100 74
3 0 0 0 100 7 0 0 10 100 100 100 92 100 100 100 99 100 100 65 16 98 93 100 100 90 1 0 0 0 0 0 10 99 7 90 39 65 36 74 71 100 100 100 100
3 4 0 0 0 1 0 0 0 85 100 100 100 98 100 100 100 100 100 100 100 73 62 100 100 100 88 52 0 0 0 0 2 5 73 62 8 74 91 62 100 100 100 100 100
6 0 0 4 0 0 0 0 0 0 79 100 100 100 100 94 100 100 100 83 64 92 100 80 100 100 62 1 0 5 0 0 0 0 100 100 40 62 32 100 69 100 100 100 100
54 0 0 0 0 0 0 0 0 0 3 100 100 100 100 100 100 100 100 50 32 74 20 84 96 95 100 90 4 0 0 0 0 0 36 100 100 100 62 37 49 64 99 100 100
88 2 0 0 1 0 0 0 0 0 0 0 83 100 100 93 100 100 100 97 99 3 71 65 85 91 100 98 100 24 1 0 0 0 3 100 84 26 95 50 17 28 38 33 68

GFSSW_prec_cloud_090.txt.gz
Cloud_Cover
11 11 12 18 12 7 8 8 6 10 15 16 0 0 0 0 0 0 0 0 0 0 0 0 0 0 1 100 74 98 88 100 84 99 100 100 100 100 100 100 100 100 4 4 99
100 13 7 12 17 14 8 9 11 10 14 14 6 0 0 0 0 0 0 0 0 0 0 0 0 0 0 99 98 91 82 100 100 100 100 100 100 100 100 100 100 100 74 100 96
19 15 9 3 15 17 17 8 12 16 18 17 9 0 0 0 0 0 0 0 0 0 0 0 0 0 0 93 47 100 90 100 87 100 56 30 86 100 100 100 100 100 96 100 100
5 16 24 32 81 35 100 91 84 68 14 10 8 0 0 0 0 0 0 0 0 0 0 0 0 0 0 84 99 100 57 100 100 68 94 13 43 100 86 100 100 100 97 66 89
85 97 100 100 100 100 100 100 100 100 33 9 0 2 0 0 0 0 0 0 0 0 0 0 1 0 0 77 52 69 81 99 100 100 41 41 97 97 100 100 100 92 28 14 32
100 100 100 100 100 100 100 100 99 15 12 0 0 0 0 0 0 0 0 0 0 0 0 0 4 4 6 99 15 29 10 100 98 73 96 80 97 79 100 100 100 100 62 79 94
100 100 100 100 100 100 100 100 23 20 10 3 4 0 0 0 0 0 0 0 0 0 0 0 0 3 3 5 100 100 100 82 58 73 21 91 100 100 100 100 100 100 99 100 100
100 100 100 100 100 100 100 48 1 79 92 9 2 0 0 0 0 0 0 0 0 0 0 0 0 0 3 4 13 93 76 62 100 83 66 51 62 100 96 86 99 100 97 34 28
100 100 100 100 100 99 37 0 8 21 0 8 0 0 0 0 0 0 0 0 0 0 0 0 0 0 0 3 4 30 50 15 99 26 92 1 64 20 79 94 93 100 100 100 96
100 92 70 43 34 2 0 0 0 23 0 0 0 0 0 0 0 0 0 0 0 0 0 0 0 0 0 0 0 2 20 94 37 100 83 75 34 38 89 99 68 100 100 88 76
100 42 2 5 5 0 2 0 0 0 0 0 28 4 0 0 0 0 0 0 0 0 0 0 0 0 0 0 5 4 6 18 57 100 100 14 29 100 30 100 100 100 100 100 82
100 9 2 5 15 8 11 3 0 0 0 0 0 2 1 0 0 0 0 0 0 0 0 0 0 0 0 0 0 7 99 66 56 100 37 50 42 100 8 100 100 100 100 90 100
96 4 0 3 18 97 73 5 2 0 1 2 4 5 5 0 0 0 0 0 0 0 0 0 0 0 0 0 0 5 9 48 2 59 100 70 100 98 4 55 100 100 100 100 100
100 90 44 5 17 0 2 14 87 5 18 5 5 5 5 5 0 0 0 0 0 0 0 0 0 0 0 0 0 0 8 72 50 51 88 77 23 100 18 35 99 100 100 100 100
45 99 92 78 0 0 1 5 5 29 47 94 39 6 5 5 5 0 0 0 0 0 0 0 0 0 0 0 0 0 100 90 100 88 100 99 2 74 96 47 74 85 100 100 100
0 1 43 12 0 0 0 0 0 0 60 72 100 100 100 6 9 8 2 0 0 0 0 0 0 0 0 0 4 0 30 42 74 100 1 82 61 73 83 100 100 7 31 100 100
2 4 36 0 0 0 0 0 2 30 43 94 80 42 100 100 88 79 34 73 38 32 1 0 1 0 0 0 1 5 2 91 88 5 5 36 100 97 98 100 100 100 19 68 99
0 78 1 0 0 0 0 12 100 97 79 97 89 15 88 100 100 36 7 5 5 5 76 0 9 2 0 0 4 5 4 30 38 5 4 94 100 9 99 100 100 100 30 86 100
26 2 0 0 0 0 0 100 100 100 100 42 33 5 99 100 100 96 5 14 7 82 95 64 59 2 5 24 80 6 5 44 100 29 95 79 4 9 100 100 100 100 100 99 100
5 3 1 0 0 0 89 99 97 99 73 8 95 67 100 94 100 100 50 54 89 19 5 100 76 52 0 2 3 78 8 0 29 100 100 93 4 15 94 100 100 100 98 87 89
5 27 3 0 0 60 100 100 59 33 89 83 88 96 99 95 100 100 100 85 98 19 77 100 25 57 0 0 1 3 0 1 81 100 100 100 100 100 85 55 99 68 67 100 100
5 48 6 0 15 95 100 88 4 96 100 95 100 100 100 100 92 100 100 94 26 2 14 100 57 78 0 0 0 89 21 0 5 9 100 45 91 100 32 96 100 100 98 100 100
100 5 5 0 94 82 3 0 7 96 100 100 100 100 100 100 100 100 100 72 58 48 90 33 20 100 21 0 0 0 0 3 80 53 100 100 100 98 100 43 100 100 100 100 100
97 100 31 0 17 50 2 2 11 96 91 100 100 100 100 100 100 100 100 27 31 4 72 95 100 97 100 100 22 0 0 0 48 47 94 100 9 8 100 49 97 100 100 100 100
100 84 60 10 0 1 0 1 2 54 100 22 98 100 100 100 100 98 94 100 79 9 2 100 100 100 63 56 6 4 0 2 0 1 100 100 50 3 5 22 99 100 100 100 100
100 100 96 0 0 4 0 0 4 0 96 100 60 100 100 100 100 100 100 83 100 56 13 52 100 34 100 52 2 4 60 0 0 0 99 4 100 100 34 3 76 89 41 81 71
100 100 97 0 6 4 0 0 0 0 0 51 100 76 100 100 100 100 100 99 100 100 100 100 97 72 95 100 100 20 4 0 0 0 99 1 69 100 100 33 61 88 51 42 26

GFSSW_prec_cloud_093.txt.gz
Cloud_Cover
100 22 10 9 14 15 14 10 15 9 11 12 19 1 0 0 0 0 0 0 0 0 0 0 0 0 0 14 100 100 100 100 100 100 99 80 99 100 100 100 100 100 100 100 33
52 48 11 34 17 17 23 22 11 14 17 11 20 15 0 0 0 0 0 0 0 0 0 0 0 0 0 31 100 100 100 93 100 90 100 90 61 100 100 100 100 100 100 100 100
50 40 6 100 93 73 68 94 91 73 30 25 20 21 0 0 0 0 0 0 0 0 0 0 0 0 0 24 100 100 100 100 100 62 99 87 72 77 99 91 92 95 100 99 100
100 100 100 100 100 100 100 100 100 99 79 21 21 20 0 0 0 0 0 0 0 0 0 0 0 0 0 23 100 100 100 100 48 6 40 43 26 70 91 100 95 98 90 48 6
100 100 100 100 100 100 100 100 100 100 31 24 21 12 0 0 0 0 0 0 0 0 0 0 0 0 0 12 100 100 100 100 83 99 77 13 5 62 91 100 100 100 79 63 100
100 100 100 100 100 100 100 100 100 100 32 24 20 10 0 0 0 0 0 0 0 0 0 0 3 2 0 52 95 100 82 86 52 47 100 37 18 100 100 100 100 100 82 4 93
100 100 100 100 100 100 100 100 95 20 94 49 10 0 0 0 0 0 0 0 0 0 0 0 4 3 0 55 32 76 100 57 100 41 8 88 93 67 100 91 100 100 100 86 100
100 100 100 100 100 100 100 82 19 92 100 100 13 0 0 0 0 0 0 0 0 0 0 0 0 2 0 4 4 100 20 46 100 98 11 61 93 90 44 100 100 100 100 100 63
100 100 100 100 56 7 0 0 0 44 37 14 1 0 0 0 0 0 0 0 0 0 0 0 0 0 0 0 4 5 92 49 9 30 64 28 100 88 36 48 80 100 100 28 100
100 100 99 1 0 0 0 0 0 0 0 0 0 0 0 0 0 0 0 0 0 0 0 0 0 0 0 0 0 0 6 62 52 99 12 12 42 34 61 96 82 74 76 90 100
100 100 7 0 0 0 2 0 0 0 0 0 0 0 0 0 0 0 0 0 0 0 0 0 0 0 0 0 5 5 6 6 100 54 93 100 68 18 4 68 97 19 100 100 100
100 100 59 0 0 3 30 4 0 0 0 0 0 0 0 0 0 0 0 0 0 0 0 0 0 0 0 0 0 5 76 100 93 27 97 100 100 28 7 44 86 82 74 86 19
100 100 100 7 9 38 2 5 5 1 0 0 0 0 0 4 3 0 0 0 0 0 0 0 0 0 0 0 0 3 54 76 69 89 100 100 79 99 17 100 100 100 98 99 100
82 3 63 71 10 0 2 5 1 5 5 1 0 0 4 5 9 9 2 0 0 0 0 0 0 0 0 0 0 5 40 87 91 46 100 97 99 100 88 24 73 100 100 73 100
50 16 3 79 0 0 0 1 67 10 55 2 0 5 0 4 7 40 100 5 0 0 0 0 0 0 0 0 0 0 21 97 57 35 80 92 100 100 100 100 52 48 100 100 100
28 21 46 2 3 0 0 0 0 0 72 87 2 0 32 5 26 79 7 28 1 0 0 0 0 0 0 0 0 4 91 100 79 94 32 55 100 100 100 100 100 96 90 100 100
7 68 84 1 5 0 0 2 2 0 76 74 70 56 5 96 61 78 100 40 8 0 0 0 0 0 0 0 0 2 93 21 7 30 68 53 86 98 100 100 92 100 100 82 94
5 93 76 5 5 0 0 5 28 77 9 14 23 13 2 96 100 99 100 87 60 3 2 0 0 0 0 0 0 44 100 72 15 95 100 100 64 82 46 81 82 65 100 88 62
15 100 100 76 6 0 0 0 42 51 100 79 47 84 6 100 94 100 100 43 79 99 43 10 0 2 0 0 0 8 65 9 100 91 100 79 7 5 93 74 98 100 100 100 100
100 100 100 21 8 0 3 15 9 0 98 77 22 1 65 67 89 65 100 100 98 60 62 100 3 11 60 0 0 7 2 13 60 5 96 1 5 8 64 88 97 99 100 100 100
100 100 100 100 57 1 95 100 30 100 78 100 76 32 4 4 60 76 100 98 36 6 5 100 52 30 46 0 0 0 0 3 12 14 90 3 5 27 100 100 100 100 100 100 100
100 100 100 100 18 100 100 56 10 15 41 28 100 98 44 15 99 99 100 100 100 6 63 48 100 97 2 0 0 9 0 0 5 96 79 12 54 100 100 41 86 100 100 100 100
100 100 100 100 40 85 46 0 1 23 100 100 100 100 86 98 92 100 100 63 100 100 100 75 99 93 98 5 0 1 37 0 0 97 93 80 64 81 100 100 99 100 100 100 100
100 100 100 100 100 99 100 9 2 100 100 100 100 100 100 81 100 100 96 100 50 45 94 100 89 100 32 13 0 0 13 2 0 51 84 5 57 100 100 100 100 100 100 100 100
100 100 100 100 4 84 7 1 27 100 98 100 100 100 100 100 100 100 100 100 100 77 100 100 78 100 100 77 0 0 0 1 3 89 4 5 10 100 98 79 97 100 100 100 100
100 100 100 100 5 100 7 0 0 0 100 100 97 100 100 100 99 100 32 69 32 65 100 98 89 94 54 99 1 0 0 1 5 99 6 0 12 21 100 20 97 100 100 100 100
100 100 100 100 46 100 93 6 0 0 39 100 99 99 100 94 94 100 100 100 100 100 100 100 3 100 100 25 55 18 0 0 0 6 1 0 4 85 88 52 55 100 100 100 88

GFSSW_prec_cloud_096.txt.gz
Cloud_Cover
33 23 37 1 53 62 99 85 50 10 60 31 13 22 20 0 0 0 0 0 0 0 0 0 2 100 76 100 100 100 100 100 100 100 100 92 100 100 88 100 89 100 100 64 47
100 100 74 82 100 100 100 100 96 67 14 56 33 20 13 0 3 0 0 0 0 0 0 0 0 96 100 86 100 100 100 100 100 100 100 100 100 100 48 88 100 70 100 45 98
100 100 100 100 100 100 100 100 100 100 96 31 65 18 6 0 0 0 0 0 0 0 0 0 0 7 100 92 96 100 100 100 100 85 100 100 100 100 100 70 100 30 100 100 100
100 100 100 100 100 100 100 100 100 100 100 83 5 16 1 0 0 0 0 0 0 0 0 0 0 0 4 84 68 100 100 100 100 100 58 100 100 100 86 100 90 9 98 98 100
100 100 100 100 100 100 100 100 100 100 100 92 50 6 1 0 0 0 0 0 0 0 0 5 5 5 2 3 16 8 100 100 100 91 27 99 98 100 99 100 99 26 100 97 26
100 100 100 100 100 100 100 100 100 100 100 24 24 18 1 0 0 0 0 0 0 0 0 3 75 4 1 0 4 98 100 100 100 100 47 88 47 74 100 100 98 97 100 100 88
100 100 100 100 100 100 100 100 94 100 100 100 61 6 0 0 0 0 0 0 0 0 1 30 10 5 0 0 79 49 100 100 100 100 67 100 99 96 100 64 100 79 32 100 100
100 100 100 100 100 80 5 4 11 98 100 100 59 0 0 0 0 0 0 0 0 0 0 5 5 5 5 0 6 100 100 98 100 100 100 100 100 100 95 100 85 100 97 100 95
100 100 100 100 15 1 0 0 4 38 85 76 4 0 0 0 0 0 0 0 0 0 0 0 3 5 5 0 4 43 100 88 100 100 100 100 83 13 79 98 100 100 100 97 89
100 100 100 100 4 0 0 0 0 0 0 1 0 0 0 0 0 0 0 0 0 0 0 0 0 0 3 0 3 3 6 78 79 100 100 100 79 74 16 100 100 100 86 88 95
100 100 100 100 3 0 1 0 0 0 0 0 1 0 0 0 0 0 0 0 0 0 0 0 0 0 0 26 99 47 10 100 51 66 100 100 53 86 69 83 100 100 72 100 100
100 100 100 100 92 39 47 0 0 0 0 0 0 0 0 0 0 0 0 0 0 0 0 0 0 0 0 14 13 80 83 100 100 100 100 100 100 100 76 100 94 100 95 100 100
94 83 73 78 93 54 0 0 0 0 0 0 0 0 0 0 0 0 0 0 0 0 0 0 0 0 0 0 3 5 43 84 96 100 94 100 100 100 92 54 84 100 100 98 100
77 44 13 38 9 0 0 0 0 0 0 0 0 0 3 0 0 0 0 0 0 0 0 0 0 0 0 0 0 5 29 99 100 96 98 100 100 100 100 51 100 100 97 98 100
23 11 0 96 10 5 4 4 0 0 0 0 0 0 0 2 0 4 5 0 0 0 0 0 0 0 0 0 0 0 100 96 98 43 12 89 100 100 100 100 98 100 100 100 100
6 1 49 2 20 5 5 5 3 3 11 0 3 2 0 0 0 5 0 0 0 0 0 0 0 0 0 0 0 10 100 98 35 64 10 29 100 100 100 100 100 100 100 100 100
5 63 89 5 5 53 21 5 3 1 5 17 1 2 62 2 3 0 4 5 2 0 0 0 0 0 0 0 0 76 99 24 77 66 3 35 94 100 100 100 100 100 93 78 100
37 100 98 95 5 50 18 5 0 0 5 25 12 2 2 6 100 5 1 15 100 62 4 0 0 0 0 0 0 41 71 5 21 34 22 76 100 100 100 100 100 100 100 62 80
99 68 100 100 95 42 53 3 0 1 2 5 39 65 64 74 36 100 6 5 99 100 96 3 0 0 0 0 0 54 62 5 5 52 46 33 100 100 100 100 100 100 100 100 100
100 100 100 100 100 100 14 5 0 0 0 14 98 73 0 8 93 63 100 22 57 38 5 61 22 0 0 0 0 1 14 5 5 19 100 5 59 100 100 100 100 83 100 100 89
100 94 100 100 100 95 5 3 4 40 26 51 14 72 5 10 74 5 100 92 93 100 43 6 32 1 0 0 0 0 0 3 85 81 68 90 72 100 100 100 100 100 100 100 100
100 100 100 100 100 100 3 5 61 35 90 54 60 94 10 0 64 97 48 82 50 90 100 84 100 8 5 1 0 0 0 40 98 98 100 97 96 100 100 100 100 100 100 100 100
100 100 100 100 100 32 4 8 2 0 86 64 55 25 82 65 0 93 76 99 96 53 96 100 100 50 35 6 1 0 0 16 100 89 51 16 98 100 100 90 100 100 100 100 100
100 100 100 100 100 55 3 5 5 28 78 100 81 36 37 6 8 62 79 79 100 100 95 100 100 96 82 44 5 1 0 6 94 100 52 12 96 100 89 93 100 97 100 100 100
100 100 100 100 97 5 5 16 1 9 62 26 100 99 100 84 100 100 100 95 100 99 100 100 100 100 99 49 5 5 1 87 68 6 5 87 88 100 95 100 96 100 99 89 100
100 100 100 100 22 5 5 100 12 0 35 49 92 100 100 100 100 100 100 100 100 69 100 100 100 100 96 58 7 5 15 100 50 71 0 4 100 65 31 3 66 100 96 97 100
100 99 100 100 51 45 87 100 46 0 0 92 75 99 100 94 100 100 100 100 100 100 82 89 100 100 100 88 100 100 100 46 78 5 3 75 94 98 95 100 17 100 100 100 100

GFSSW_prec_cloud_099.txt.gz
Cloud_Cover
100 100 100 100 100 100 100 74 100 100 100 100 89 100 42 11 0 0 0 0 0 0 4 58 87 100 100 100 100 100 100 100 100 100 100 100 98 100 100 29 95 26 100 100 100
100 100 100 100 100 100 100 100 100 100 100 100 29 77 6 13 15 0 0 0 0 0 5 5 25 100 100 100 100 100 100 100 100 100 100 100 100 100 100 90 17 55 83 100 100
100 100 100 100 100 100 100 100 100 100 100 100 100 48 24 23 13 0 0 0 0 0 2 0 4 40 100 100 100 100 100 99 100 100 100 100 100 100 100 78 70 99 6 100 100
100 100 100 100 100 100 100 100 100 100 100 100 100 8 10 10 0 0 0 0 0 0 0 5 5 34 96 100 78 100 100 100 100 100 100 93 100 100 100 100 40 10 54 95 8
100 100 100 100 100 100 100 100 100 100 100 100 72 24 4 0 0 0 0 0 0 0 0 5 5 5 100 100 59 100 100 100 100 100 100 100 100 100 100 100 99 96 100 79 70
100 100 100 100 100 96 100 100 100 100 100 100 80 40 2 0 0 0 0 0 0 0 0 31 5 5 91 100 100 89 100 100 100 100 100 100 100 100 100 100 98 100 93 8 89
100 100 100 100 100 99 89 93 13 96 100 100 55 7 0 0 0 0 0 0 0 0 4 98 10 5 3 34 100 100 100 100 100 100 100 100 100 100 100 100 100 63 5 35 72
100 100 99 53 88 33 24 21 60 100 100 100 83 0 0 0 0 0 0 0 0 0 1 14 71 14 5 84 43 96 100 100 100 100 94 100 100 100 100 100 100 49 41 47 20
100 100 100 100 100 21 2 5 17 85 100 90 6 0 0 0 0 0 0 0 0 0 0 2 5 22 0 4 2 58 85 94 100 100 100 100 100 100 94 97 99 42 5 27 90
100 100 100 100 100 24 2 0 0 0 18 3 0 0 0 0 0 0 0 0 0 0 0 0 2 5 5 5 4 90 87 100 71 100 100 100 100 100 100 100 100 86 27 16 96
100 100 100 100 100 98 10 0 0 0 0 0 0 0 0 0 0 0 0 0 0 0 0 0 0 0 5 9 5 5 29 91 100 100 100 100 100 100 77 99 100 100 42 81 30
100 100 100 100 100 100 58 0 0 0 0 0 0 0 2 44 1 0 0 0 0 0 0 0 0 0 0 88 84 90 100 62 100 100 100 100 100 100 77 58 100 100 86 50 79
51 100 87 39 100 63 0 0 0 0 3 5 0 1 5 5 12 0 0 0 0 0 0 0 0 0 0 5 67 95 48 90 100 100 100 100 100 100 100 100 100 100 86 41 98
17 24 28 73 3 0 0 0 0 0 0 25 0 0 8 6 72 3 0 0 0 0 0 0 0 0 0 0 23 97 92 100 100 100 100 100 100 100 100 84 96 100 100 99 76
5 5 39 96 10 15 4 5 0 0 0 0 5 0 0 2 3 17 4 0 0 0 0 0 0 0 0 0 1 5 96 100 100 77 100 100 100 100 88 76 47 99 100 85 100
8 72 100 100 100 100 68 38 38 1 0 0 0 0 0 3 0 4 5 2 0 0 0 0 0 0 0 0 0 65 89 58 53 66 100 100 100 100 88 40 81 89 98 99 100
65 92 100 100 100 100 96 38 100 18 5 1 0 0 0 6 3 0 5 0 0 0 0 0 0 0 0 0 0 48 9 85 5 43 100 58 91 72 100 100 100 76 100 100 100
100 100 100 100 100 100 100 98 51 68 2 0 0 0 0 0 11 5 0 3 0 2 5 0 0 0 0 0 0 0 3 9 51 27 96 6 12 99 100 100 79 100 100 100 100
100 100 100 100 100 100 100 100 99 14 2 2 0 0 0 5 7 5 6 2 4 0 0 0 0 0 0 0 0 0 0 2 12 8 25 94 91 100 100 100 100 100 100 96 87
100 100 58 99 99 100 100 78 86 2 0 4 5 0 0 83 98 15 100 87 86 4 2 17 0 0 0 0 0 0 0 5 5 4 4 93 100 100 100 100 100 100 100 99 100
100 100 39 21 91 100 98 11 5 5 1 4 5 2 5 25 59 36 80 94 96 6 5 5 7 0 0 0 0 0 0 0 4 5 0 17 8 2 100 100 100 100 100 100 100
100 100 72 46 100 67 5 5 6 1 2 27 84 6 7 67 95 95 87 6 6 45 10 80 100 8 0 0 0 0 0 3 5 4 0 0 51 71 45 100 100 100 100 100 100
99 100 100 100 100 100 6 5 10 0 1 21 31 25 100 100 40 100 33 87 7 43 54 50 100 100 64 3 1 0 0 1 90 9 5 0 35 100 32 100 100 100 100 100 100
23 100 100 100 100 100 5 10 0 2 5 98 83 56 96 91 100 67 4 74 99 100 100 30 100 100 100 83 5 0 0 0 1 7 5 7 100 100 71 100 100 100 100 100 100
5 66 97 100 38 29 5 4 0 8 5 15 88 100 100 81 41 97 36 2 6 30 69 100 100 100 100 100 100 100 3 0 0 2 3 8 18 17 67 98 100 100 100 100 100
86 87 23 20 9 79 5 0 5 0 1 3 72 9 100 97 94 81 43 100 100 100 27 100 100 100 100 100 100 100 100 2 0 2 0 0 68 71 28 0 100 100 100 100 100
99 97 21 70 44 6 5 4 5 5 5 0 28 100 82 100 99 100 83 100 100 100 100 100 100 100 100 100 100 100 100 82 0 0 5 44 6 47 50 36 62 69 87 96 100

GFSSW_prec_cloud_102.txt.gz
Cloud_Cover
100 100 100 100 100 100 100 100 100 100 100 100 99 26 13 17 6 10 0 0 0 0 0 5 100 60 100 100 100 100 100 100 100 100 100 100 100 97 100 95 45 24 80 24 48
100 100 100 100 100 100 100 100 100 100 100 100 100 100 33 13 56 0 0 0 0 0 5 2 26 91 100 98 100 99 100 100 100 100 100 100 100 100 100 100 91 80 46 14 95
100 100 100 100 100 100 100 100 100 100 100 100 100 100 18 47 18 0 0 0 0 0 3 5 23 100 100 100 47 100 100 100 100 100 100 100 100 100 100 100 69 38 49 48 6
100 100 100 100 100 100 100 100 100 100 100 100 100 75 1 45 0 0 0 0 0 0 2 5 5 93 100 100 100 100 100 100 100 100 90 100 100 100 100 100 58 5 38 11 4
100 100 100 100 100 100 100 100 100 100 100 100 98 19 1 0 0 0 0 0 0 0 2 6 5 93 100 100 100 100 100 100 100 100 100 100 100 100 100 100 55 75 15 4 4
100 100 100 100 100 100 100 100 100 100 100 100 100 55 3 0 0 0 0 0 0 0 0 6 33 8 100 100 100 100 100 100 100 100 100 99 100 100 100 91 73 16 6 4 0
100 100 100 100 100 100 100 100 100 100 100 100 81 46 0 0 0 0 0 0 0 0 0 5 5 5 30 100 100 100 100 100 100 100 100 100 100 100 100 100 54 72 5 4 1
100 100 100 100 94 100 92 52 100 100 100 100 8 2 0 0 0 0 0 0 0 0 0 0 5 5 48 98 100 100 100 100 100 100 100 100 100 100 100 100 57 59 5 5 0
100 100 100 100 100 99 54 27 36 100 100 88 4 0 0 0 0 0 0 0 0 0 0 0 1 5 1 90 100 100 100 100 100 100 100 100 100 100 100 100 82 86 72 40 1
100 100 100 100 100 100 50 1 0 39 32 0 0 0 0 0 0 0 0 0 0 0 0 0 2 1 5 6 52 31 100 100 100 100 100 98 100 100 100 100 76 100 100 5 5
100 100 100 100 100 100 13 0 0 0 0 0 0 0 0 0 0 0 0 0 0 0 0 0 0 2 7 5 5 5 100 100 100 100 100 100 100 100 100 100 98 66 96 4 77
100 100 100 100 100 100 46 0 0 0 0 0 0 0 0 0 0 0 0 0 0 0 0 0 0 0 5 39 5 5 100 100 100 100 100 100 100 100 100 100 100 97 71 19 97
68 100 100 100 100 84 12 5 0 2 0 0 1 0 0 0 0 0 4 0 0 0 0 0 0 0 0 40 75 90 25 100 100 100 100 100 100 100 100 100 99 100 97 51 19
36 48 100 100 65 100 100 99 94 95 6 1 10 5 5 4 3 5 20 2 0 0 0 0 0 0 0 18 27 95 96 52 100 100 100 100 100 100 100 100 100 100 96 98 8
6 100 100 96 99 100 100 100 100 100 92 5 57 100 6 37 55 21 98 12 0 0 0 0 0 0 0 0 2 74 83 71 98 100 100 100 100 99 99 100 99 97 100 68 12
6 84 100 100 100 100 100 100 100 100 100 5 12 98 69 5 98 90 5 100 1 0 0 0 0 0 0 0 0 21 39 88 70 100 100 100 90 97 84 99 100 88 100 98 86
36 100 95 96 100 100 100 100 100 100 100 38 1 15 74 73 6 100 100 92 16 0 0 0 0 0 0 0 0 5 88 52 59 93 100 100 100 13 48 94 95 100 100 67 100
97 55 19 56 89 100 100 100 100 100 100 100 57 1 0 62 13 16 94 100 66 3 0 0 0 0 0 0 0 0 5 5 5 10 85 100 100 100 100 90 100 90 100 92 91
9 4 4 5 6 23 98 88 92 100 100 100 70 10 4 2 6 28 4 86 100 11 4 0 0 0 0 0 0 0 0 2 7 33 35 94 100 100 91 100 99 100 100 100 84
5 2 0 5 30 50 21 80 100 89 46 16 5 5 1 7 3 5 15 4 93 100 100 43 0 0 0 0 0 0 0 0 2 5 5 29 95 100 100 100 100 100 100 100 100
0 0 0 29 34 8 45 61 30 19 5 6 1 0 0 0 68 5 60 39 4 99 100 100 56 0 0 0 0 0 0 0 0 0 0 6 1 86 100 100 100 100 100 100 100
0 0 0 61 40 100 100 97 5 5 3 0 4 5 22 4 28 66 14 10 40 12 100 100 100 84 4 0 0 0 0 0 0 0 0 0 0 15 100 100 100 100 100 99 100
0 0 34 19 11 5 50 5 0 0 0 0 5 17 100 98 46 22 77 85 96 96 68 100 100 100 96 12 4 0 0 0 0 0 0 0 2 100 100 98 100 100 100 100 100
0 1 8 97 52 21 5 5 0 0 1 0 0 5 70 27 5 25 12 98 18 93 10 100 100 100 100 100 19 1 0 0 0 0 0 0 84 100 100 100 100 100 100 100 100
4 53 6 100 95 29 37 5 0 0 0 0 5 5 17 97 92 26 90 63 32 65 44 91 100 100 100 100 100 82 4 0 0 0 0 0 5 41 100 100 100 100 100 100 100
7 88 76 14 9 6 6 5 5 0 0 0 55 5 5 9 100 100 100 98 50 100 100 100 100 100 100 54 97 100 98 4 0 0 0 0 16 0 100 100 100 100 100 100 100
5 87 6 100 100 72 82 5 0 4 5 5 6 78 8 85 79 86 72 70 93 91 82 94 100 100 66 73 63 97 100 68 5 0 0 3 0 8 100 100 100 95 91 100 100

GFSSW_prec_cloud_105.txt.gz
Cloud_Cover
100 100 100 100 100 100 100 100 100 100 100 100 100 98 98 16 0 0 0 0 0 0 0 2 28 23 8 81 100 62 99 100 100 100 100 100 100 100 92 100 6 95 7 1 20
100 100 100 100 100 100 100 100 100 100 100 100 100 90 100 100 0 0 0 0 0 0 0 2 25 44 100 100 100 91 98 100 100 100 100 100 100 100 8 45 10 77 71 12 25
100 100 100 100 100 99 100 100 100 100 100 100 100 100 29 53 0 0 0 0 0 0 0 0 4 96 100 100 100 98 97 100 100 100 100 92 81 96 36 14 46 86 88 3 5
100 100 100 100 99 75 100 86 81 100 100 100 100 88 13 47 0 0 0 0 0 0 0 5 4 14 100 100 100 100 100 92 100 100 100 100 100 97 38 84 67 100 85 1 0
100 100 100 100 100 100 98 100 24 75 100 100 100 19 3 0 0 0 0 0 0 0 0 3 5 5 100 100 100 100 100 100 100 100 100 100 100 100 77 95 82 100 24 4 0
100 100 100 100 100 100 100 100 100 97 100 35 100 68 0 0 0 0 0 0 0 0 0 2 5 5 100 100 100 100 100 100 100 100 100 99 96 100 97 75 30 43 66 38 0
100 100 100 100 100 100 100 100 100 100 98 87 61 11 0 0 0 0 0 0 0 0 0 0 0 5 58 100 83 100 100 100 100 100 86 98 100 100 96 85 74 5 5 92 0
100 100 100 100 100 100 100 100 100 100 100 92 4 5 0 0 0 0 0 0 0 0 0 0 0 4 4 100 100 100 100 100 100 100 100 100 100 100 100 95 60 39 18 44 42
100 100 100 100 100 100 100 98 96 98 96 13 4 0 0 0 0 0 0 0 0 0 0 0 0 2 4 87 100 100 100 100 100 100 100 100 100 100 100 100 100 14 96 7 3
97 100 100 100 100 100 34 1 99 56 6 0 0 0 0 0 0 0 0 0 0 0 0 0 0 0 0 6 100 100 100 100 100 100 100 99 100 100 100 98 99 37 93 21 2
100 100 100 100 100 76 14 4 0 0 0 0 0 0 0 0 0 0 0 0 0 0 0 0 0 0 1 5 5 5 100 100 100 100 100 88 67 100 100 100 78 32 52 4 5
100 84 100 100 100 100 67 98 95 51 4 0 0 0 0 0 0 0 0 0 0 0 0 0 0 1 45 15 5 68 90 100 100 100 100 100 91 100 100 92 90 100 21 5 52
56 100 100 100 96 50 97 100 100 100 100 32 2 0 0 0 0 0 0 5 4 0 0 0 0 0 51 57 29 98 36 100 100 100 100 100 100 100 100 100 88 76 8 56 91
25 70 100 100 36 13 98 100 100 100 100 100 12 6 0 0 0 0 0 22 5 2 0 0 0 0 1 92 97 100 61 98 100 100 100 100 100 100 100 100 100 100 97 69 11
54 100 100 97 9 11 75 99 100 100 100 100 100 56 5 0 2 0 4 3 64 5 0 0 0 0 0 64 99 86 99 91 78 100 100 100 100 100 100 96 84 90 96 5 73
26 100 98 30 7 86 98 78 100 100 100 100 100 80 5 17 46 5 5 5 6 57 0 0 0 0 0 28 100 100 36 69 94 96 100 100 100 100 100 100 91 100 100 100 67
82 100 96 0 0 4 100 100 98 100 100 100 100 64 57 100 100 88 5 85 53 41 3 0 0 0 0 0 83 100 100 21 60 98 100 100 100 100 100 100 100 98 98 94 97
100 60 15 0 0 4 97 100 100 100 100 100 100 65 6 100 98 81 100 100 100 100 89 0 0 0 0 0 0 30 100 90 100 99 100 100 100 100 100 100 100 100 100 100 99
23 0 0 0 0 5 75 100 100 100 100 100 100 39 5 29 100 54 60 100 100 100 100 7 0 0 0 0 0 0 0 13 79 5 44 100 100 100 100 100 100 100 100 100 100
5 0 0 0 0 5 14 100 99 100 100 100 100 92 63 6 1 95 34 34 86 100 100 100 7 0 0 0 0 0 0 0 5 46 23 100 100 100 100 100 100 100 100 100 100
4 0 0 0 5 5 72 95 100 86 92 96 99 100 91 12 5 0 72 36 11 98 100 100 97 3 0 0 0 0 0 0 1 3 29 39 100 100 100 100 100 100 100 87 100
5 5 0 0 3 46 100 99 91 56 5 5 5 5 0 5 5 5 5 93 29 5 63 99 100 99 1 0 0 0 0 0 0 0 0 2 34 100 100 100 100 100 100 100 100
5 5 0 0 5 87 9 87 86 48 26 5 2 0 2 5 43 93 36 59 77 9 54 63 100 100 97 2 0 0 0 0 0 0 0 0 0 63 100 100 100 100 100 100 100
5 5 0 0 0 0 1 1 5 5 4 0 0 0 0 5 24 80 44 47 90 32 5 57 99 100 100 100 9 0 0 0 0 0 2 0 0 55 58 100 100 100 100 100 100
5 5 0 0 0 0 2 1 4 0 5 0 0 0 0 4 79 99 45 14 82 71 5 6 92 100 100 49 100 10 0 0 0 0 0 0 0 0 73 100 100 100 100 100 100
5 4 0 5 0 4 21 5 0 0 0 0 0 0 5 5 38 48 26 23 5 89 47 5 6 100 100 100 97 100 38 4 0 0 0 0 0 0 90 100 100 100 100 100 100
5 5 5 5 5 5 24 5 5 5 0 0 0 0 0 8 13 92 68 100 99 92 44 90 48 90 85 74 88 71 44 16 5 0 0 0 0 2 97 82 96 100 100 100 100

GFSSW_prec_cloud_108.txt.gz
Cloud_Cover
100 100 100 100 100 100 100 100 100 21 99 100 6 99 21 42 0 0 0 0 0 0 0 0 0 1 19 100 100 46 46 98 90 100 100 76 100 76 37 21 80 80 4 0 0
100 100 100 100 100 100 100 100 99 62 92 100 93 17 62 99 0 0 0 0 0 0 0 4 0 3 2 100 100 81 72 98 97 100 100 89 100 98 74 51 100 86 0 0 0
100 100 100 98 100 96 100 100 100 100 100 100 100 60 0 0 0 0 0 0 0 0 0 0 0 4 77 100 96 99 97 100 100 100 100 100 52 36 15 97 100 67 3 4 1
100 100 100 100 100 96 78 100 94 21 94 100 98 38 0 0 0 0 0 0 0 0 0 0 0 5 5 100 69 92 98 90 100 100 100 84 60 100 22 100 100 58 5 1 5
100 94 100 100 100 100 100 90 89 1 17 73 16 0 1 0 0 0 0 0 0 0 0 0 0 39 16 99 82 100 94 100 100 100 100 100 100 97 23 84 47 46 5 1 4
93 60 90 100 100 100 100 100 100 100 92 12 1 0 0 0 0 0 0 0 0 0 0 0 0 5 24 78 82 99 100 100 100 100 100 100 96 88 76 87 23 87 5 5 0
99 100 100 100 100 100 100 99 100 100 68 21 1 0 0 0 0 0 0 0 0 0 0 0 0 3 90 99 100 100 100 100 100 100 100 100 65 100 100 92 100 5 49 1 0
100 100 100 99 92 94 99 98 100 100 47 0 7 0 0 0 0 0 0 0 0 0 0 0 0 1 13 96 100 100 100 100 100 100 99 100 86 100 100 52 6 57 100 4 0
100 100 100 100 100 100 97 89 99 61 8 0 0 0 0 0 0 0 0 0 0 0 0 0 0 8 0 4 81 100 100 100 100 100 100 99 100 100 100 100 72 34 87 92 26
95 100 94 84 99 100 1 6 29 0 0 0 0 0 0 0 0 0 0 0 0 0 0 0 0 2 0 1 66 100 100 100 100 100 100 100 100 100 100 99 94 100 7 30 70
100 100 100 100 100 52 2 5 15 66 51 22 0 0 0 0 0 0 0 0 0 0 0 0 0 0 5 5 73 100 100 100 100 100 100 100 100 100 96 95 100 100 97 52 24
84 51 100 100 100 90 7 5 26 88 100 100 100 8 0 0 0 0 0 0 0 0 0 0 0 0 95 13 10 100 72 100 100 100 100 100 100 100 100 100 98 82 93 94 92
12 100 100 100 92 11 0 6 60 90 100 100 100 100 19 0 0 0 0 0 0 0 0 0 0 0 0 5 55 99 100 100 100 100 100 100 100 100 100 100 92 100 94 100 97
5 100 100 90 47 0 1 9 100 71 100 100 100 100 100 4 0 0 0 0 3 5 0 0 0 0 5 14 100 100 100 100 100 100 100 100 100 100 100 100 100 100 100 100 56
23 100 100 96 0 0 0 2 97 94 99 100 100 100 100 59 2 0 0 0 2 5 1 0 0 0 0 44 74 78 81 100 100 100 100 100 100 100 100 100 93 100 100 97 100
100 100 97 22 0 0 0 5 47 79 100 100 100 100 100 68 5 0 0 0 0 4 12 0 0 0 0 0 14 20 76 100 100 100 100 100 100 100 100 89 62 100 100 100 85
100 100 58 0 0 0 0 5 79 45 69 98 100 100 100 44 5 0 0 0 2 3 5 3 0 0 0 0 1 91 96 94 100 100 100 100 100 100 100 100 100 85 100 100 100
91 40 15 0 0 0 0 30 8 5 67 75 100 100 100 67 27 36 2 5 6 23 8 100 0 0 0 0 0 6 94 61 100 100 100 90 100 100 100 100 100 88 99 100 100
35 5 2 0 0 0 12 6 84 21 28 100 100 100 64 21 50 8 5 64 6 100 52 100 89 0 0 0 0 0 33 47 86 100 100 96 100 100 100 100 100 100 100 100 100
40 5 3 0 0 0 5 7 100 100 52 100 100 100 100 77 42 98 20 29 85 50 78 100 100 18 0 0 0 0 0 11 38 80 100 100 100 100 100 100 100 100 100 99 100
17 5 0 0 0 0 2 30 100 45 100 100 100 100 100 87 34 100 100 51 70 100 99 80 100 98 2 0 0 0 0 0 4 5 100 100 100 100 100 100 100 100 90 44 100
31 5 0 0 0 0 2 4 98 98 43 6 59 66 94 98 78 55 98 96 75 70 100 49 99 11 91 1 0 0 0 0 0 2 43 86 100 100 100 100 100 100 100 55 93
7 5 0 0 5 1 0 2 5 6 5 3 23 5 22 22 45 9 5 5 5 62 17 82 100 99 59 17 0 0 0 0 3 3 10 4 28 100 100 100 100 100 100 100 83
5 5 0 0 0 1 0 0 0 0 1 2 3 0 4 5 2 5 19 5 5 5 35 19 100 55 100 100 23 0 0 0 1 5 31 97 94 100 100 100 100 100 100 100 100
5 5 0 4 1 0 0 0 2 5 0 0 4 1 10 96 56 5 52 5 5 5 5 27 22 100 48 85 5 20 4 0 0 2 12 100 92 100 100 100 100 100 100 100 100
5 5 0 0 0 0 0 0 0 0 0 0 2 0 4 99 99 75 5 9 24 3 64 5 48 15 100 7 24 5 0 0 0 5 5 24 100 65 0 26 100 100 100 100 100
4 0 2 0 4 0 4 0 0 0 0 0 0 2 5 1 5 5 8 5 5 3 7 71 95 12 93 92 63 64 5 0 1 0 2 96 75 46 1 90 100 100 100 100 100

GFSSW_prec_cloud_111.txt.gz
Cloud_Cover
98 100 100 99 100 100 100 100 100 100 73 47 64 10 0 0 0 0 0 0 0 0 0 0 0 0 4 100 100 98 45 88 93 82 100 100 96 100 85 100 99 22 3 16 0
100 67 78 94 82 97 100 100 100 98 27 10 0 1 0 0 0 0 0 0 0 0 0 0 0 0 0 58 100 74 69 100 96 79 100 100 71 100 81 100 86 72 73 6 1
6 5 4 46 100 100 100 100 16 2 3 1 6 0 0 0 0 0 0 0 0 0 0 0 0 0 4 53 100 100 50 100 99 99 100 100 99 7 82 100 100 58 3 0 0
100 98 81 100 94 98 75 12 2 4 1 4 4 0 0 0 0 0 0 0 0 0 0 0 0 0 0 87 100 100 81 84 94 96 100 100 94 100 55 100 100 63 0 0 0
97 76 32 87 52 29 85 100 97 84 0 0 0 0 0 0 0 0 0 0 0 0 0 0 0 0 19 90 98 100 61 65 100 100 100 71 100 100 99 69 100 98 4 0 0
100 100 100 98 72 62 72 66 31 68 18 15 3 0 0 0 0 0 0 0 0 0 0 0 2 3 41 87 100 100 100 100 100 98 100 100 100 100 100 5 63 100 22 3 4
100 92 64 41 76 25 19 21 0 24 13 0 0 0 0 0 0 0 0 0 0 0 0 0 1 5 37 100 100 100 78 95 99 100 100 98 100 80 100 78 35 100 100 1 0
20 8 14 30 78 94 85 26 30 38 0 0 0 0 0 0 0 0 0 0 0 0 0 0 1 4 15 99 100 100 99 100 100 100 100 100 56 100 71 59 42 13 62 62 22
54 21 21 41 39 85 4 5 95 36 0 1 1 0 0 0 0 0 0 0 0 0 0 0 0 5 5 9 89 99 99 100 100 100 100 100 100 98 98 30 58 40 35 57 100
0 1 2 42 57 92 0 11 4 17 1 0 0 0 0 0 0 0 0 0 0 0 0 0 0 4 25 21 86 95 100 100 100 100 100 100 100 93 100 75 98 83 58 66 96
0 0 18 94 91 96 17 0 0 2 0 5 59 5 0 0 0 0 0 0 0 0 0 0 0 0 5 18 100 98 100 100 100 100 100 100 100 100 100 100 100 100 100 100 91
0 15 100 82 100 86 1 0 0 0 25 11 52 96 74 3 0 0 0 0 0 0 0 0 0 0 86 98 97 93 100 100 100 100 100 100 100 100 100 100 100 71 92 100 92
0 36 70 25 30 33 0 0 0 0 15 20 100 100 99 100 2 0 0 0 0 0 0 0 0 0 61 73 9 97 100 100 100 100 100 100 100 100 100 100 100 100 81 36 9
5 78 21 8 51 0 0 0 0 0 60 59 85 98 100 100 89 0 0 0 0 0 0 0 0 0 23 24 56 99 70 100 100 100 100 100 100 100 100 100 98 100 97 61 100
97 100 100 95 0 0 0 0 0 2 100 91 94 100 100 80 96 24 0 0 0 0 0 0 0 0 0 4 38 98 71 96 100 100 100 100 100 100 100 100 100 100 87 100 32
100 100 97 9 0 0 0 0 0 60 100 100 100 100 100 100 89 35 5 0 0 0 2 15 2 0 0 27 21 46 54 99 100 100 100 100 100 100 100 100 100 100 79 53 45
100 100 57 0 0 0 0 0 74 100 15 100 98 100 100 100 100 48 5 4 0 3 5 1 2 1 0 28 23 1 98 42 100 100 100 100 100 100 100 100 100 96 100 96 100
50 35 5 0 0 0 0 9 97 8 99 98 97 100 100 100 98 92 77 5 3 2 100 22 0 0 0 6 8 0 72 70 100 100 100 100 100 100 100 100 100 55 95 100 76
57 0 2 0 0 0 0 100 88 99 47 98 100 100 100 100 100 99 100 67 34 5 53 64 31 3 0 0 4 2 4 45 100 100 100 100 100 100 100 100 100 99 100 100 99
5 1 5 0 1 0 2 23 1 88 72 66 100 100 100 100 100 96 90 95 100 3 5 91 88 19 4 0 0 1 14 6 76 94 65 100 100 100 100 100 100 98 100 100 94
2 25 5 5 1 1 97 3 0 25 6 87 92 100 100 100 73 78 100 42 10 40 0 22 12 99 4 0 0 0 0 5 100 100 100 100 86 100 100 100 100 100 99 100 100
2 97 0 1 3 5 5 5 0 0 96 5 6 99 100 100 100 100 73 100 27 52 7 5 32 11 73 5 0 0 0 0 0 19 100 100 86 100 100 100 100 100 100 100 100
4 2 2 0 82 5 0 0 0 4 0 64 80 14 42 100 100 100 100 89 4 45 86 96 84 62 45 96 1 0 2 1 0 19 100 100 100 100 100 100 100 100 100 100 100
2 57 2 1 2 14 1 2 3 0 0 0 0 20 12 28 38 100 86 33 4 19 3 8 100 87 100 99 67 66 0 4 2 5 60 100 100 100 100 88 84 100 100 100 100
0 84 7 58 0 0 2 1 5 4 1 5 4 15 61 78 99 70 94 98 5 5 2 5 38 100 100 84 86 100 57 0 4 5 100 100 100 100 100 92 61 100 100 100 100
4 5 0 5 0 0 0 5 3 4 0 0 3 2 58 100 56 15 93 64 98 72 5 57 58 59 100 97 100 99 95 100 31 5 2 47 100 5 100 95 18 100 100 100 100
0 0 0 8 0 1 14 0 5 4 0 0 0 2 31 54 7 50 13 24 84 23 60 82 99 9 89 100 100 89 100 44 73 98 39 65 69 4 70 100 33 100 100 100 100

GFSSW_prec_cloud_114.txt.gz
Cloud_Cover
100 68 68 64 19 6 57 97 93 71 39 14 9 0 8 0 0 0 0 0 0 0 0 0 0 0 4 95 100 99 49 85 100 100 100 96 99 100 20 100 94 76 0 14 26
97 86 95 59 100 100 38 1 5 17 21 20 0 0 0 0 0 0 0 0 0 0 0 0 0 0 0 84 100 98 32 99 62 97 100 100 83 100 17 100 94 20 52 11 25
100 100 36 84 18 3 4 0 0 0 1 18 0 0 0 0 0 0 0 0 0 0 0 0 0 0 0 76 100 100 9 89 100 98 100 100 100 100 50 100 43 60 5 37 25
100 94 10 30 29 7 6 9 21 0 1 0 0 0 0 0 0 0 0 0 0 0 0 0 0 0 8 98 96 100 100 61 98 100 100 100 92 67 49 100 100 5 9 0 0
21 16 15 4 4 16 17 29 4 17 20 8 0 0 0 0 0 0 0 0 0 0 0 0 0 0 0 44 89 100 100 100 74 81 100 100 100 91 100 100 98 100 41 5 22
7 2 20 15 22 27 28 18 17 9 19 8 1 0 0 0 0 0 0 0 0 0 0 0 0 0 3 88 63 97 100 100 14 99 100 100 96 24 100 99 34 82 96 2 3
22 17 23 30 24 43 24 18 24 26 25 6 0 0 0 0 0 0 0 0 0 0 0 0 0 0 3 100 99 98 100 100 74 100 99 100 98 100 100 84 65 6 42 82 12
59 27 28 22 42 51 32 0 14 26 28 0 0 0 0 0 0 0 0 0 0 0 0 0 0 3 5 34 88 16 100 100 100 100 100 98 100 100 89 99 73 37 23 63 76
0 0 0 24 46 0 16 0 1 17 6 1 0 0 0 0 0 0 0 0 0 0 0 0 0 5 0 53 75 88 100 100 100 100 100 100 100 100 40 98 58 52 41 58 90
0 0 0 1 48 48 0 0 2 30 14 0 0 0 0 0 0 0 0 0 0 0 0 0 0 5 2 89 67 38 100 100 100 100 100 100 100 100 100 86 53 86 60 56 100
0 0 0 0 0 7 1 0 0 2 0 0 0 0 0 0 0 0 0 0 0 0 0 0 0 5 5 9 99 98 100 100 100 100 100 100 100 100 100 100 99 96 100 25 82
0 0 0 0 0 2 4 0 0 0 0 0 0 0 98 61 7 0 0 0 0 0 0 0 0 2 5 93 100 60 100 100 100 100 100 100 100 100 100 100 100 93 100 75 88
0 0 0 0 4 38 0 0 0 0 2 8 0 5 100 80 96 21 0 0 0 0 0 0 0 0 62 98 40 92 95 100 100 100 100 100 100 100 100 100 100 100 95 39 12
12 37 9 12 41 0 0 0 0 2 36 33 64 70 97 100 100 74 5 0 0 0 0 0 0 0 53 22 100 100 92 100 100 100 100 100 100 100 100 100 100 99 100 89 14
100 100 100 95 0 0 0 0 0 1 100 26 100 59 100 100 92 100 6 0 0 0 0 0 0 5 1 17 97 100 66 100 100 100 100 100 100 100 100 100 100 99 91 100 94
100 100 98 0 0 0 0 0 2 44 93 80 93 44 100 100 97 44 5 5 0 0 0 0 1 3 1 78 27 100 53 100 100 100 100 100 100 100 100 100 100 97 100 35 44
100 100 62 0 0 0 0 16 78 75 6 93 76 99 100 100 100 80 65 5 1 0 0 0 5 7 0 0 86 100 93 100 100 100 100 100 100 100 100 100 79 100 100 100 16
72 94 1 0 0 0 0 11 7 68 44 7 76 99 100 100 100 99 16 5 4 0 27 3 0 0 0 1 95 11 1 100 100 100 100 100 100 100 100 100 100 100 88 97 100
30 0 0 0 0 0 0 99 89 37 4 98 96 100 100 100 100 100 100 47 14 5 98 91 11 58 2 0 58 56 0 59 100 100 100 100 100 100 100 100 100 100 100 100 96
0 0 0 0 0 0 3 32 15 0 1 66 26 100 100 100 90 100 100 100 47 21 50 94 34 5 11 1 0 4 90 9 87 100 100 100 100 100 100 100 100 100 100 80 96
2 17 2 0 0 0 41 72 3 0 0 69 98 99 100 100 100 100 66 33 86 58 0 4 4 96 71 3 0 0 0 1 68 100 100 100 100 100 100 100 100 100 91 98 100
1 30 2 0 0 68 100 3 0 4 2 1 0 28 100 98 98 99 67 100 21 69 51 0 5 100 100 49 2 0 3 0 0 98 100 100 100 100 100 100 100 100 100 100 99
5 12 0 0 81 96 5 0 1 47 4 5 99 2 24 89 100 100 100 100 94 46 1 3 1 1 19 100 100 18 0 1 0 1 86 99 97 100 100 100 100 100 100 100 89
5 97 30 0 2 94 15 5 11 0 0 0 0 4 5 9 73 54 75 100 100 6 5 0 3 34 78 4 91 5 3 0 3 1 0 10 64 100 100 100 26 100 100 100 100
6 84 100 98 64 5 10 12 0 5 1 0 2 3 15 12 100 99 96 20 61 5 5 0 1 8 55 45 22 7 4 55 5 2 0 36 70 83 69 100 73 98 98 100 100
100 62 31 56 5 1 0 0 0 1 5 4 4 8 0 32 2 50 0 100 94 97 5 11 3 4 100 74 29 98 100 75 63 0 0 6 100 3 100 100 100 89 100 100 89
87 72 5 25 5 5 99 54 1 4 5 3 0 0 94 48 8 2 5 6 3 44 62 12 70 59 2 94 94 47 100 83 100 100 29 7 84 49 0 40 100 100 86 99 100

GFSSW_prec_cloud_117.txt.gz
Cloud_Cover
100 100 99 74 14 16 15 10 25 26 28 22 23 11 1 0 0 0 0 0 0 0 0 0 0 0 31 71 99 100 100 100 100 99 100 100 91 100 100 88 2 30 0 19 0
100 100 100 23 5 14 14 20 15 12 23 28 30 4 5 0 0 0 0 0 0 0 0 0 0 0 0 9 49 100 100 100 98 100 100 100 99 100 100 100 100 13 0 40 43
100 98 72 22 23 26 30 24 23 27 2 17 14 16 4 0 0 0 0 0 0 0 0 0 0 0 0 4 76 99 100 100 100 100 100 100 99 100 71 100 69 0 9 85 95
55 28 17 29 28 29 28 32 22 10 22 14 17 5 0 0 0 0 0 0 0 0 0 0 0 0 0 10 100 65 100 100 74 68 100 100 100 100 99 100 49 19 15 100 4
55 16 22 11 13 21 34 31 27 24 26 26 30 1 0 0 0 0 0 0 0 0 0 0 0 0 0 43 45 15 100 100 97 100 96 100 100 96 100 100 100 0 19 2 0
26 29 29 27 28 30 16 12 12 19 49 26 25 0 0 0 0 0 0 0 0 0 0 0 0 0 3 33 4 36 100 100 100 100 100 100 100 100 53 100 100 43 96 5 4
0 17 27 21 26 29 29 4 27 29 26 25 12 0 0 0 0 0 0 0 0 0 0 0 0 0 1 4 63 4 60 100 100 91 100 100 100 100 99 100 41 0 26 1 88
0 0 11 18 25 33 13 0 18 36 38 30 0 0 0 0 0 0 0 0 0 0 0 0 0 5 2 15 41 22 60 100 100 96 100 100 100 100 100 98 65 12 76 77 100
0 0 0 16 10 0 0 0 0 5 26 0 0 0 0 0 0 0 0 0 0 0 0 0 0 4 0 5 37 90 77 94 100 100 100 100 90 100 77 100 99 5 22 100 93
0 0 0 0 0 0 0 0 0 0 2 0 0 0 0 0 0 0 0 0 0 0 0 0 0 2 5 57 38 100 44 100 100 100 100 100 100 100 100 100 65 5 62 91 73
0 0 0 0 0 0 0 0 0 0 0 0 0 0 0 0 0 0 0 0 0 0 0 0 0 0 5 13 27 100 100 100 100 100 100 100 100 100 100 100 92 100 99 20 5
0 1 9 0 0 9 43 0 0 0 0 0 0 0 0 0 0 81 0 0 0 0 0 0 0 0 11 89 64 100 99 21 100 100 100 100 100 100 100 100 100 100 72 5 8
0 91 96 15 15 38 0 0 0 0 0 0 0 0 4 1 36 26 3 1 0 0 0 0 0 0 23 79 26 100 50 84 100 100 100 100 100 100 100 100 96 100 100 15 8
28 100 100 89 5 0 0 0 0 0 1 0 0 14 4 59 99 100 91 48 0 0 0 0 0 0 87 80 88 100 79 100 97 100 100 100 100 100 100 100 100 100 100 58 39
3 100 100 97 5 0 0 0 0 2 3 3 4 3 10 29 100 98 100 77 1 0 1 0 0 0 23 72 66 78 100 100 100 100 100 100 100 100 100 100 100 100 100 83 14
6 100 98 0 2 0 0 0 0 5 36 74 4 4 74 99 99 100 100 100 57 0 0 1 0 0 0 98 55 34 99 100 100 100 100 100 98 100 100 100 100 100 90 100 100
19 100 90 0 0 0 0 0 11 31 1 54 48 84 97 100 93 100 100 99 64 1 0 5 0 0 0 4 11 88 86 98 100 100 100 100 100 100 100 100 95 99 100 100 98
0 97 4 0 0 0 4 1 33 66 95 21 52 93 95 100 100 100 100 100 38 5 28 64 4 0 0 0 1 7 90 96 100 100 100 100 100 100 100 100 100 100 100 100 100
7 0 0 0 0 0 0 0 5 5 3 44 53 18 98 100 100 100 100 100 100 83 96 5 6 7 2 0 54 40 50 65 63 100 100 100 100 100 100 99 100 100 100 98 71
0 0 0 0 0 0 0 1 2 0 0 4 68 59 71 100 100 100 97 63 96 21 5 83 0 0 1 3 11 8 72 94 65 100 100 100 100 100 100 100 100 98 98 95 99
4 0 0 0 0 1 5 43 2 0 0 1 8 51 87 97 82 100 100 100 12 63 0 21 47 1 57 4 0 5 0 5 60 100 100 100 100 100 100 100 100 98 90 100 100
5 5 2 0 0 5 4 12 5 1 0 0 12 100 36 100 96 70 100 100 99 24 3 3 66 2 67 100 13 5 0 0 0 97 100 100 100 100 100 100 100 100 99 100 100
5 5 5 0 2 29 74 68 0 0 0 0 4 2 10 20 74 80 99 100 98 5 4 1 69 18 95 100 96 98 18 0 0 43 100 77 100 100 100 100 100 100 100 100 100
5 17 57 5 1 6 69 87 5 1 0 0 0 3 2 2 55 80 100 100 100 73 5 0 11 20 24 16 20 24 5 0 0 0 7 84 96 100 100 100 99 100 100 100 100
5 5 22 5 97 10 42 9 36 10 4 0 2 19 3 0 12 60 74 60 100 100 94 5 0 2 16 16 4 7 65 10 44 0 0 1 74 100 100 100 100 100 86 87 98
5 7 11 5 5 5 5 4 100 47 5 0 0 21 5 0 1 5 46 21 86 98 100 100 28 70 87 36 1 5 92 98 1 0 0 5 8 0 100 100 100 100 100 100 70
91 23 5 5 29 11 99 100 100 45 15 0 1 5 5 4 0 0 0 2 38 14 64 94 55 5 52 5 9 100 51 57 41 2 0 19 4 4 75 100 100 100 100 100 100

GFSSW_prec_cloud_120.txt.gz
Cloud_Cover
100 99 75 88 22 20 30 29 30 23 31 62 96 48 17 5 0 0 0 0 0 0 0 0 0 5 88 42 85 100 82 100 100 100 100 95 96 100 100 100 32 5 0 0 5
8 38 49 99 44 33 32 30 58 42 26 23 22 29 18 1 0 0 0 0 0 0 0 0 0 0 20 98 43 100 98 97 100 100 100 100 100 100 80 95 22 21 3 0 0
96 64 67 38 87 51 79 52 98 82 75 68 21 12 0 0 0 0 0 0 0 0 0 0 0 0 3 34 50 97 100 100 100 100 100 100 100 24 97 100 100 2 0 0 0
99 98 22 61 79 82 100 70 50 100 97 100 39 23 0 0 0 0 0 0 0 0 0 0 0 0 0 11 5 58 100 100 100 100 100 100 100 97 100 100 67 4 0 82 0
47 100 39 50 96 100 70 37 29 30 88 73 26 2 0 0 0 0 0 0 0 0 0 0 0 2 4 7 8 8 98 100 100 85 100 99 100 100 100 100 99 9 2 0 0
19 14 13 20 42 31 37 37 30 79 88 28 25 0 0 0 0 0 0 0 0 0 0 0 0 3 4 2 34 8 38 87 100 100 80 100 100 100 100 100 100 90 47 0 5
0 0 0 20 30 32 7 36 21 53 100 28 20 0 0 0 0 0 0 0 0 0 0 0 0 2 2 0 0 0 4 87 100 93 82 100 100 100 100 100 100 90 13 4 20
0 0 0 0 15 6 0 0 16 33 88 25 6 0 0 0 0 0 0 0 0 0 0 0 0 1 2 0 0 4 8 37 99 100 100 100 100 100 100 100 88 64 93 1 100
0 0 0 0 3 0 0 0 3 12 28 0 0 0 0 0 0 0 0 0 0 0 0 0 0 3 1 0 3 60 100 89 94 100 98 100 100 100 100 99 29 27 75 2 99
0 0 0 15 11 0 13 0 0 0 14 0 0 0 0 0 0 0 0 0 0 0 0 0 0 0 2 0 1 19 100 83 100 100 100 100 100 100 67 100 100 100 90 43 24
0 1 91 90 44 16 21 0 0 0 0 0 0 0 0 0 0 0 0 0 0 0 0 0 0 0 0 22 34 91 100 100 100 100 100 100 100 100 83 99 94 100 96 100 97
2 77 100 100 98 99 75 0 0 0 0 0 0 0 0 0 0 0 0 0 0 0 0 0 0 0 2 100 68 76 94 100 96 100 100 100 100 100 94 79 77 100 58 88 39
2 100 100 100 60 38 0 0 0 0 0 0 0 0 0 0 0 0 1 0 0 0 0 0 0 0 62 97 65 4 96 100 100 100 100 100 100 100 100 100 89 98 100 100 47
4 49 100 100 5 0 0 0 0 0 0 0 0 0 0 0 0 2 12 5 5 1 0 0 0 0 79 90 99 6 99 100 100 100 100 100 100 100 100 100 100 100 100 100 39
36 40 100 100 63 0 0 0 0 0 0 0 0 2 0 0 2 30 100 95 79 28 1 41 0 0 66 38 98 13 99 100 100 100 100 100 100 100 100 100 100 100 100 93 59
56 68 98 9 77 0 0 0 0 0 0 0 5 4 5 5 5 99 100 41 100 100 100 0 0 0 56 96 36 79 100 100 100 87 100 100 96 100 100 100 100 100 100 100 98
24 39 89 0 0 0 0 0 0 2 2 4 3 4 4 71 8 89 86 100 100 100 100 5 1 2 5 45 25 7 89 100 100 100 100 100 100 100 100 100 100 100 93 100 100
0 41 6 1 0 0 0 0 0 4 17 5 5 97 93 90 59 100 99 100 100 100 100 98 9 5 0 0 4 1 53 100 100 100 100 100 100 100 100 100 100 100 100 100 100
0 26 0 0 0 0 2 0 0 0 2 68 8 33 66 88 79 97 87 13 71 100 92 96 99 94 3 0 0 0 88 46 77 98 100 77 98 98 100 100 100 100 100 100 100
0 0 0 0 0 0 0 0 0 0 0 3 2 5 83 82 99 100 100 100 73 33 5 57 26 1 1 8 0 0 47 7 100 99 100 99 100 100 100 100 100 82 100 100 100
0 0 0 0 0 0 0 0 2 0 2 3 2 5 82 93 92 100 99 100 99 26 5 10 5 38 5 2 62 3 11 57 22 74 100 100 100 100 81 100 100 100 100 85 100
0 0 0 0 4 1 0 0 5 0 40 2 2 0 68 14 17 87 100 100 100 100 97 92 100 14 83 71 4 7 75 99 5 4 22 100 100 100 97 81 100 99 100 100 100
1 0 4 5 5 8 1 5 5 1 98 11 5 2 0 5 18 27 100 43 100 100 99 14 100 92 71 100 76 76 19 54 5 0 0 38 100 49 100 95 100 100 100 100 100
1 2 1 0 3 8 5 5 91 100 100 97 5 3 0 0 3 1 6 100 100 100 100 97 54 100 100 90 36 100 84 5 5 0 0 5 83 100 100 100 100 100 100 100 100
5 5 60 5 5 5 5 8 100 24 100 76 94 2 0 1 77 5 5 94 100 100 100 85 79 64 100 100 52 5 5 3 0 0 0 1 6 100 100 100 100 100 100 100 100
5 5 7 95 88 5 48 34 94 6 96 100 100 5 0 0 0 50 46 17 84 100 100 96 5 5 35 34 100 72 33 5 0 0 0 0 24 17 86 100 100 100 100 100 100
5 5 5 5 93 5 96 33 5 5 96 100 100 11 0 0 0 0 0 3 72 100 100 92 6 5 22 100 48 2 5 5 5 5 0 48 53 50 99 100 100 100 100 100 100